[[{"header":{"parameterUnit":"m.s-1","parameterCategory":1,"la1":30.6,"la2":28.766,"lo1":-90.7593,"lo2":-88.6598,"dy":0.0162,"dx":0.0183,"nx":116,"ny":114,"refTime":"2024-03-15T12:00:00:Z","depth":0,"parameterNumber":2,"parameterNumberName":"U-component_of_WINDS"},"data":[0.0,0.0,0.0,0.0,0.0,0.0,0.0,0.0,0.0,0.0,0.0,0.0,0.0,0.0,0.0,0.0,0.0,0.0,0.0,0.0,0.0,0.0,0.0,0.0,0.0,0.0,0.0,0.0,0.0,0.0,0.0,0.0,0.0,0.0,0.0,0.0,0.0,0.0,0.0,0.0,0.0,0.0,0.0,0.0,0.0,0.0,0.0,0.0,0.0,0.0,0.0,0.0,0.0,0.0,0.0,0.0,0.0,0.0,0.0,0.0,0.0,0.0,0.0,0.0,0.0,0.0,0.0,0.0,0.0,0.0,0.0,0.0,0.0,0.0,0.0,0.0,0.0,0.0,0.0,0.0,0.0,0.0,0.0,0.0,0.0,0.0,0.0,0.0,0.0,0.0,0.0,0.0,0.0,0.0,0.0,0.0,0.0,0.0,0.0,0.0,0.0,0.0,0.0,0.0,0.0,0.0,0.0,0.0,0.0,0.0,0.0,0.0,0.0,0.0,0.0,0.0,0.0,0.0,0.0,0.0,0.0,0.0,0.0,0.0,0.0,0.0,0.0,0.0,0.0,0.0,0.0,0.0,0.0,0.0,0.0,0.0,0.0,0.0,0.0,0.0,0.0,0.0,0.0,0.0,0.0,0.0,0.0,0.0,0.0,0.0,0.0,0.0,0.0,0.0,0.0,0.0,0.0,0.0,0.0,0.0,0.0,0.0,0.0,0.0,0.0,0.0,0.0,0.0,0.0,0.0,0.0,0.0,0.0,0.0,0.0,0.0,0.0,0.0,0.0,0.0,0.0,0.0,0.0,0.0,0.0,0.0,0.0,0.0,0.0,0.0,0.0,0.0,0.0,0.0,0.0,0.0,0.0,0.0,0.0,0.0,0.0,0.0,0.0,0.0,0.0,0.0,0.0,0.0,0.0,0.0,0.0,0.0,0.0,0.0,0.0,0.0,0.0,0.0,0.0,0.0,0.0,0.0,0.0,0.0,0.0,0.0,0.0,0.0,0.0,0.0,0.0,0.0,0.0,0.0,0.0,0.0,0.0,0.0,0.0,0.0,0.0,0.0,0.0,0.0,0.0,0.0,0.0,0.0,0.0,0.0,0.0,0.0,0.0,0.0,0.0,0.0,0.0,0.0,0.0,0.0,0.0,0.0,0.0,0.0,0.0,0.0,0.0,0.0,0.0,0.0,0.0,0.0,0.0,0.0,0.0,0.0,0.0,0.0,0.0,0.0,0.0,0.0,0.0,0.0,0.0,0.0,0.0,0.0,0.0,0.0,0.0,0.0,0.0,0.0,0.0,0.0,0.0,0.0,0.0,0.0,0.0,0.0,0.0,0.0,0.0,0.0,0.0,0.0,0.0,0.0,0.0,0.0,0.0,0.0,0.0,0.0,0.0,0.0,0.0,0.0,0.0,0.0,0.0,0.0,0.0,0.0,0.0,0.0,0.0,0.0,0.0,0.0,0.0,0.0,0.0,0.0,0.0,0.0,0.0,0.0,0.0,0.0,0.0,0.0,0.0,0.0,0.0,0.0,0.0,0.0,0.0,0.0,0.0,0.0,0.0,0.0,0.0,0.0,0.0,0.0,0.0,0.0,0.0,0.0,0.0,0.0,0.0,0.0,0.0,0.0,0.0,0.0,0.0,0.0,0.0,0.0,0.0,0.0,0.0,0.0,0.0,0.0,0.0,0.0,0.0,0.0,0.0,0.0,0.0,0.0,0.0,0.0,0.0,0.0,0.0,0.0,0.0,0.0,0.0,0.0,0.0,0.0,0.0,0.0,0.0,0.0,0.0,0.0,0.0,0.0,0.0,0.0,0.0,0.0,0.0,0.0,0.0,0.0,0.0,0.0,0.0,0.0,0.0,0.0,0.0,0.0,0.0,0.0,0.0,0.0,0.0,0.0,0.0,0.0,0.0,0.0,0.0,0.0,0.0,0.0,0.0,0.0,0.0,0.0,0.0,0.0,0.0,0.0,0.0,0.0,0.0,0.0,0.0,0.0,0.0,0.0,0.0,0.0,0.0,0.0,0.0,0.0,0.0,0.0,0.0,0.0,0.0,0.0,0.0,0.0,0.0,0.0,0.0,0.0,0.0,0.0,0.0,0.0,0.0,0.0,0.0,0.0,0.0,0.0,0.0,0.0,0.0,0.0,0.0,0.0,0.0,0.0,0.0,0.0,0.0,0.0,0.0,0.0,0.0,0.0,0.0,0.0,0.0,0.0,0.0,0.0,0.0,0.0,0.0,0.0,0.0,0.0,0.0,0.0,0.0,0.0,0.0,0.0,0.0,0.0,0.0,0.0,0.0,0.0,0.0,0.0,0.0,0.0,0.0,0.0,0.0,0.0,0.0,0.0,0.0,0.0,0.0,0.0,0.0,0.0,0.0,0.0,0.0,0.0,0.0,0.0,0.0,0.0,0.0,0.0,0.0,0.0,0.0,0.0,0.0,0.0,0.0,0.0,0.0,0.0,0.0,0.0,0.0,0.0,0.0,0.0,0.0,0.0,0.0,0.0,0.0,0.0,0.0,0.0,0.0,0.0,0.0,0.0,0.0,0.0,0.0,0.0,0.0,0.0,0.0,0.0,0.0,0.0,0.0,0.0,0.0,0.0,0.0,0.0,0.0,0.0,0.0,0.0,0.0,0.0,0.0,0.0,0.0,0.0,0.0,0.0,0.0,0.0,0.0,0.0,0.0,0.0,0.0,0.0,0.0,0.0,0.0,0.0,0.0,0.0,0.0,0.0,0.0,0.0,0.0,0.0,0.0,0.0,0.0,0.0,0.0,0.0,0.0,0.0,0.0,0.0,0.0,0.0,0.0,0.0,0.0,0.0,0.0,0.0,0.0,0.0,0.0,0.0,0.0,0.0,0.0,0.0,0.0,0.0,0.0,0.0,0.0,0.0,0.0,0.0,0.0,0.0,0.0,0.0,0.0,0.0,0.0,0.0,0.0,0.0,0.0,0.0,0.0,0.0,0.0,0.0,0.0,0.0,0.0,0.0,0.0,0.0,0.0,0.0,0.0,0.0,0.0,0.0,0.0,0.0,0.0,0.0,0.0,0.0,0.0,0.0,0.0,0.0,0.0,0.0,0.0,0.0,0.0,0.0,0.0,0.0,0.0,0.0,0.0,0.0,0.0,0.0,0.0,0.0,0.0,0.0,0.0,0.0,0.0,0.0,0.0,0.0,0.0,0.0,0.0,0.0,0.0,0.0,0.0,0.0,0.0,0.0,0.0,0.0,0.0,0.0,0.0,0.0,0.0,0.0,0.0,0.0,0.0,0.0,0.0,0.0,0.0,0.0,0.0,0.0,0.0,0.0,0.0,0.0,0.0,0.0,0.0,0.0,0.0,0.0,0.0,0.0,0.0,0.0,0.0,0.0,0.0,0.0,0.0,0.0,0.0,0.0,0.0,0.0,0.0,0.0,0.0,0.0,0.0,0.0,0.0,0.0,0.0,0.0,0.0,0.0,0.0,0.0,0.0,0.0,0.0,0.0,0.0,0.0,0.0,0.0,0.0,0.0,0.0,0.0,0.0,0.0,0.0,0.0,0.0,0.0,0.0,0.0,0.0,0.0,0.0,0.0,0.0,0.0,0.0,0.0,0.0,0.0,0.0,0.0,0.0,0.0,0.0,0.0,0.0,0.0,0.0,0.0,0.0,0.0,0.0,0.0,0.0,0.0,0.0,0.0,0.0,0.0,0.0,0.0,0.0,0.0,0.0,0.0,0.0,0.0,0.0,0.0,0.0,0.0,0.0,0.0,0.0,0.0,0.0,0.0,0.0,0.0,0.0,0.0,0.0,0.0,0.0,0.0,0.0,0.0,0.0,0.0,0.0,0.0,0.0,0.0,0.0,0.0,0.0,0.0,0.0,0.0,0.0,0.0,0.0,0.0,0.0,0.0,0.0,0.0,0.0,0.0,0.0,0.0,0.0,0.0,0.0,0.0,0.0,0.0,0.0,0.0,0.0,0.0,0.0,0.0,0.0,0.0,0.0,0.0,0.0,0.0,0.0,0.0,0.0,0.0,0.0,0.0,0.0,0.0,0.0,0.0,0.0,0.0,0.0,0.0,0.0,0.0,0.0,0.0,0.0,0.0,0.0,0.0,0.0,0.0,0.0,0.0,0.0,0.0,0.0,0.0,0.0,0.0,0.0,0.0,0.0,0.0,0.0,0.0,0.0,0.0,0.0,0.0,0.0,0.0,0.0,0.0,0.0,0.0,0.0,0.0,0.0,0.0,0.0,0.0,0.0,0.0,0.0,0.0,0.0,0.0,0.0,0.0,0.0,0.0,0.0,0.0,0.0,0.0,0.0,0.0,0.0,0.0,0.0,0.0,0.0,0.0,0.0,0.0,0.0,0.0,0.0,0.0,0.0,0.0,0.0,0.0,0.0,0.0,0.0,0.0,0.0,0.0,0.0,0.0,0.0,0.0,0.0,0.0,0.0,0.0,0.0,0.0,0.0,0.0,0.0,0.0,0.0,0.0,0.0,0.0,0.0,0.0,0.0,0.0,0.0,0.0,0.0,0.0,0.0,0.0,0.0,0.0,0.0,0.0,0.0,0.0,0.0,0.0,0.0,0.0,0.0,0.0,0.0,0.0,0.0,0.0,0.0,0.0,0.0,0.0,0.0,0.0,0.0,0.0,0.0,0.0,0.0,0.0,0.0,0.0,0.0,0.0,0.0,0.0,0.0,0.0,0.0,0.0,0.0,0.0,0.0,0.0,0.0,0.0,0.0,0.0,0.0,0.0,0.0,0.0,0.0,0.0,0.0,0.0,0.0,0.0,0.0,0.0,0.0,0.0,0.0,0.0,0.0,0.0,0.0,0.0,0.0,0.0,0.0,0.0,0.0,0.0,0.0,0.0,0.0,0.0,0.0,0.0,0.0,0.0,0.0,0.0,0.0,0.0,0.0,0.0,0.0,0.0,0.0,0.0,0.0,0.0,0.0,0.0,0.0,0.0,0.0,0.0,0.0,0.0,0.0,0.0,0.0,0.0,0.0,0.0,0.0,0.0,0.0,0.0,0.0,0.0,0.0,0.0,0.0,0.0,0.0,0.0,0.0,0.0,0.0,0.0,0.0,0.0,0.0,0.0,0.0,0.0,0.0,0.0,0.0,0.0,0.0,0.0,0.0,0.0,0.0,0.0,0.0,0.0,0.0,0.0,0.0,0.0,0.0,0.0,0.0,0.0,0.0,0.0,0.0,0.0,0.0,0.0,0.0,0.0,0.0,0.0,0.0,0.0,0.0,0.0,0.0,0.0,0.0,0.0,0.0,0.0,0.0,0.0,0.0,0.0,0.0,0.0,0.0,0.0,0.0,0.0,0.0,0.0,0.0,0.0,0.0,0.0,0.0,0.0,0.0,0.0,0.0,0.0,0.0,0.0,0.0,0.0,0.0,0.0,0.0,0.0,0.0,0.0,0.0,0.0,0.0,0.0,0.0,0.0,0.0,0.0,0.0,0.0,0.0,0.0,0.0,0.0,0.0,0.0,0.0,0.0,0.0,0.0,0.0,0.0,0.0,0.0,0.0,0.0,0.0,0.0,0.0,0.0,0.0,0.0,0.0,0.0,0.0,0.0,0.0,0.0,0.0,0.0,0.0,0.0,0.0,0.0,0.0,0.0,0.0,0.0,0.0,0.0,0.0,0.0,0.0,0.0,0.0,0.0,0.0,0.0,0.0,0.0,0.0,0.0,0.0,0.0,0.0,0.0,0.0,0.0,0.0,0.0,0.0,0.0,0.0,0.0,0.0,0.0,0.0,0.0,0.0,0.0,0.0,0.0,0.0,0.0,0.0,0.0,0.0,0.0,0.0,0.0,0.0,0.0,0.0,0.0,0.0,0.0,0.0,0.0,0.0,0.0,0.0,0.0,0.0,0.0,0.0,0.0,0.0,0.0,0.0,0.0,0.0,0.0,0.0,0.0,0.0,0.0,0.0,0.0,0.0,0.0,0.0,0.0,0.0,0.0,0.0,0.0,0.0,0.0,0.0,0.0,0.0,0.0,0.0,0.0,0.0,0.0,0.0,0.0,0.0,0.0,0.0,0.0,0.0,0.0,0.0,0.0,0.0,0.0,0.0,0.0,0.0,0.0,4.4638,0.0,0.0,0.0,0.0,0.0,0.0,0.0,0.0,0.0,0.0,0.0,0.0,0.0,0.0,0.0,0.0,0.0,0.0,0.0,0.0,0.0,0.0,0.0,0.0,0.0,0.0,0.0,0.0,0.0,0.0,0.0,0.0,0.0,0.0,0.0,0.0,0.0,3.3768,3.5882,3.5916,3.7864,4.1608,4.1573,0.0,0.0,0.0,0.0,0.0,0.0,0.0,0.0,0.0,0.0,0.0,0.0,0.0,0.0,0.0,0.0,0.0,0.0,0.0,0.0,0.0,0.0,0.0,0.0,0.0,0.0,0.0,0.0,0.0,0.0,0.0,0.0,0.0,0.0,0.0,0.0,0.0,0.0,0.0,0.0,0.0,0.0,0.0,0.0,0.0,0.0,0.0,0.0,0.0,0.0,0.0,0.0,0.0,0.0,0.0,0.0,0.0,0.0,0.0,0.0,0.0,0.0,0.0,0.0,0.0,0.0,0.0,0.0,0.0,0.0,0.0,0.0,0.0,4.9886,0.0,0.0,0.0,0.0,0.0,0.0,0.0,0.0,0.0,0.0,0.0,0.0,0.0,0.0,0.0,0.0,0.0,0.0,0.0,0.0,0.0,0.0,0.0,3.3034,3.5443,3.6787,3.9073,4.0122,3.9231,3.9504,3.911,3.7786,3.6342,3.5444,3.5171,3.4583,3.5798,3.881,4.0018,4.2936,4.7455,4.8751,0.0,0.0,0.0,0.0,0.0,0.0,0.0,0.0,0.0,0.0,0.0,0.0,0.0,0.0,0.0,0.0,0.0,0.0,0.0,0.0,0.0,0.0,0.0,0.0,0.0,0.0,0.0,0.0,0.0,0.0,0.0,0.0,0.0,0.0,0.0,0.0,0.0,0.0,0.0,0.0,0.0,0.0,0.0,0.0,0.0,0.0,0.0,0.0,0.0,0.0,0.0,0.0,0.0,0.0,0.0,0.0,0.0,0.0,0.0,0.0,0.0,0.0,0.0,0.0,0.0,0.0,5.8129,5.9333,6.0604,6.073,6.174,6.3206,5.9915,5.8605,5.8692,5.7722,0.0,0.0,0.0,0.0,0.0,0.0,0.0,0.0,0.0,0.0,0.0,0.0,0.0,0.0,0.0,0.0,0.0,0.0,0.0,0.0,0.0,3.4647,3.7079,4.0154,4.2124,4.2805,4.1921,4.3318,4.2733,3.9624,3.9234,3.8456,3.7009,3.7591,3.8489,3.9621,4.5668,4.9723,5.1908,5.4997,5.6128,5.5387,5.0,0.0,0.0,0.0,0.0,0.0,0.0,0.0,0.0,0.0,0.0,0.0,0.0,0.0,0.0,0.0,0.0,0.0,0.0,0.0,0.0,0.0,0.0,0.0,0.0,0.0,0.0,0.0,0.0,0.0,0.0,0.0,0.0,0.0,0.0,0.0,0.0,0.0,0.0,0.0,0.0,0.0,0.0,0.0,4.4642,4.6706,0.0,0.0,0.0,0.0,0.0,0.0,0.0,0.0,0.0,0.0,0.0,0.0,0.0,6.0657,6.229,6.5358,6.6237,6.4993,6.7324,6.8218,6.779,6.849,6.9733,7.1442,7.2375,0.0,6.4046,6.2493,0.0,0.0,0.0,0.0,0.0,0.0,0.0,0.0,0.0,0.0,0.0,0.0,0.0,0.0,0.0,0.0,0.0,0.0,0.0,0.0,0.0,3.8077,4.1467,4.4423,4.715,4.7522,4.4704,4.525,4.3929,3.9962,3.9341,3.8954,3.8717,4.0047,4.2822,4.7042,5.3479,5.7026,5.7807,6.0271,6.1447,6.133,5.8163,5.5157,5.2234,4.8759,0.0,0.0,0.0,0.0,0.0,0.0,0.0,0.0,0.0,0.0,0.0,0.0,0.0,0.0,0.0,0.0,0.0,0.0,0.0,0.0,0.0,0.0,0.0,0.0,0.0,0.0,0.0,0.0,0.0,0.0,0.0,0.0,0.0,0.0,0.0,0.0,0.0,0.0,0.0,4.4394,4.7851,5.0033,5.0753,5.0636,0.0,0.0,0.0,0.0,0.0,0.0,0.0,0.0,0.0,6.3932,6.5633,6.7126,6.8358,7.03,7.1373,7.1568,7.3168,7.4239,7.4822,7.5211,7.6298,7.8008,7.8785,7.7386,7.4278,7.0121,6.692,6.4202,0.0,0.0,0.0,0.0,5.5863,5.563,0.0,0.0,0.0,0.0,0.0,0.0,0.0,0.0,0.0,0.0,0.0,0.0,3.7459,4.1701,4.5592,4.8857,5.1452,5.1466,4.8074,4.7228,4.505,4.0964,3.9763,3.9451,4.0114,4.3365,4.8213,5.4654,6.0037,6.2686,6.273,6.4916,6.5702,6.5273,6.5077,6.2345,5.766,5.3756,5.0477,0.0,0.0,0.0,0.0,0.0,0.0,0.0,0.0,0.0,0.0,0.0,0.0,0.0,0.0,0.0,0.0,0.0,0.0,0.0,0.0,0.0,0.0,0.0,0.0,0.0,0.0,0.0,0.0,0.0,0.0,0.0,0.0,0.0,0.0,0.0,0.0,0.0,0.0,4.7907,5.1256,5.3614,5.4869,5.4821,0.0,0.0,0.0,0.0,0.0,0.0,6.2795,6.5561,6.8171,7.0575,7.225,7.3445,7.408,7.5128,7.628,7.7525,7.8332,7.952,8.0958,8.0958,8.189,8.3562,8.3328,8.3193,8.2727,7.6687,7.2569,6.9655,6.5576,6.3323,6.2274,6.1419,6.0837,6.0642,0.0,0.0,0.0,0.0,0.0,0.0,0.0,0.0,0.0,0.0,0.0,3.5878,4.2474,4.4904,4.8113,5.3143,5.372,5.3377,5.2337,4.9991,4.7106,4.3651,4.1866,4.0976,4.1016,4.8365,5.4732,6.0002,6.3578,6.5334,6.5468,6.8808,6.9471,6.7966,6.9606,6.8357,6.4765,5.9573,5.6879,5.5513,0.0,0.0,0.0,0.0,0.0,0.0,0.0,0.0,0.0,0.0,0.0,0.0,0.0,0.0,0.0,0.0,0.0,0.0,0.0,0.0,0.0,0.0,0.0,0.0,0.0,0.0,0.0,0.0,0.0,0.0,0.0,0.0,0.0,0.0,0.0,0.0,0.0,0.0,0.0,5.7136,5.8909,0.0,0.0,0.0,0.0,5.9825,6.3798,6.7314,6.9946,7.3297,7.5947,7.774,7.9416,8.0298,8.0337,8.1983,8.2808,8.2925,8.3781,8.4637,8.5455,8.5455,8.6427,8.8023,8.7115,8.6747,8.628,8.024,7.5754,7.2375,6.8917,6.6508,6.4916,6.41,6.4255,6.4683,0.0,0.0,0.0,0.0,0.0,0.0,0.0,0.0,2.8164,2.9367,3.4158,3.9267,4.3916,4.8444,5.2575,5.6051,5.7368,5.694,5.4453,5.1335,4.9269,4.8607,4.5351,4.6142,5.1726,5.6185,6.0438,6.4535,6.7383,6.8788,6.8873,7.1221,7.1963,7.1423,7.2099,7.1669,7.0135,6.4409,6.0861,5.8636,5.3717,4.9969,0.0,0.0,0.0,0.0,0.0,0.0,0.0,0.0,0.0,0.0,0.0,0.0,0.0,0.0,0.0,0.0,0.0,0.0,0.0,0.0,0.0,0.0,0.0,0.0,0.0,0.0,0.0,0.0,0.0,0.0,0.0,0.0,0.0,0.0,0.0,0.0,0.0,6.0809,6.3029,0.0,6.1276,6.2289,6.3691,6.5143,6.8728,7.2429,7.6142,7.8012,8.0312,8.3156,8.3845,8.439,8.4896,8.6062,8.6903,8.7448,8.8312,8.8896,8.9113,8.8568,8.8646,8.9151,8.7695,8.7055,8.6708,8.2954,7.9692,7.6687,7.3268,7.086,6.9228,6.8373,6.7907,6.7713,0.0,0.0,0.0,0.0,0.0,0.0,0.0,0.0,2.9459,3.1787,3.7085,4.239,4.6995,5.1826,5.5762,5.8334,5.962,5.9191,5.6658,5.2957,5.0852,5.0852,4.8412,5.0849,5.8897,6.19,6.5059,6.8531,7.0793,7.1729,7.1503,7.3275,7.3907,7.3641,7.4005,7.381,7.2938,6.8652,6.5217,6.2212,5.8197,5.5036,5.2303,0.0,0.0,0.0,0.0,0.0,0.0,0.0,0.0,0.0,0.0,0.0,0.0,0.0,0.0,0.0,0.0,0.0,0.0,0.0,0.0,0.0,0.0,0.0,0.0,0.0,0.0,0.0,0.0,0.0,0.0,0.0,0.0,0.0,0.0,0.0,6.2591,6.4023,6.6722,6.7579,6.527,6.6595,6.8388,7.0453,7.3258,7.661,8.0584,8.2455,8.4598,8.7209,8.8144,8.8689,8.8962,8.983,9.0376,9.0594,9.1475,9.177,9.1459,9.0875,9.0447,9.0096,8.864,8.7789,8.7271,8.476,8.247,8.0222,7.6838,7.4817,7.3612,7.219,7.149,7.1257,0.0,0.0,0.0,0.0,0.0,0.0,0.0,2.8403,3.1359,3.6495,4.0241,4.5007,5.1865,5.4983,5.7594,6.0126,6.0321,5.9971,5.9074,5.4944,5.1826,5.0229,5.1186,5.4904,6.1736,6.5215,6.8609,7.2002,7.3622,7.4012,7.3289,7.5014,7.5335,7.457,7.5436,7.4889,7.3289,7.2448,7.0138,6.6705,6.3247,6.0327,5.7523,0.0,0.0,0.0,0.0,0.0,0.0,0.0,0.0,0.0,0.0,0.0,0.0,0.0,0.0,0.0,0.0,0.0,0.0,0.0,0.0,0.0,0.0,0.0,0.0,0.0,0.0,0.0,0.0,0.0,0.0,0.0,0.0,0.0,5.7672,6.2375,6.5961,6.6829,6.9928,7.1341,6.9684,7.0998,7.3025,7.5596,7.7428,7.9961,8.339,8.6741,8.9001,8.9975,9.2391,9.3327,9.2547,9.3366,9.3327,9.2508,9.3405,9.3327,9.243,9.243,9.1963,9.1066,9.0088,8.9201,8.8218,8.5616,8.4007,8.2844,7.947,7.8108,7.7804,7.5322,7.4962,7.5259,0.0,0.0,0.0,0.0,0.0,0.0,0.0,2.9338,3.1831,3.5766,4.1422,4.7033,5.206,5.7126,6.0477,6.1179,6.1257,6.0594,5.9113,5.4398,5.2294,5.3697,5.8763,6.3604,6.8018,6.9655,7.1799,7.4644,7.4478,7.4595,7.5034,7.5484,7.562,7.5425,7.6262,7.6418,7.5971,7.6352,7.4548,7.1019,6.7009,6.4209,6.2102,0.0,0.0,0.0,0.0,0.0,0.0,0.0,0.0,0.0,0.0,0.0,0.0,0.0,0.0,0.0,0.0,0.0,0.0,0.0,0.0,0.0,0.0,0.0,0.0,0.0,0.0,0.0,0.0,0.0,0.0,0.0,5.6985,6.1144,6.2201,6.6312,6.9977,7.205,7.367,7.446,7.3999,7.4934,7.6142,7.7467,8.0312,8.3507,8.6936,8.8573,9.0989,9.434,9.395,9.4184,9.5158,9.5392,9.508,9.4223,9.5743,9.5353,9.3327,9.3327,9.2508,9.1028,8.9494,8.8686,8.8305,8.6343,8.5338,8.4643,8.062,7.8676,7.7998,7.7307,7.6855,7.6271,0.0,0.0,0.0,0.0,0.0,0.0,0.0,3.055,3.3512,3.7993,4.3643,4.9177,5.4203,5.8529,6.1062,6.1062,6.1062,6.001,5.7555,5.4944,5.4944,5.8295,0.0,6.792,7.2089,7.2635,7.435,7.7272,7.6454,7.6454,7.7311,7.7696,7.7862,7.7901,7.8428,7.8428,7.8096,7.8241,7.6933,7.4505,7.2043,6.941,6.665,6.4443,6.2662,6.099,5.8231,5.6523,5.5201,5.2596,0.0,0.0,0.0,0.0,0.0,0.0,0.0,0.0,0.0,0.0,0.0,0.0,0.0,0.0,0.0,0.0,0.0,0.0,0.0,0.0,0.0,0.0,0.0,0.0,6.2109,6.6393,6.8661,7.0862,7.3055,7.5289,7.6274,7.6936,7.7316,7.744,7.8219,7.9801,8.2428,8.5312,8.8404,9.069,9.3249,9.6093,9.6327,9.6834,9.7808,9.7457,9.6834,9.5976,9.6288,9.547,9.3677,9.3327,9.2391,9.1028,9.0014,8.9168,8.8437,8.7425,8.6732,0.0,0.0,0.0,0.0,0.0,7.8688,7.7779,0.0,0.0,0.0,0.0,0.0,0.0,0.0,3.1914,3.5655,4.1539,4.6098,5.1008,5.6775,5.923,6.0399,6.0321,6.0282,5.8918,5.5684,5.6464,5.8957,6.3166,6.605,6.979,7.4583,7.4895,7.6571,7.9805,7.8987,7.9065,7.9961,8.0697,8.1059,8.1059,8.1059,8.0669,7.9968,7.9193,7.8324,7.7428,7.7545,7.4945,7.0873,6.938,6.8695,6.8014,6.4112,6.1158,5.8709,5.6172,0.0,0.0,0.0,0.0,0.0,0.0,0.0,0.0,0.0,0.0,0.0,0.0,0.0,0.0,0.0,0.0,0.0,0.0,0.0,0.0,0.0,0.0,0.0,0.0,6.6805,7.109,7.5335,7.535,7.5475,7.6934,7.7823,7.8603,7.9383,7.9021,7.9751,8.2299,8.4206,8.6442,8.9169,0.0,0.0,0.0,0.0,9.9951,9.9951,9.9289,9.8392,9.734,9.5976,9.4768,9.3677,9.2976,9.2197,9.1378,9.1183,9.0273,8.8905,8.871,8.811,8.7105,8.5385,8.4232,8.3272,8.1663,8.0533,7.9689,0.0,0.0,0.0,0.0,0.0,0.0,0.0,3.3161,3.6279,4.1617,4.6098,5.0541,5.5178,5.9074,6.1062,6.036,6.0282,5.9425,5.736,5.9347,6.2192,6.5816,7.0414,7.4038,7.6454,7.7818,7.9532,8.1597,8.074,8.113,8.2611,8.2116,8.1882,8.1882,8.1882,8.2155,8.2662,8.2494,8.1519,8.0117,8.0818,7.8129,7.362,7.329,7.2344,7.0965,6.9497,6.8189,6.6756,6.4219,6.1069,5.7765,5.5351,5.1953,0.0,0.0,0.0,0.0,0.0,0.0,0.0,0.0,0.0,0.0,0.0,0.0,0.0,0.0,0.0,0.0,0.0,0.0,0.0,6.4487,6.8624,7.2723,7.6354,7.729,7.7479,7.709,7.784,7.8425,7.8535,8.0279,8.2179,8.4077,8.7066,9.0262,9.3575,9.5147,9.7004,9.9254,9.9148,9.9055,9.9055,9.9561,9.8704,9.6444,0.0,0.0,9.3716,9.4184,9.395,9.3132,9.1729,9.13,9.152,9.0049,8.8982,8.8071,8.6334,8.5156,8.4312,8.3273,8.2338,8.1468,0.0,0.0,0.0,0.0,0.0,0.0,0.0,3.3902,3.6941,4.1695,4.5709,4.9605,5.3463,5.6191,5.7399,5.6503,5.6464,5.697,5.8256,6.1568,6.5426,6.9712,7.4038,7.735,7.9493,7.9961,8.1208,8.339,8.2533,8.2766,8.4052,8.3585,8.339,8.339,8.339,8.3624,8.4052,8.4052,8.3312,8.2143,8.2572,8.0662,7.7506,7.666,7.5551,7.4216,7.2565,7.0863,6.9009,6.6444,6.3872,6.1264,5.8658,5.6089,5.332,0.0,0.0,0.0,0.0,0.0,0.0,0.0,0.0,0.0,0.0,0.0,0.0,0.0,0.0,5.6425,5.8153,0.0,6.6014,6.9489,7.2963,7.6086,7.8702,7.9444,7.9359,7.8441,7.9104,7.9807,8.0259,8.1841,8.3703,8.5898,8.9231,9.2105,9.4284,9.6836,9.88,10.0086,10.0501,10.0901,10.1315,10.1393,10.0497,9.8782,9.8782,9.7457,9.4924,9.4496,9.4301,9.4223,9.2937,9.2391,9.2274,9.0468,8.9519,8.9012,8.7727,8.6455,8.5182,8.3897,8.3117,8.2611,0.0,0.0,0.0,0.0,0.0,0.0,0.0,3.4369,3.737,4.1539,4.4929,4.8241,5.1515,5.2801,5.319,5.2645,5.3073,5.51,5.923,6.3672,6.831,7.3142,7.6843,7.9844,8.2065,8.1753,8.2689,8.4949,8.4403,8.4559,8.5455,8.5611,8.5611,8.5455,8.5455,8.5338,8.5182,8.5027,8.4442,8.3624,8.3273,8.2299,8.0857,7.9181,7.7985,7.6926,7.4576,7.194,6.927,6.6712,6.4687,6.2852,6.0583,5.928,5.7851,5.382,5.2287,0.0,0.0,0.0,0.0,0.0,0.0,0.0,0.0,5.6089,5.6084,5.7216,5.9246,6.1275,6.268,6.6165,7.0113,7.3978,7.6594,7.8819,8.0732,8.1161,8.1005,8.0302,8.0797,8.1453,8.2209,8.3311,8.5067,8.7706,9.0598,9.2969,9.4714,9.7934,9.989,10.0385,10.1581,10.262,10.3411,10.2889,10.2187,10.1408,10.0107,9.8353,9.6171,9.5158,9.4768,9.4846,9.4223,9.3249,9.2041,9.0638,8.9936,8.9703,8.8845,8.7559,8.604,8.4481,8.378,8.3546,0.0,0.0,0.0,0.0,0.0,0.0,0.0,0.0,3.7175,4.076,4.3526,4.6215,4.8943,5.0657,5.1865,5.2528,5.471,5.7555,6.1062,6.605,7.0492,7.4116,7.8285,8.1013,8.2065,8.3507,8.4793,8.5845,8.6468,8.7209,8.8105,8.8884,8.8806,8.8066,8.8063,8.7649,8.6858,8.6076,8.5311,8.4403,8.2883,8.2143,8.1753,8.0039,7.8843,7.7901,7.6136,7.3384,7.0167,6.7531,6.5546,6.3984,6.2886,6.1954,6.0718,5.7966,5.5546,5.3273,5.1359,5.1584,5.3014,5.5513,5.6255,5.7894,0.0,6.3623,6.2641,6.5033,6.6355,6.713,6.7336,6.9684,7.2221,7.4173,7.6047,7.8116,8.0654,8.1669,8.2137,8.202,8.2098,8.217,8.2195,8.4373,8.6862,8.9418,9.0696,9.3398,9.807,9.8051,9.8938,10.13,10.081,10.0916,10.1813,10.24,10.2309,10.1412,10.1915,10.0107,9.6249,9.7613,9.6989,9.4885,9.4807,9.3443,9.1222,9.1028,9.0521,8.9703,8.8845,8.791,8.6975,8.604,8.5221,8.452,0.0,0.0,0.0,0.0,0.0,0.0,0.0,0.0,0.0,3.9279,4.1383,4.3293,4.4851,4.6566,4.7735,4.8086,5.2801,5.697,5.9893,6.679,7.2284,7.5752,7.9065,8.1675,8.3585,8.4325,8.5377,8.6702,8.7559,8.7871,8.7754,8.9157,8.9079,8.7754,8.7741,8.7546,8.7092,8.5754,8.5286,8.5299,8.3546,8.2533,8.187,7.9649,7.7673,7.5814,7.4138,7.1347,0.0,6.6048,6.4531,6.3555,6.3711,6.2462,6.0627,5.9051,5.7499,5.6327,5.6561,5.6512,5.7313,6.0944,6.2939,6.4657,6.7029,6.7531,6.7649,6.82,6.9015,6.9913,7.0933,7.2807,7.4954,7.7179,7.8975,8.0849,8.2918,8.3543,8.3738,8.3738,8.4206,8.4284,8.3763,8.5168,8.7159,8.9766,9.1679,9.4099,9.7268,9.804,9.9124,10.0685,10.1417,10.2109,10.2905,10.379,10.3505,10.2192,10.201,10.019,9.6951,9.7252,9.6472,9.4885,9.4379,9.3599,9.2469,9.0404,8.9664,8.9664,8.83,8.752,8.7053,8.5728,8.4676,8.3935,0.0,0.0,0.0,0.0,0.0,0.0,0.0,0.0,0.0,0.0,3.9825,4.1149,4.2202,4.3643,4.4656,4.489,5.0774,5.5762,5.8802,6.6361,7.2518,7.6454,7.9298,8.1909,8.4286,8.5027,8.5884,8.6858,8.7949,8.8183,8.7598,8.9118,8.9001,8.7559,8.7546,8.7312,8.678,8.5286,8.4896,8.5143,8.339,8.2143,8.1091,7.8285,7.548,7.2763,7.1087,6.8453,6.534,6.2998,6.2071,6.1993,6.2384,6.1525,6.0276,5.9631,5.8903,5.8476,5.9453,6.0113,6.1349,6.4735,6.7707,6.9703,6.9567,7.0504,7.1245,7.0621,7.0972,7.1792,7.308,7.4681,7.6672,7.9287,8.1161,8.2879,8.4558,8.4792,8.4792,8.4792,8.5143,8.5338,8.5182,8.6158,8.7798,9.0179,9.2287,9.4395,9.666,9.7948,9.9228,10.0499,10.1592,10.2714,10.3981,10.4399,10.3998,10.2686,10.2113,10.0294,9.7486,9.6408,9.5706,9.5211,9.3911,9.321,9.2781,9.0248,8.9586,9.0014,8.8495,8.7637,8.7014,8.5299,8.4286,8.3702,0.0,0.0,0.0,0.0,0.0,0.0,0.0,0.0,0.0,0.0,0.0,0.0,0.0,4.3098,4.3994,4.4812,4.9683,5.4476,5.8724,6.4725,7.0414,7.5519,7.8987,8.1636,8.339,8.5845,8.678,8.604,8.7676,8.8495,8.8495,8.9391,8.9313,8.8456,8.8452,8.7556,8.5962,8.5025,8.4182,8.3312,8.1597,8.035,7.922,7.5791,7.2401,6.9255,6.7547,6.5254,6.2375,5.8236,5.7894,5.9065,5.8246,5.9104,6.0393,6.0373,5.9801,5.8984,5.8203,6.0976,6.4374,6.5372,6.8144,7.1108,7.2768,7.3192,7.3197,7.3197,7.3197,7.3236,7.3275,7.4681,7.6672,7.9287,8.1161,8.2879,8.4558,8.4792,8.4792,8.4792,8.4089,8.4245,8.5885,8.7603,8.9359,9.1116,9.2053,9.4044,9.7479,9.7714,9.8885,10.1383,10.0798,10.1618,10.4116,10.3309,10.2792,10.2792,10.2698,10.0879,9.7561,9.581,9.5485,9.6109,9.3535,9.1963,9.1183,9.1066,9.1028,9.0989,9.0053,8.8689,8.7014,8.5299,8.4676,8.452,0.0,0.0,0.0,0.0,0.0,0.0,0.0,0.0,0.0,0.0,0.0,0.0,0.0,0.0,0.0,0.0,4.9956,5.3931,5.7048,6.4023,6.979,7.3804,7.7818,8.074,8.2494,8.3935,8.4832,8.5143,8.6274,8.6858,8.6858,8.83,8.8456,8.7598,8.7078,8.6533,8.5845,8.3182,8.1935,8.1519,7.9844,7.7935,7.5947,7.4194,7.0385,6.5455,0.0,5.9872,5.8162,5.5075,5.4771,5.5864,5.6723,5.6602,5.6376,5.7534,5.8085,5.8906,6.1445,6.4023,6.6797,6.992,7.3278,7.5814,7.5863,7.5846,7.5501,7.4408,7.3247,7.2783,7.3939,7.5071,7.6867,8.0029,8.2489,8.4558,8.6275,8.7017,8.6978,8.5807,8.6431,8.6939,8.6978,8.6978,8.8188,9.1077,9.26,9.463,9.7558,9.826,9.9236,10.0681,10.15,10.2398,10.3218,10.3483,10.3084,10.1895,10.0214,9.8419,9.6773,9.6157,9.5081,9.3614,9.2222,9.1392,9.0989,8.9286,8.8935,8.9313,8.7832,8.6572,8.5416,8.4247,8.3819,8.3702,0.0,0.0,0.0,0.0,0.0,0.0,0.0,0.0,0.0,0.0,0.0,0.0,0.0,0.0,0.0,0.0,0.0,5.2645,5.4905,6.1179,6.6439,7.018,7.3609,7.622,7.7935,7.8831,8.0,8.1481,8.2377,8.339,8.4637,8.5728,8.5923,8.5338,8.4832,8.4442,8.3974,8.1442,8.0156,7.9688,7.7038,7.4817,7.2752,7.0024,6.6215,0.0,5.7173,5.4964,5.376,5.0898,5.1141,5.2819,5.3912,5.5005,5.6142,5.7538,5.9023,6.1055,6.5039,6.7617,7.0078,7.3789,7.7031,7.9101,7.8266,7.7825,7.6995,7.4993,7.2978,7.1893,7.3008,7.3354,7.5032,7.9756,8.2182,8.4492,8.7446,8.8071,8.7954,8.7134,8.7759,8.8266,8.8305,8.811,8.9125,9.1975,9.3497,9.541,9.8026,9.869,9.9548,10.0681,10.1813,10.2515,10.2789,10.3413,10.282,10.0997,9.9026,9.7466,9.6344,9.6001,9.4574,9.2378,9.122,9.0674,9.0507,8.8579,8.8111,8.844,8.7008,8.5738,8.4635,8.3726,8.3025,8.2467,0.0,0.0,0.0,0.0,0.0,0.0,0.0,0.0,0.0,0.0,0.0,0.0,0.0,0.0,0.0,0.0,0.0,0.0,5.2411,5.6503,6.075,6.5036,6.6946,6.8738,7.0492,7.1271,7.2908,7.5441,7.6259,7.8363,8.1558,8.1636,8.1675,8.1753,8.1675,8.1208,8.0428,7.9454,7.8519,7.735,7.3142,7.092,6.9518,6.3789,6.0447,5.8172,5.3273,5.0873,4.9484,4.6335,4.7588,5.0438,5.0442,5.4502,5.9429,6.035,6.2422,6.5195,6.8672,7.1523,7.4101,7.668,7.9219,8.082,7.9844,7.8942,7.7602,7.4921,7.2358,7.0533,7.0397,6.984,7.1597,7.8356,8.0367,8.2832,8.8,8.8032,8.7837,8.8618,8.811,8.8305,8.9906,9.0882,9.2131,9.381,9.4669,9.623,9.8807,9.908,9.9861,10.1383,10.1618,10.2008,10.2906,10.2711,10.1805,10.01,9.9202,9.7827,9.609,9.5237,9.3911,9.2178,9.0479,8.9777,8.9759,8.8862,8.8472,8.8394,8.7458,8.6093,8.4561,8.3644,8.2346,8.1059,0.0,0.0,0.0,0.0,0.0,0.0,0.0,0.0,0.0,0.0,0.0,0.0,0.0,0.0,0.0,0.0,0.0,0.0,5.1476,5.51,5.8763,6.2426,6.5426,6.7842,6.9596,6.9829,7.057,7.1895,7.2128,7.2986,7.4427,7.509,7.6103,7.7272,7.5986,7.5635,7.5908,7.3765,7.1622,6.9518,6.7725,6.5777,6.3711,6.2192,5.9326,5.5925,5.3982,5.1113,4.8287,4.8677,5.1531,5.4931,5.4945,5.7324,6.0526,6.2655,6.4687,6.7148,7.1211,7.4219,7.668,7.8594,8.0547,8.1406,7.9297,7.8125,7.6405,7.2497,7.0155,6.8239,6.6279,6.7824,7.0821,7.5173,7.932,8.3538,8.8065,8.906,8.9164,8.8735,9.0179,9.1155,9.0999,9.2287,9.3888,9.5606,9.5332,9.5957,9.7948,9.9822,10.111,10.15,10.2789,10.3491,10.3804,10.1891,10.0407,9.9306,9.7745,9.5793,9.3443,9.324,9.1826,8.9554,8.9173,8.8978,8.8813,8.7347,8.6722,8.6589,8.5067,8.3809,8.2816,8.2552,8.2151,8.1722,0.0,0.0,0.0,0.0,0.0,0.0,0.0,0.0,0.0,0.0,0.0,0.0,0.0,0.0,0.0,0.0,0.0,0.0,0.0,5.3073,5.5801,5.8139,6.0049,6.1724,6.3088,6.2737,6.3517,6.5504,6.5504,6.6712,6.9011,6.9479,7.0442,7.1728,7.0715,7.0364,7.0325,6.8504,6.6712,0.0,0.0,6.1179,5.9737,5.8217,5.5701,5.2961,5.2851,5.2016,5.118,5.2507,5.4576,5.6848,5.8389,6.0852,6.3744,6.6367,6.8594,7.1055,7.4609,7.7187,7.9297,8.0976,8.2148,8.2109,7.918,7.7539,7.5078,6.9609,6.7109,6.5234,6.3002,6.5098,6.88,7.3778,7.8274,8.3079,8.8529,8.9685,9.0101,9.0374,9.1663,9.2522,9.2404,9.3263,9.4512,9.6269,9.5957,9.6582,9.8729,10.0485,10.1696,10.2086,10.2984,10.3296,10.2984,10.1188,9.9666,9.8416,9.7394,9.5356,9.2507,9.2498,9.089,8.808,0.0,8.7667,8.6847,8.5917,8.5293,8.4817,8.349,8.2663,8.2179,8.1753,8.1548,8.1441,0.0,0.0,0.0,0.0,0.0,0.0,0.0,0.0,0.0,0.0,0.0,0.0,0.0,0.0,0.0,0.0,0.0,0.0,0.0,0.0,5.2684,5.3697,5.3728,5.4195,5.5178,5.4234,5.5295,5.849,5.8373,6.0282,6.4062,6.4179,6.4676,6.5512,6.5377,6.4987,6.4304,6.3468,6.2542,6.1451,5.8412,5.7126,5.6697,0.0,0.0,5.0336,5.0862,5.2723,5.5162,5.6489,5.7313,5.8336,6.1553,6.4842,6.8047,7.0508,7.289,7.5351,7.7969,7.9805,8.1406,8.3008,8.3242,8.2187,7.875,7.6523,7.3281,6.6484,6.3789,6.2109,6.0229,6.2212,6.6344,7.3153,7.7225,8.1989,8.9026,8.9991,9.0654,9.2372,9.2685,9.3029,9.3732,9.381,9.4512,9.6269,9.6386,9.7479,9.9978,10.0993,10.2008,10.2906,10.2906,10.2398,10.15,10.0485,9.9158,9.7518,9.7112,9.5261,9.2147,9.2042,9.0325,8.7377,8.726,8.6378,8.4948,8.4714,8.4167,8.3426,8.2606,8.2293,8.2209,8.139,8.1078,8.093,0.0,0.0,0.0,0.0,0.0,0.0,0.0,0.0,0.0,0.0,4.2591,4.2903,0.0,0.0,0.0,0.0,0.0,0.0,0.0,0.0,0.0,5.2762,5.2823,5.3563,5.5178,5.3641,5.3836,5.5879,5.5139,5.5528,5.697,5.7711,5.849,5.923,5.8568,5.8568,5.8996,5.8178,5.6892,5.5411,5.4788,5.4126,5.3346,5.2021,0.0,0.0,4.9703,5.0933,5.3717,5.7426,6.1056,6.4379,6.6357,6.8905,7.1484,7.3359,7.4765,7.6211,7.8789,8.0234,8.125,8.2265,8.1445,7.9492,7.6055,7.3359,6.9844,6.3633,6.1562,6.0117,5.7695,6.0535,6.5247,7.1464,7.5934,8.1289,8.8943,8.9992,9.0646,9.2404,9.3244,9.3693,9.3771,9.381,9.4512,9.6269,9.6386,9.7245,9.9119,10.0681,10.2203,10.3804,10.3218,10.2398,10.15,9.9275,9.7636,9.6582,9.4434,9.2358,9.0406,8.9704,8.865,8.7362,8.662,0.0,8.5768,8.4323,8.3621,8.3426,8.2606,8.2293,8.2248,8.2031,8.1992,8.1758,0.0,0.0,0.0,0.0,0.0,0.0,0.0,4.0916,4.3137,4.7111,4.7657,4.7306,4.6371,4.6644,4.6683,0.0,0.0,0.0,0.0,0.0,0.0,0.0,0.0,0.0,5.3151,5.2364,5.2325,5.319,0.0,5.2995,5.3853,5.4281,5.4896,5.5667,5.5286,5.5091,5.5004,5.4624,5.3736,5.2567,5.2567,5.2294,5.1865,0.0,0.0,0.0,4.8884,5.0698,5.4381,5.6411,6.09,6.6214,6.9703,7.2298,7.4297,7.5586,7.6875,7.8125,7.9375,8.0664,8.1875,8.2773,8.1015,7.8047,7.414,7.0547,6.6328,6.0273,5.8359,5.7226,5.5547,5.9129,6.3716,6.798,7.2652,7.8476,8.6237,8.7336,8.8664,9.22,9.299,9.3224,9.3176,9.3589,9.4552,9.6269,9.6816,9.7636,9.8924,10.0212,10.1696,10.3413,10.1305,10.0407,10.0915,9.787,9.6152,9.5684,9.3537,9.1624,8.9984,8.9086,8.7993,8.6666,8.5807,8.5182,8.4597,8.2918,8.2489,8.2762,8.1435,8.1513,8.2254,8.1726,8.1844,8.2085,0.0,0.0,0.0,0.0,0.0,0.0,0.0,4.2786,4.5319,5.1359,5.2567,5.1943,4.941,4.8826,4.8008,0.0,0.0,0.0,0.0,0.0,0.0,0.0,0.0,0.0,0.0,0.0,0.0,5.132,5.1125,0.0,0.0,0.0,0.0,0.0,5.3338,5.2948,5.2308,5.2325,5.1943,0.0,0.0,5.132,0.0,0.0,0.0,0.0,0.0,5.124,5.4849,5.5591,5.969,6.5312,7.0152,7.3462,7.5781,7.668,7.8242,7.9687,7.9687,8.0976,8.2461,8.3164,8.0625,7.6836,7.2656,6.8242,6.3437,5.7773,5.6055,5.5312,5.4453,5.8036,6.2189,6.536,6.9916,7.5739,8.3526,8.5104,8.7141,9.1765,9.2494,9.2616,9.2609,9.3371,9.4526,9.601,9.7096,9.8143,9.9236,10.0095,10.111,10.2203,9.947,9.8651,10.0017,9.6542,9.4903,9.5059,9.2951,9.1272,8.9945,8.8891,8.7681,8.6314,8.526,8.4401,8.366,8.1981,8.1669,8.2176,8.081,8.1083,8.2215,8.146,8.1656,8.2176,0.0,0.0,0.0,0.0,0.0,0.0,0.0,4.4306,4.8008,5.4048,5.4203,5.397,5.4437,5.3073,5.0852,0.0,0.0,0.0,0.0,0.0,0.0,0.0,0.0,0.0,0.0,0.0,0.0,5.132,5.0502,0.0,0.0,0.0,0.0,0.0,0.0,5.1476,5.1429,5.1437,0.0,0.0,0.0,0.0,0.0,0.0,0.0,0.0,0.0,5.2484,5.3405,5.6528,5.9026,6.1525,6.515,7.0171,7.4876,7.5742,7.7773,7.9687,7.9687,8.0976,8.2304,8.2383,7.9258,7.5195,7.164,6.6875,6.1992,5.7539,5.6523,5.6211,5.5351,5.7528,6.1061,6.598,6.9799,7.4844,8.2617,8.5761,8.829,9.1092,9.2109,9.2617,9.2617,9.3393,9.4282,9.5142,9.6758,9.8416,10.0095,10.0915,10.111,10.0485,9.947,9.8963,9.9119,9.5645,9.4317,9.5059,9.178,9.014,8.9945,8.8266,8.7446,8.7173,8.5534,8.4753,0.0,8.2879,8.2215,8.2293,8.2137,8.2176,8.2293,8.2215,8.2215,8.2176,0.0,0.0,0.0,0.0,0.0,0.0,4.2474,4.4423,4.7969,5.5061,5.5684,5.5762,5.6619,5.5178,5.2372,4.7891,0.0,0.0,0.0,0.0,0.0,0.0,0.0,0.0,0.0,0.0,5.1373,5.2099,5.2239,0.0,0.0,0.0,0.0,0.0,0.0,5.132,5.132,5.132,0.0,0.0,0.0,0.0,0.0,0.0,0.0,0.0,0.0,0.0,5.2819,5.3678,5.6138,5.9183,6.1095,6.4778,6.9093,7.2538,7.539,7.7734,7.9297,8.0976,8.2187,8.164,7.8281,7.4062,7.0117,6.5156,6.0351,5.6601,5.4997,5.4329,5.4492,5.5809,5.8207,6.2306,6.5017,6.9127,7.6388,7.965,8.3002,8.767,8.9879,9.164,9.3242,9.4179,9.5465,9.7293,9.8085,9.8775,9.9497,9.9328,9.9548,10.029,9.8455,9.7948,9.9002,9.5527,9.4239,9.5059,9.217,9.0765,9.0726,8.8969,8.8188,8.8071,8.6353,8.5299,0.0,8.2996,8.2293,8.2254,8.1708,8.1825,8.2293,8.2293,8.2293,8.2254,0.0,0.0,0.0,0.0,0.0,3.8667,4.2942,4.4579,4.7891,5.5139,5.5684,5.6035,5.7866,5.5684,5.2684,4.9294,4.8631,0.0,0.0,0.0,0.0,0.0,0.0,0.0,0.0,0.0,5.2347,5.2606,5.3446,5.3399,0.0,0.0,5.2152,5.1287,0.0,0.0,0.0,0.0,0.0,0.0,0.0,0.0,0.0,0.0,0.0,0.0,0.0,0.0,0.0,0.0,0.0,5.6762,5.7387,5.962,6.3227,6.9408,7.3085,7.5703,7.8242,8.0234,8.1367,8.0781,7.7187,7.2773,6.875,6.3789,5.9062,5.5625,5.3937,5.326,5.3902,5.4906,5.6645,5.9568,6.2149,6.6097,7.2744,7.6131,7.9984,8.5527,8.7997,9.0273,9.289,9.4844,9.6562,9.8158,9.8496,9.8526,9.8262,9.7662,9.8118,9.9861,9.8143,9.7753,9.9002,9.6035,9.4747,9.5059,9.2756,9.1389,9.0882,8.9398,8.8579,8.8227,8.6471,8.5377,0.0,8.2996,8.2293,8.2254,8.163,8.1747,8.2332,8.2567,8.2645,8.2684,0.0,0.0,0.0,0.0,0.0,0.0,4.2942,4.5085,4.8358,5.4437,5.3697,5.4242,5.8529,5.4398,5.1671,5.2489,4.9449,0.0,0.0,0.0,0.0,0.0,0.0,0.0,0.0,0.0,5.1724,5.2606,5.3463,5.3455,5.2611,5.2598,5.213,5.1287,0.0,0.0,0.0,0.0,0.0,0.0,0.0,0.0,0.0,0.0,0.0,0.0,0.0,0.0,0.0,0.0,0.0,0.0,0.0,5.5274,5.8358,6.6907,7.1278,7.3906,7.6523,7.8437,7.9726,7.9726,7.5859,7.1133,6.7695,6.293,5.8203,5.4726,5.4015,5.3994,5.3994,5.5439,5.7153,5.8944,6.2779,6.7679,7.375,7.752,8.1317,8.569,8.6945,8.8437,9.1054,9.5195,9.7344,9.6562,9.7265,9.7381,9.6587,9.6469,9.7198,9.8963,9.9002,9.8963,9.9002,9.7245,9.5957,9.5098,9.3302,9.1624,8.9984,8.9086,8.8227,8.7329,8.5573,8.4792,0.0,8.2996,8.2293,8.2293,8.2293,8.2293,8.2411,8.3191,8.3504,8.3621,0.0,0.0,0.0,0.0,0.0,0.0,0.0,4.2435,4.528,5.019,5.0346,5.1164,5.4281,5.1593,4.9917,5.0735,4.9333,0.0,0.0,0.0,0.0,0.0,0.0,0.0,0.0,0.0,5.3458,5.4294,5.5171,5.5473,5.5161,5.3974,5.297,5.2143,5.1585,5.132,0.0,0.0,0.0,0.0,0.0,0.0,5.1787,0.0,0.0,0.0,0.0,0.0,0.0,0.0,0.0,0.0,0.0,0.0,0.0,6.0225,6.4647,6.8476,7.0508,7.2695,7.4023,7.2265,6.9726,6.6719,6.3242,6.0312,5.7305,5.3828,5.3592,5.4017,5.3994,5.4927,5.743,6.2735,6.4721,6.7498,7.2951,7.7698,8.1552,8.4128,9.0344,9.4531,9.4844,9.7109,9.7773,9.5742,9.6406,9.6757,9.6521,9.6482,9.6951,9.808,9.8106,9.8097,9.8101,9.64,9.5371,9.5098,9.3341,9.1936,9.0843,8.9984,8.9125,8.8188,8.6431,8.569,8.5534,8.3816,8.3465,8.3933,8.3347,8.3465,8.405,8.4284,8.4401,8.4441,0.0,0.0,0.0,0.0,0.0,0.0,0.0,4.076,4.3059,4.641,4.7423,4.8904,5.1787,4.9839,4.9021,5.0813,4.9644,0.0,0.0,0.0,0.0,0.0,0.0,0.0,0.0,5.264,5.4071,5.5599,5.6456,5.6884,5.6874,5.6115,5.4645,5.2589,5.2364,5.1749,0.0,0.0,0.0,0.0,0.0,0.0,5.0852,0.0,0.0,0.0,0.0,0.0,0.0,0.0,0.0,0.0,0.0,0.0,0.0,0.0,5.8672,6.2461,6.582,6.8359,6.9687,6.8125,6.6133,6.3789,6.0664,5.8125,5.5625,5.2809,5.2655,5.3202,5.3896,5.4978,5.7313,6.1954,6.3506,6.6043,7.1563,7.6482,8.1122,8.5501,9.2062,9.5937,9.5117,9.7148,9.7578,9.5351,9.6015,9.6484,9.6484,9.6484,9.6875,9.7656,9.8005,9.8197,9.8197,9.6774,9.5736,9.5098,9.3654,9.2209,9.0804,9.0257,8.9359,8.8149,8.6705,8.608,0.0,8.4558,8.4323,8.4753,8.4206,8.4323,8.4831,8.5182,8.5495,8.5768,0.0,0.0,0.0,0.0,0.0,0.0,0.0,3.9902,4.1578,4.3208,4.4929,4.7267,5.0502,4.8748,4.867,5.206,0.0,0.0,0.0,0.0,0.0,0.0,0.0,0.0,0.0,5.2191,5.3896,5.6388,5.739,5.7926,5.8101,5.8831,5.697,5.2995,5.3619,5.245,0.0,0.0,0.0,0.0,5.0346,4.9995,0.0,0.0,0.0,0.0,0.0,0.0,0.0,0.0,0.0,0.0,0.0,0.0,0.0,0.0,0.0,0.0,0.0,6.4648,6.6055,6.5937,6.3984,6.1484,5.9101,5.6015,0.0,5.162,5.132,5.1875,5.375,5.5382,5.6844,5.8124,6.0388,6.4023,6.9967,7.4809,8.0939,8.9528,9.2768,9.3906,9.2969,9.5781,9.6992,9.5234,9.5898,9.6406,9.6406,9.6406,9.6758,9.75,9.8359,9.8867,9.8906,9.7963,9.6696,9.5098,9.4161,9.2404,8.9984,8.9984,8.9047,0.0,8.6471,8.6158,8.6119,8.5182,8.487,8.4987,8.4909,8.4948,8.5065,8.5885,8.6744,8.7486,0.0,0.0,0.0,0.0,0.0,0.0,0.0,0.0,0.0,0.0,4.3176,4.4773,4.6254,4.5864,4.6644,0.0,0.0,0.0,0.0,0.0,0.0,0.0,0.0,0.0,0.0,5.2775,5.448,5.6388,5.8618,6.037,6.1606,6.1169,5.9386,5.6425,5.4671,5.245,0.0,0.0,0.0,0.0,5.0346,4.9995,0.0,0.0,0.0,0.0,4.7801,4.7966,0.0,0.0,0.0,0.0,0.0,0.0,0.0,0.0,5.1094,5.1719,5.3125,0.0,5.7695,5.6367,5.4609,5.3047,0.0,5.1172,5.0156,5.0428,5.05,5.1394,5.4453,5.4794,5.6411,6.1881,6.3872,6.6331,7.1021,7.8819,8.699,9.4959,9.7031,9.7226,9.5742,9.6875,9.6719,9.4375,9.5,9.5508,9.5508,9.5508,9.5586,9.5781,9.664,9.7383,9.8008,9.6478,9.5524,9.5059,9.3537,9.1819,8.9984,8.9984,8.9047,8.7368,8.6471,8.6471,8.6978,8.5416,8.5573,8.6705,8.6041,8.6197,8.6822,8.7017,8.7642,8.8383,0.0,0.0,0.0,0.0,0.0,0.0,0.0,0.0,0.0,0.0,0.0,0.0,0.0,0.0,0.0,0.0,0.0,0.0,0.0,0.0,0.0,0.0,0.0,0.0,5.1281,5.2589,5.448,5.6942,5.9182,6.1167,6.2791,6.2746,6.0935,5.7555,5.3775,0.0,0.0,0.0,0.0,0.0,4.98,0.0,0.0,0.0,0.0,0.0,4.6323,4.6878,0.0,4.8993,4.9969,5.0711,0.0,0.0,0.0,0.0,4.9609,4.9609,4.9609,5.1797,5.3867,5.293,5.1719,5.0742,5.0742,4.9492,4.8672,4.9922,5.0192,5.1125,5.4134,5.5304,5.7137,6.128,6.3662,6.7601,7.5087,8.2964,9.0234,9.6406,9.7578,9.75,9.6601,9.6523,9.6133,9.5156,9.5156,9.5351,9.5781,9.5429,9.5195,9.5195,9.5664,9.6094,9.6562,9.5623,9.4946,9.4512,9.3185,9.1858,9.057,9.0179,8.9281,8.7954,8.7056,8.6978,8.7329,8.6392,8.6549,8.7368,8.69,8.6978,8.7407,8.7407,8.8188,8.9242,0.0,0.0,0.0,0.0,0.0,0.0,0.0,0.0,0.0,0.0,0.0,0.0,0.0,0.0,0.0,0.0,0.0,0.0,0.0,0.0,0.0,0.0,0.0,5.0618,5.1476,5.2333,5.4333,5.7437,5.9766,6.1634,6.3013,6.4282,6.225,5.7321,5.2528,5.0502,0.0,0.0,0.0,4.9761,4.8943,0.0,0.0,0.0,0.0,0.0,0.0,0.0,0.0,4.8993,5.0087,5.0832,5.0828,0.0,0.0,0.0,0.0,0.0,4.8984,5.0742,5.2422,5.2031,5.1172,5.0469,5.0586,4.875,4.7539,4.9414,4.9805,5.0741,5.3813,5.6206,5.8242,5.9922,6.3281,6.9334,7.9903,8.6247,9.1484,9.5976,9.6601,9.6523,9.6133,9.5664,9.5547,9.5898,9.5351,9.5312,9.6054,9.5273,9.4804,9.4804,9.4922,9.4922,9.4804,9.4804,9.4449,9.3673,9.2691,9.1748,9.0889,9.0147,8.9327,8.8468,0.0,0.0,8.7414,8.7407,8.7407,8.7414,8.7414,8.7414,8.7407,8.7564,8.8618,8.9906,0.0,0.0,0.0,0.0,0.0,0.0,0.0,0.0,0.0,0.0,0.0,0.0,0.0,0.0,0.0,0.0,0.0,0.0,0.0,0.0,0.0,0.0,5.1164,5.1515,5.2372,5.3268,5.4663,5.6689,6.1325,6.3702,6.3974,6.7052,6.4257,5.6541,5.3541,5.0657,4.8086,0.0,0.0,4.8904,4.8047,0.0,0.0,0.0,0.0,0.0,0.0,0.0,0.0,4.6534,4.7471,4.8177,4.8189,0.0,0.0,0.0,0.0,0.0,4.9414,5.0781,5.1094,4.8906,4.7187,4.6172,4.6914,4.5625,4.5,4.75,4.8008,4.9687,5.5195,5.6523,5.8515,6.3789,6.8711,7.457,8.2147,8.6484,9.0781,9.5898,9.7109,9.6679,9.4492,9.5508,9.5429,9.3359,9.375,9.414,9.4297,9.3476,9.3008,9.3008,9.3711,9.375,9.3008,9.3008,9.2929,9.2772,9.1161,8.9943,8.9084,8.8967,8.842,8.76,0.0,8.7405,8.7401,8.742,8.742,8.7397,8.7401,8.7392,8.7486,8.8227,8.9125,8.9984,0.0,0.0,0.0,0.0,0.0,0.0,0.0,0.0,0.0,0.0,0.0,0.0,0.0,0.0,0.0,0.0,0.0,0.0,0.0,0.0,0.0,5.2645,5.2255,5.2411,5.3268,5.4632,5.6572,5.9212,6.299,6.5289,6.6146,6.5455,6.227,5.697,5.2995,5.0307,4.8787,4.7891,4.7735,4.8047,0.0,0.0,0.0,0.0,0.0,0.0,0.0,0.0,0.0,0.0,4.6807,4.8135,4.7207,0.0,0.0,0.0,0.0,0.0,4.7773,4.8711,4.9297,4.9062,4.8711,4.8555,4.8945,4.7734,4.7383,5.043,5.1055,5.2461,5.7148,5.9492,6.2734,6.8789,7.332,7.7851,8.289,8.6953,9.082,9.4648,9.5429,9.5351,9.4687,9.4883,9.4804,9.4062,9.3945,9.3906,9.3906,9.3515,9.3281,9.3281,9.3672,9.3711,9.332,9.2383,9.2148,9.2578,9.1796,9.1207,9.0778,9.0309,8.9879,8.9489,0.0,8.8551,8.8121,8.8625,8.826,8.7498,8.8441,8.8524,8.829,8.96,9.0062,8.9984,0.0,0.0,0.0,0.0,0.0,0.0,0.0,0.0,0.0,0.0,0.0,0.0,0.0,0.0,0.0,0.0,0.0,0.0,0.0,0.0,5.0463,5.2879,5.2528,5.319,5.5061,5.6386,5.8637,6.1811,6.4655,6.6758,6.8121,6.3896,6.0399,5.7516,5.2957,5.0346,4.9333,4.8047,4.7384,4.7189,0.0,0.0,0.0,0.0,0.0,0.0,0.0,0.0,0.0,0.0,0.0,0.0,0.0,0.0,0.0,4.7187,4.6601,4.6719,4.7344,4.7969,4.8828,5.0156,5.0351,5.0508,5.1719,5.0547,5.0156,5.3594,5.4648,5.5898,5.918,6.3242,6.7734,7.2773,7.6875,8.0469,8.3476,8.7617,9.1133,9.332,9.3945,9.4297,9.457,9.4179,9.4023,9.4258,9.3867,9.3594,9.3594,9.3594,9.3672,9.3906,9.3711,9.3672,9.3906,9.2383,9.1836,9.2304,9.2109,9.1992,9.1953,9.1289,9.1015,9.0976,9.0273,8.9492,8.8789,8.9648,8.8977,8.7564,8.932,8.9606,8.9154,9.0504,9.0459,8.9685,0.0,0.0,0.0,0.0,0.0,0.0,0.0,0.0,0.0,0.0,0.0,0.0,0.0,0.0,0.0,0.0,0.0,0.0,0.0,0.0,4.8475,5.019,5.1008,5.3658,5.8529,5.8763,6.0126,6.2815,6.6166,6.831,6.9128,6.4803,6.0984,5.7594,5.4827,5.1398,4.7657,4.754,4.7033,4.6293,4.6293,0.0,0.0,0.0,0.0,0.0,0.0,0.0,0.0,0.0,0.0,0.0,0.0,0.0,4.7757,4.7577,4.75,4.8008,5.0391,5.1094,5.1172,5.1289,4.8984,4.793,5.2734,5.1875,5.1094,5.4492,5.6484,5.8437,6.1055,6.6953,7.2109,7.418,7.875,8.2695,8.4531,8.8515,9.1562,9.2578,9.4101,9.4492,9.2929,9.3476,9.3242,9.1719,9.2265,9.2695,9.2695,9.2695,9.3047,9.3867,9.3125,9.3086,9.3906,9.2969,9.2148,9.1367,9.0586,9.0195,9.0195,9.0117,9.0078,9.0078,9.0039,8.9492,8.8789,8.9648,8.8977,8.7557,8.932,8.9945,8.9906,9.0062,8.9534,8.8775,0.0,0.0,0.0,0.0,0.0,0.0,0.0,0.0,0.0,0.0,0.0,0.0,0.0,0.0,0.0,0.0,0.0,0.0,0.0,0.0,4.793,5.0696,5.1632,5.3541,5.658,5.8724,6.188,6.6088,6.8465,6.8933,6.7608,6.3283,6.001,5.7516,5.3346,5.0852,4.9761,4.8164,4.7618,4.7735,4.6644,4.567,0.0,0.0,0.0,0.0,0.0,0.0,0.0,0.0,4.4504,4.6066,4.4777,4.6573,4.8844,4.726,4.6796,4.6992,4.7969,4.9023,5.0117,5.1133,5.125,0.0,0.0,5.5312,5.6758,6.0195,6.1836,0.0,6.6719,7.0312,7.3398,7.5117,7.9726,8.3359,8.3984,8.7773,9.0625,9.0937,9.2539,9.3125,9.1914,9.2578,9.2578,9.1406,9.2109,9.2617,9.2617,9.3633,9.4375,9.4687,9.4375,9.4101,9.3906,9.3047,9.2422,9.2109,9.1758,9.1601,9.1601,9.1601,9.1601,9.1601,9.163,9.1111,9.033,9.0681,9.0096,8.9149,9.0342,9.1155,9.1552,9.0998,9.0256,8.9422,0.0,0.0,0.0,0.0,0.0,0.0,0.0,0.0,0.0,0.0,0.0,0.0,0.0,0.0,0.0,0.0,0.0,0.0,4.5319,4.5631,4.6956,4.9566,5.0774,5.2606,5.5139,5.8022,6.1763,6.64,6.866,6.8427,6.5816,6.2348,5.9776,5.7944,5.3853,5.2216,5.2372,5.0073,4.8982,4.867,4.7189,4.6254,0.0,0.0,0.0,0.0,0.0,0.0,0.0,0.0,4.3684,4.5675,4.4426,4.6456,4.8958,4.7217,4.6912,4.6992,4.6443,4.7578,4.9258,5.0625,0.0,0.0,5.6875,5.8711,6.1133,6.5078,6.6601,6.793,7.0273,7.2109,7.3867,7.5625,8.0,8.3398,8.3945,8.7226,8.9687,8.9961,9.1054,9.164,9.1328,9.1836,9.1953,9.1328,9.2109,9.2617,9.2617,9.3711,9.4492,9.4765,9.4531,9.4101,9.3515,9.289,9.2461,9.2187,9.2734,9.2851,9.2617,9.289,9.2851,9.2617,9.2876,9.2345,9.1311,9.1585,9.1363,9.0833,9.1162,9.1663,9.2138,9.1515,9.0734,8.9861,0.0,0.0,0.0,0.0,0.0,0.0,0.0,0.0,0.0,0.0,0.0,0.0,0.0,0.0,0.0,0.0,0.0,0.0,4.3598,4.4384,4.528,4.6176,4.7891,5.0813,5.5061,5.6814,5.9386,6.2893,6.6322,6.6634,6.4023,6.2348,6.0633,5.888,5.7243,5.6035,5.5061,5.3346,5.1125,4.8748,4.7852,4.7501,4.7306,0.0,0.0,0.0,0.0,0.0,0.0,0.0,4.427,4.5285,4.7002,4.7588,4.7595,4.7608,4.8201,4.8476,4.6739,4.7532,4.9062,4.9883,5.2734,5.6484,6.0781,6.1758,6.3203,6.8398,7.0117,7.0742,7.0742,7.2148,7.3906,7.5625,7.9531,8.2929,8.4648,8.7109,8.9023,8.9883,9.0,9.0351,9.1172,9.1289,9.1289,9.1289,9.2109,9.2578,9.2617,9.2617,9.3008,9.3867,9.3047,9.2617,9.2617,9.2617,9.2187,9.1328,9.3086,9.3437,9.2656,9.3515,9.3437,9.2656,9.3515,9.2922,9.1389,9.2248,9.26,9.2482,9.1624,9.1311,9.1318,9.1306,9.0737,8.9883,0.0,0.0,0.0,0.0,0.0,0.0,0.0,0.0,0.0,0.0,0.0,0.0,0.0,0.0,0.0,0.0,0.0,0.0,4.2669,4.2942,4.3994,4.6098,4.8397,5.0229,5.1515,5.4437,5.8217,6.2893,6.5114,6.4218,6.0516,6.0633,5.9113,5.6347,5.7048,5.6191,5.4164,5.245,5.0891,4.9527,4.8086,4.7501,4.7384,0.0,0.0,0.0,0.0,0.0,0.0,0.0,0.0,0.0,4.4894,4.6495,4.8213,4.7048,4.6869,4.6679,4.4959,4.6204,4.8345,4.9742,5.4518,6.0032,6.4367,6.535,6.6836,7.1992,7.2773,7.2734,7.332,7.4883,7.6211,7.6719,8.0937,8.4101,8.3984,8.6719,8.8594,8.8281,8.9297,8.9844,8.9492,9.0039,9.039,9.039,9.0625,9.1328,9.2539,9.2617,9.3008,9.3867,9.3633,9.3203,9.2617,9.2617,9.2461,9.2226,9.3359,9.375,9.3554,9.4414,9.4336,9.3515,9.3789,9.3277,9.2239,9.2496,9.1897,9.0843,9.178,9.1819,9.124,9.0603,9.0224,8.9797,0.0,0.0,0.0,0.0,0.0,0.0,0.0,0.0,0.0,0.0,4.1101,4.1583,0.0,0.0,0.0,0.0,0.0,0.0,0.0,4.263,4.3994,4.6605,4.8514,5.0151,5.1515,5.4944,5.7555,5.9308,6.1334,6.0516,5.7009,5.9269,5.9035,5.6814,5.9191,5.8646,5.5801,5.4087,5.2021,4.9917,4.8904,4.828,4.793,0.0,0.0,0.0,0.0,0.0,0.0,0.0,0.0,0.0,4.427,4.5402,4.6729,4.6374,4.6315,4.6209,4.5858,4.7413,4.982,5.2897,5.7586,6.2826,6.8219,6.9994,7.1367,7.4453,7.4687,7.4492,7.5039,7.625,7.7422,7.8086,8.1679,8.4453,8.4609,8.6719,8.8164,8.8008,8.8281,8.8437,8.8242,8.8711,8.9023,8.9023,8.9609,9.0625,9.1992,9.207,9.2304,9.2851,9.2851,9.2265,9.1054,9.1758,9.1914,9.1601,9.3164,9.3906,9.3945,9.5156,9.5039,9.3867,9.3515,9.3084,9.2603,9.2613,9.1975,9.1116,9.2131,9.2248,9.1741,9.1219,9.0798,9.0338,0.0,0.0,3.765,3.8376,0.0,0.0,0.0,0.0,0.0,0.0,4.1147,4.1918,0.0,0.0,0.0,0.0,0.0,0.0,0.0,0.0,4.489,4.7501,4.8748,5.0852,5.4087,5.6931,5.6814,5.3541,5.6191,5.6191,5.3892,5.8178,5.9737,5.9035,6.2387,6.1919,5.8529,5.6697,5.3541,4.9761,4.9761,4.9333,4.8592,4.7696,0.0,0.0,0.0,0.0,0.0,0.0,0.0,0.0,4.4621,4.427,4.3918,4.5554,4.6108,4.6549,4.8192,4.9949,5.2524,5.7789,6.149,6.5502,7.1943,7.4751,7.6015,7.6015,7.6015,7.6015,7.6015,7.6719,7.7851,7.9453,8.1836,8.4101,8.5859,8.6836,8.7656,8.8398,8.7148,8.6484,8.7187,8.7265,8.7344,8.75,8.8828,9.0078,9.1015,9.0976,9.0937,9.0937,9.1015,9.0312,8.8711,9.0429,9.0898,9.0156,9.2695,9.3906,9.3945,9.5625,9.5469,9.3867,9.2969,9.2615,9.2603,9.2619,9.2522,9.2404,9.2522,9.2561,9.2482,9.2482,9.1916,9.1076,0.0,0.0,3.921,3.9396,0.0,0.0,0.0,0.0,0.0,0.0,0.0,0.0,0.0,0.0,0.0,0.0,0.0,0.0,0.0,0.0,4.5787,4.8397,5.1943,5.4476,5.5918,5.4632,5.2957,5.0852,5.4126,5.4749,5.2957,5.7282,5.8802,5.81,6.0906,5.9854,5.5879,5.3424,5.0696,4.8047,4.8047,4.793,4.7696,4.68,4.669,0.0,0.0,0.0,0.0,0.0,0.0,0.0,4.3684,4.3372,4.2903,4.3954,4.4742,4.5489,4.6573,4.8564,5.1765,5.7656,6.4648,7.0816,7.3588,7.559,7.6853,7.6827,7.6873,7.6914,7.6914,7.7617,7.8555,7.9531,8.1328,8.3203,8.4922,8.5937,8.6523,8.6719,8.6406,8.6015,8.5508,8.5469,8.6015,8.7383,8.7187,8.7656,8.9179,8.8672,8.832,8.832,8.8945,8.9062,8.8711,9.0429,9.1211,9.1054,9.2969,9.3906,9.3945,9.5,9.4883,9.3867,9.2969,9.2617,9.2616,9.2585,9.217,9.1624,9.2287,9.2131,9.1585,9.1585,9.1045,9.0153,0.0,0.0,0.0,0.0,0.0,0.0,0.0,0.0,0.0,0.0,0.0,0.0,0.0,0.0,0.0,0.0,0.0,0.0,0.0,0.0,4.7462,5.0502,5.432,5.584,5.4671,5.3697,5.1787,4.8787,5.1047,5.1865,5.1437,5.5762,5.7944,5.8412,6.0633,5.923,5.5061,5.2879,5.0463,4.8125,4.8125,4.7852,4.7384,4.6527,4.5709,4.4851,4.3557,0.0,0.0,0.0,0.0,0.0,0.0,0.0,4.1576,4.3684,4.4351,4.5213,4.8951,5.1566,5.504,6.273,6.8981,7.3666,7.5345,7.6438,7.7107,7.7083,7.713,7.7181,7.7187,7.789,7.8866,8.0108,8.1433,8.2922,8.4648,8.5272,8.574,8.6133,8.5469,8.4922,8.4883,8.4531,8.4647,8.5576,8.5584,8.6133,8.7422,8.7109,8.6875,8.6875,8.7695,8.7929,8.75,8.9609,9.0664,9.0703,9.2422,9.3281,9.332,9.4179,9.4336,9.3867,9.2969,9.2617,9.2617,9.2609,9.2317,9.1975,9.2365,9.2287,9.1858,9.1858,9.135,9.057,0.0,0.0,0.0,0.0,0.0,0.0,0.0,0.0,0.0,0.0,0.0,0.0,0.0,0.0,0.0,0.0,0.0,0.0,0.0,0.0,0.0,5.2684,5.5372,5.5489,5.2645,5.2723,5.1125,4.7735,4.828,0.0,0.0,0.0,5.7399,5.9269,6.0438,5.8724,5.4827,5.2645,5.0424,4.8319,4.8008,4.7462,4.6722,0.0,0.0,0.0,4.1791,4.1925,4.2286,4.2997,0.0,0.0,0.0,0.0,4.0327,4.3102,4.3805,4.4933,5.0672,5.4576,5.9104,6.7849,7.2221,7.4798,7.6281,7.6867,7.7101,7.7107,7.714,7.7195,7.7184,7.7851,7.8901,8.0504,8.1513,8.2662,8.4411,8.468,8.4953,8.5662,8.4491,8.3828,8.4414,8.3789,8.3434,8.3588,8.4284,8.4999,8.5703,8.5742,8.5664,8.5547,8.6367,8.6562,8.5976,8.8359,8.9726,9.0039,9.1601,9.2383,9.2383,9.2969,9.332,9.3398,9.2695,9.2304,9.2148,9.2148,9.2143,9.2189,9.2333,9.2326,9.2326,9.2443,9.2014,9.1311,0.0,0.0,0.0,0.0,0.0,0.0,0.0,0.0,0.0,0.0,4.0615,4.216,0.0,4.2265,4.2663,4.335,4.3646,4.3785,4.3753,0.0,0.0,5.358,5.3424,5.3073,5.2606,4.98,4.8436,4.8631,4.8008,0.0,0.0,0.0,0.0,6.0088,0.0,5.6697,5.3814,4.9878,4.754,4.641,4.489,4.4228,0.0,0.0,0.0,0.0,0.0,4.0009,4.1295,4.1423,4.1358,0.0,0.0,0.0,3.9741,3.951,4.1462,4.3918,4.4816,5.1765,6.0159,6.5897,7.0426,7.3705,7.4642,7.6008,7.7107,7.7083,7.7151,7.7179,7.719,7.7872,7.8735,7.9717,8.0615,8.1786,8.3516,8.3769,8.3812,8.395,8.373,8.3354,8.2695,8.2539,8.2809,8.3549,8.3705,8.3808,8.3945,8.3945,8.3594,8.2851,8.3672,8.4414,8.5078,8.6914,8.8554,9.0,9.1015,9.1484,9.1445,9.082,9.0937,9.164,9.1523,9.1054,9.0351,9.0351,9.0351,9.0428,9.1179,9.1467,9.1546,9.2326,9.2053,9.1311,0.0,0.0,0.0,0.0,0.0,0.0,0.0,0.0,0.0,0.0,0.0,4.3481,4.2976,4.3811,4.4335,4.4267,4.5157,4.6154,4.7111,4.8631,5.0579,5.3073,5.2333,5.1437,5.0502,4.8047,4.6956,4.7345,0.0,0.0,0.0,5.7243,5.8996,0.0,0.0,0.0,5.3619,4.9333,4.6995,4.6059,4.4306,4.4501,0.0,0.0,0.0,0.0,0.0,0.0,0.0,0.0,4.0062,3.972,4.0231,0.0,0.0,0.0,4.0327,4.2786,4.8603,5.5279,6.1915,6.7576,7.0777,7.3041,7.4837,7.5813,7.6521,7.7009,7.7112,7.714,7.714,7.7434,7.8102,7.9483,8.042,8.1435,8.2684,8.3242,8.356,8.3582,8.3179,8.2917,8.3031,8.2575,8.2459,8.2828,8.2891,8.2657,8.2171,8.2146,8.1758,8.0859,8.2148,8.3047,8.3437,8.5664,8.7617,8.9297,8.9648,9.0117,9.0547,9.0156,9.0469,9.1289,9.0781,9.0351,9.0,9.0,9.0,9.0078,9.0971,9.0989,9.0726,9.2092,9.2053,9.1389,0.0,0.0,0.0,0.0,0.0,0.0,0.0,0.0,0.0,0.0,0.0,4.4132,4.3277,0.0,0.0,0.0,4.5654,4.7159,4.8935,4.9013,4.9792,5.1554,5.1008,4.9878,4.8164,4.6644,4.5981,0.0,0.0,0.0,5.7087,5.8607,6.0477,0.0,5.923,0.0,0.0,0.0,0.0,0.0,0.0,0.0,0.0,0.0,0.0,0.0,0.0,0.0,0.0,0.0,0.0,3.8619,3.9252,3.8592,0.0,0.0,0.0,4.0948,5.0711,5.5825,6.0041,6.6756,6.9879,7.2026,7.4564,7.5657,7.6326,7.6961,7.7112,7.7101,7.7101,7.7268,7.7937,7.9444,8.042,8.1317,8.2176,8.2801,8.3191,8.3269,8.2706,8.2558,8.3213,8.2685,8.23,8.2292,8.2076,8.1669,8.1017,8.0774,8.0351,7.9726,8.1172,8.207,8.2304,8.4883,8.6719,8.7734,8.7969,8.8398,8.9023,8.8789,8.9297,9.0312,8.9844,8.9531,8.9375,8.9375,8.9375,8.9453,9.0312,9.0229,8.9886,9.163,9.1858,9.1428,0.0,0.0,0.0,0.0,0.0,0.0,0.0,0.0,0.0,0.0,0.0,4.3238,4.2345,4.2364,4.2732,4.351,4.3731,4.4534,4.6263,4.6388,4.7175,4.8904,4.8943,0.0,4.6371,4.5436,4.5358,0.0,0.0,0.0,5.888,5.9815,6.1997,6.5075,6.2503,5.9464,5.6074,0.0,0.0,0.0,0.0,0.0,0.0,0.0,0.0,0.0,0.0,0.0,0.0,0.0,0.0,0.0,0.0,3.8506,3.8128,0.0,0.0,0.0,4.5867,4.872,5.1492,6.0041,6.5897,7.023,7.2846,7.5305,7.7062,7.7101,7.7101,7.7101,7.7101,7.7765,7.8624,7.9561,8.042,8.1317,8.2176,8.2332,8.2371,8.2371,8.2332,8.2315,8.2343,8.2324,8.231,8.2292,8.153,8.1056,8.1,8.0222,7.9761,7.9687,8.0586,8.1445,8.2304,8.4883,8.582,8.5117,8.5937,8.6367,8.6367,8.5547,8.6094,8.7734,8.8476,8.832,8.7617,8.7617,8.7617,8.7695,8.8515,8.8828,8.8983,9.0711,9.135,9.1435,0.0,0.0,0.0,0.0,0.0,0.0,0.0,0.0,0.0,0.0,0.0,0.0,0.0,4.387,4.4181,4.5046,4.5182,4.549,4.6146,4.6691,4.7011,4.7111,4.7657,4.6878,4.4579,4.4228,0.0,0.0,0.0,5.0073,5.6619,5.8568,6.0438,6.2036,6.001,5.8139,5.6152,5.0696,0.0,0.0,0.0,0.0,0.0,0.0,0.0,0.0,0.0,0.0,0.0,0.0,0.0,0.0,0.0,0.0,0.0,3.6176,3.7546,4.0246,4.4731,4.8131,5.1999,5.8441,6.3086,6.6951,7.0074,7.3197,7.5579,7.6164,7.6711,7.7101,7.7101,7.7375,7.7843,7.8702,7.96,8.0459,8.1356,8.1942,8.2098,8.1513,8.1959,8.2097,8.1523,8.195,8.2297,8.2292,8.149,8.0777,8.0202,7.9327,7.8358,7.7305,7.8633,7.9805,8.0625,8.2656,8.3554,8.3242,8.4101,8.5117,8.6172,8.5312,8.5547,8.6679,8.6953,8.7265,8.75,8.75,8.75,8.7578,8.8398,8.8711,8.8906,9.065,9.1291,9.1435,0.0,0.0,0.0,0.0,0.0,0.0,0.0,0.0,0.0,0.0,0.0,0.0,0.0,0.0,4.5103,4.5919,4.5784,4.558,4.5304,4.5819,4.6029,4.5779,4.6878,4.6566,4.454,0.0,0.0,0.0,0.0,0.0,0.0,5.6814,5.8646,6.0195,5.7546,5.6922,0.0,0.0,0.0,4.8748,0.0,0.0,4.9956,0.0,0.0,0.0,0.0,0.0,0.0,0.0,0.0,0.0,0.0,0.0,0.0,0.0,0.0,4.0317,4.262,4.598,5.0356,5.6684,5.9768,6.2852,6.8903,7.1597,7.3354,7.5384,7.6242,7.675,7.7062,7.6867,7.7023,7.8194,7.9131,7.999,8.0888,8.1513,8.1552,8.0654,8.107,8.1087,8.0195,8.0937,8.1562,8.1826,8.0788,7.999,7.9717,7.8617,7.7575,7.6758,7.789,7.9023,8.0117,8.1289,8.1992,8.2304,8.289,8.3789,8.4883,8.4297,8.4492,8.5312,8.5312,8.5976,8.7109,8.7383,8.75,8.7539,8.8086,8.8476,8.8867,9.0348,9.1033,9.1435,0.0,0.0,0.0,0.0,0.0,0.0,0.0,0.0,0.0,0.0,0.0,0.0,0.0,0.0,0.0,4.6035,4.5336,4.4492,4.3587,4.3566,4.3981,4.4822,4.6559,4.7072,4.6176,0.0,0.0,0.0,0.0,0.0,0.0,0.0,5.6874,5.9893,5.5687,5.6173,5.9854,0.0,5.4554,5.3736,0.0,5.0813,5.0657,0.0,0.0,0.0,5.3385,5.1671,0.0,4.6313,0.0,0.0,0.0,0.0,0.0,0.0,0.0,0.0,0.0,0.0,0.0,5.422,5.5747,5.805,6.9059,7.0348,7.0387,7.472,7.5618,7.5891,7.6867,7.632,7.632,7.7999,7.9053,7.9951,8.0849,8.0966,8.0654,7.9795,7.9664,7.9329,7.8437,7.914,7.9998,8.0847,7.9343,7.8741,7.9639,7.7999,7.7478,7.8359,7.8437,7.9297,8.0898,8.1015,8.1445,8.2265,8.2304,8.2304,8.2344,8.2304,8.2773,8.3594,8.3594,8.457,8.6172,8.7109,8.7461,8.7461,8.7539,8.8047,8.8828,8.9726,9.0575,9.1402,0.0,0.0,0.0,0.0,0.0,0.0,0.0,0.0,0.0,0.0,0.0,0.0,0.0,0.0,0.0,4.8794,4.7473,4.6007,4.4559,4.3869,4.3644,4.3934,4.6185,4.6738,4.5297,0.0,0.0,0.0,0.0,0.0,0.0,0.0,0.0,0.0,5.4723,5.4732,5.4515,5.1031,0.0,5.3697,5.132,5.206,0.0,0.0,0.0,0.0,0.0,5.6152,5.4445,0.0,4.9562,4.5245,0.0,0.0,0.0,0.0,0.0,0.0,4.043,0.0,0.0,0.0,0.0,0.0,6.0315,6.2813,6.5234,7.0152,7.1167,7.1987,7.472,7.5032,7.5032,7.5501,7.6828,7.835,7.9834,8.0068,7.9951,7.9717,7.9137,7.841,7.7532,7.7719,7.8219,7.907,7.8083,7.7843,7.8702,7.714,7.6618,7.75,7.8164,7.8711,7.918,8.1015,8.1758,8.1367,8.1992,8.2617,8.3203,8.2578,8.2773,8.3594,8.3594,8.3867,8.4453,8.5937,8.6562,8.6679,8.789,8.8906,8.9765,9.0625,9.1093,9.1322,0.0,0.0,4.3912,4.3784,0.0,0.0,0.0,0.0,0.0,0.0,0.0,0.0,0.0,0.0,0.0,5.0428,4.8138,4.618,4.4831,4.3306,4.2624,4.2983,4.546,4.6402,4.5429,0.0,0.0,0.0,0.0,0.0,0.0,0.0,0.0,0.0,5.1969,5.1852,0.0,0.0,0.0,0.0,5.2723,0.0,0.0,5.8451,5.9542,0.0,0.0,0.0,5.8499,5.7666,5.3481,0.0,0.0,0.0,0.0,0.0,0.0,0.0,0.0,0.0,0.0,4.8482,0.0,0.0,5.8792,6.0276,6.1954,6.8591,6.9639,7.0219,7.2912,7.3107,7.3101,7.3843,7.4825,7.608,7.7843,7.8077,7.7921,7.757,7.7101,7.6488,7.561,7.5868,7.6443,7.7257,7.6516,7.6438,7.7257,7.6438,7.6302,7.7147,7.7695,7.8281,7.8984,8.0156,8.0976,8.1523,8.1679,8.2226,8.3047,8.2539,8.2578,8.3086,8.3437,8.3594,8.3711,8.5078,8.5859,8.6328,8.7695,8.8711,8.957,9.0429,9.0742,9.0742,0.0,0.0,4.4924,4.5751,4.5905,4.6046,0.0,0.0,0.0,0.0,0.0,0.0,0.0,0.0,0.0,0.0,4.8528,4.6213,4.532,4.285,4.1877,4.2887,4.5053,4.6346,4.6541,0.0,0.0,0.0,0.0,0.0,0.0,0.0,0.0,0.0,4.8341,4.8302,4.8136,0.0,0.0,5.1554,5.4671,5.6269,0.0,0.0,6.2465,6.2114,6.2893,6.2737,6.1967,6.08,5.6068,0.0,0.0,0.0,0.0,0.0,4.0929,0.0,0.0,0.0,0.0,0.0,4.8954,0.0,6.0315,5.9885,5.9495,6.7498,6.858,6.8684,7.0558,7.0426,7.0497,7.1971,7.2541,7.3491,7.5501,7.5813,7.5501,7.4759,7.4525,7.4179,7.349,7.4067,7.4798,7.5618,7.4993,7.4993,7.5891,7.593,7.6292,7.7211,7.7303,7.8086,7.9687,7.9101,7.9922,8.2148,8.1484,8.1562,8.2304,8.2304,8.2304,8.2344,8.3203,8.3594,8.3672,8.4531,8.539,8.6289,8.7148,8.8008,8.8828,8.9687,8.9922,8.9844,4.4228,4.4499,4.4899,4.5738,4.6408,0.0,0.0,0.0,0.0,0.0,0.0,0.0,0.0,0.0,0.0,0.0,5.2058,4.9744,4.8863,4.5831,4.5036,4.725,4.7203,4.7797,4.9119,4.9528,0.0,0.0,0.0,0.0,0.0,0.0,0.0,0.0,4.6591,4.626,4.5788,0.0,0.0,5.1359,5.2021,0.0,5.9698,6.1257,6.301,6.4686,6.4842,6.527,6.5153,6.1556,5.7602,5.3409,0.0,0.0,0.0,4.4028,0.0,0.0,0.0,0.0,0.0,0.0,0.0,0.0,5.2507,5.3288,5.4771,5.8558,5.9719,6.1035,6.4157,6.5705,6.6362,6.601,6.8327,7.1455,7.5287,7.5807,7.5735,7.5579,7.4369,7.3744,7.4218,7.3822,7.39,7.4681,7.4603,7.5188,7.675,7.6242,7.6594,7.8083,7.8198,7.8711,7.9687,8.0234,8.0742,8.125,8.1797,8.2148,8.2304,8.2304,8.2304,8.2344,8.3203,8.3594,8.3672,8.4531,8.539,8.6289,8.7148,8.8008,8.8828,8.9687,8.957,8.8945,4.3892,4.4641,4.5932,4.8034,0.0,0.0,0.0,0.0,0.0,0.0,0.0,0.0,0.0,0.0,0.0,0.0,0.0,0.0,0.0,0.0,4.5343,4.6657,4.755,4.861,4.9865,5.0342,5.0159,0.0,0.0,0.0,0.0,0.0,0.0,0.0,0.0,4.6085,4.6247,4.7523,4.9058,5.0969,5.4398,0.0,6.1295,6.4296,6.5972,6.6829,6.7686,6.7735,6.6615,6.1907,5.9467,0.0,0.0,5.0951,5.1497,0.0,4.8761,4.9223,0.0,0.0,0.0,5.0005,0.0,0.0,0.0,5.2971,5.3795,5.769,5.7796,5.8097,6.114,6.2024,6.2555,6.3405,6.5769,6.8359,7.0887,7.2789,7.39,7.39,7.3158,7.2807,7.3197,7.3275,7.3471,7.3861,7.39,7.429,7.5149,7.5238,7.5829,7.7073,7.7989,7.8626,7.9062,7.9492,8.0156,8.1015,8.1015,8.1445,8.2304,8.2304,8.2539,8.3008,8.4336,8.4883,8.5,8.6289,8.6836,8.6875,8.7344,8.7461,8.7617,8.8867,8.8828,8.8086,4.3518,4.4821,4.6809,4.9668,0.0,0.0,0.0,0.0,0.0,0.0,0.0,0.0,0.0,0.0,0.0,0.0,0.0,0.0,0.0,0.0,0.0,4.6491,4.7866,4.907,5.0114,5.0503,5.0348,4.9648,0.0,0.0,0.0,0.0,0.0,0.0,0.0,0.0,4.763,0.0,0.0,5.2021,0.0,6.0594,6.1218,6.6517,6.8232,6.8037,7.0297,6.984,6.7599,6.3232,6.2032,6.1268,5.5262,5.5496,0.0,0.0,0.0,0.0,0.0,0.0,0.0,0.0,0.0,5.2381,0.0,0.0,0.0,5.7646,5.7004,5.6407,5.852,5.8538,5.8905,6.0837,6.3171,6.4864,6.5199,6.8131,7.0498,7.1162,7.1552,7.1831,7.1987,7.2182,7.2651,7.3471,7.2612,7.2573,7.3705,7.4306,7.513,7.6263,7.7497,7.8215,7.8397,7.8398,7.9101,8.0508,7.9961,8.0547,8.207,8.2226,8.2773,8.3711,8.5625,8.6367,8.6328,8.8008,8.8125,8.7265,8.7422,8.707,8.6601,8.7969,8.8047,8.75,4.4277,4.5181,4.6201,4.7308,5.0132,5.2569,5.3614,0.0,0.0,0.0,0.0,0.0,0.0,0.0,0.0,0.0,0.0,0.0,5.8518,0.0,0.0,5.2628,5.0067,4.938,5.1008,4.9648,4.8832,4.8755,0.0,0.0,0.0,0.0,0.0,0.0,4.7271,0.0,0.0,0.0,5.3096,0.0,6.0204,5.9698,0.0,6.3595,6.6244,6.7374,7.1388,7.1232,6.8943,0.0,6.6166,6.4423,0.0,6.1759,6.2656,5.924,0.0,0.0,0.0,0.0,0.0,0.0,5.5867,0.0,0.0,0.0,5.242,5.1488,0.0,5.313,5.3498,0.0,0.0,5.5007,5.8928,6.1549,6.0169,6.2258,6.5088,6.8183,6.9901,7.115,7.1948,6.9996,7.027,7.4095,7.0113,6.9879,7.5227,7.4915,7.5701,7.8038,7.7531,7.7609,7.8395,7.8394,7.8515,7.8711,7.9375,8.0195,8.1172,8.1953,8.2773,8.375,8.625,8.6914,8.6328,8.8008,8.7773,8.6406,8.7187,8.7422,8.7383,8.7578,8.7578,8.75,4.3852,4.491,4.638,4.8275,5.0171,5.226,5.4581,5.8101,0.0,0.0,0.0,0.0,0.0,0.0,0.0,0.0,0.0,5.922,0.0,0.0,0.0,0.0,5.2549,0.0,5.3301,5.1695,5.0348,4.9337,4.7978,0.0,0.0,0.0,0.0,0.0,4.8593,5.0296,5.3867,0.0,5.4849,0.0,0.0,6.0126,0.0,6.6829,7.0414,7.1271,7.205,7.1349,6.9673,0.0,6.6673,0.0,0.0,0.0,0.0,6.3185,0.0,0.0,0.0,0.0,0.0,0.0,0.0,0.0,5.1258,0.0,5.1113,0.0,0.0,0.0,0.0,0.0,0.0,0.0,5.5801,5.7478,5.6246,5.8281,6.1346,6.5354,6.5172,6.5847,6.8708,6.8435,6.9255,7.2065,6.8864,6.8552,7.2612,7.3471,7.4564,7.6086,7.7257,7.8038,7.839,7.841,7.8665,7.914,7.9023,7.9687,8.1015,8.1914,8.3047,8.4492,8.7099,8.8,8.7812,9.0039,8.9648,8.7734,8.8594,8.8047,8.6797,8.7304,8.75,8.75,4.3708,0.0,0.0,4.8624,5.0055,5.2221,5.6128,0.0,0.0,0.0,0.0,0.0,6.8081,6.6533,0.0,0.0,6.4329,6.2317,0.0,0.0,5.6549,0.0,0.0,0.0,0.0,0.0,5.1358,4.9881,4.8133,0.0,0.0,0.0,0.0,0.0,5.0314,5.2757,5.7253,5.6972,5.7926,5.9844,6.2338,6.3429,6.4169,6.9907,7.2869,7.387,7.2624,7.1767,7.0781,6.7821,6.7637,0.0,6.6946,0.0,6.6712,0.0,0.0,0.0,6.1703,0.0,0.0,0.0,0.0,0.0,0.0,0.0,0.0,0.0,0.0,0.0,0.0,0.0,5.2311,5.2565,0.0,5.4936,5.3073,5.4242,5.6948,6.1549,6.1498,6.2608,6.6444,6.6092,6.6834,6.9762,6.6912,6.6795,7.0855,7.2495,7.3783,7.4837,7.6945,7.8038,7.8038,7.8278,7.861,7.8981,7.8828,7.9414,8.0703,8.2031,8.3476,8.5078,8.786,8.8797,8.8512,9.0898,9.0508,8.8398,8.9062,8.8164,8.664,8.7265,8.75,8.75,4.4353,4.5124,0.0,0.0,0.0,5.2608,0.0,0.0,0.0,0.0,0.0,0.0,0.0,0.0,0.0,0.0,0.0,6.8158,6.723,0.0,6.0943,0.0,0.0,5.5264,0.0,0.0,0.0,4.9881,4.8133,4.8133,0.0,0.0,0.0,0.0,5.2513,5.4684,5.6669,5.9991,6.3769,6.7525,6.7642,7.068,7.4652,0.0,7.0976,7.3133,7.3094,0.0,0.0,7.0901,7.0368,0.0,0.0,0.0,0.0,0.0,0.0,0.0,0.0,0.0,0.0,5.881,0.0,0.0,0.0,0.0,5.276,0.0,0.0,0.0,0.0,0.0,0.0,0.0,5.4762,0.0,0.0,4.9527,5.0977,5.6145,6.0399,6.3935,6.6561,6.2306,6.1837,6.7732,6.3477,6.3945,7.1558,7.2807,7.4056,7.5696,7.6672,7.714,7.714,7.7976,7.7976,7.7185,7.8862,7.9687,7.9844,8.2383,8.4062,8.5078,8.8485,8.9008,8.757,8.9332,8.9023,8.7461,8.7539,8.7539,8.7461,8.75,8.75,8.75,4.6172,0.0,0.0,0.0,0.0,0.0,0.0,6.0151,0.0,0.0,0.0,0.0,0.0,7.4077,7.3844,0.0,0.0,7.1562,7.0092,6.6533,0.0,0.0,0.0,5.9514,0.0,0.0,0.0,0.0,0.0,4.9609,5.0697,4.8094,4.8832,5.2457,5.3369,5.6308,6.0682,6.2491,6.471,6.7243,6.9513,7.286,7.6169,0.0,7.351,7.4691,7.408,7.3872,0.0,7.3276,7.2705,7.216,7.1883,7.1221,7.0431,6.9857,6.9874,0.0,0.0,0.0,6.9679,6.2474,0.0,0.0,0.0,0.0,0.0,0.0,0.0,0.0,0.0,0.0,0.0,0.0,0.0,5.2621,0.0,4.7618,4.8373,5.1837,5.6569,5.9006,5.7582,5.9495,6.1681,6.3711,6.2267,6.3906,6.9957,7.1636,7.3197,7.4876,7.632,7.7648,7.8819,7.7966,7.7966,7.8819,7.8835,7.9157,7.9782,8.2412,8.4096,8.5071,8.7894,8.8813,8.8344,8.95,8.9328,8.8242,8.8281,8.7969,8.75,8.75,8.75,8.75,4.7545,0.0,0.0,0.0,0.0,0.0,0.0,0.0,0.0,0.0,7.2181,0.0,7.8177,0.0,7.7481,0.0,7.6746,7.5044,7.2413,7.017,0.0,6.9203,6.6167,0.0,0.0,0.0,0.0,0.0,0.0,5.2018,5.2484,4.9571,5.0037,5.3261,5.4252,5.7336,6.1992,6.4414,6.7126,7.0056,7.3503,7.6031,0.0,0.0,7.6529,7.6363,0.0,7.5191,7.5098,7.487,7.4223,7.3483,7.3522,7.2744,7.1797,7.1536,7.1018,7.0473,7.0188,7.094,0.0,6.5438,6.3787,0.0,5.6173,0.0,5.8286,0.0,0.0,0.0,0.0,0.0,0.0,0.0,0.0,0.0,0.0,4.5903,4.6346,4.8053,5.2545,5.5371,5.5005,5.6567,5.887,6.1915,6.0744,6.2384,6.8161,7.0426,7.2339,7.4017,7.5735,7.7453,7.9209,7.8429,7.8429,7.9254,7.96,7.9756,7.9789,8.274,8.4194,8.4585,8.7453,8.8344,8.7876,8.9047,8.9032,8.8237,8.8242,8.7929,8.75,8.75,8.75,8.7539,4.8509,4.8354,0.0,0.0,5.3202,0.0,0.0,0.0,6.87,0.0,7.4966,7.7558,8.0111,8.1155,8.1349,8.0536,8.0459,7.8718,7.4657,7.427,0.0,0.0,7.0467,6.9672,6.7948,0.0,0.0,0.0,0.0,5.5126,5.5048,5.1591,5.0891,5.264,5.5174,5.783,6.0708,6.5752,7.0873,7.5844,7.923,8.0162,7.9615,8.0357,7.9696,7.8215,7.726,7.6877,7.6726,7.5883,7.5082,7.4382,7.435,7.4364,7.4209,7.3299,7.3066,7.2871,7.2054,7.1887,7.1174,6.7775,0.0,0.0,0.0,0.0,6.3164,0.0,0.0,0.0,0.0,0.0,0.0,0.0,0.0,5.1388,4.4773,4.454,4.5092,4.5189,4.8794,5.3186,5.8007,5.36,5.3795,6.1954,5.8909,5.9612,6.6366,6.9098,7.1285,7.3197,7.4915,7.6633,7.839,7.9209,7.926,7.8493,8.1017,8.1356,7.9867,8.3269,8.4362,8.3777,8.7134,8.7642,8.6236,8.7915,8.8149,8.7414,8.7416,8.7422,8.75,8.75,8.75,8.7617,4.9394,5.1145,5.3166,0.0,5.465,5.6384,0.0,0.0,0.0,0.0,7.7248,8.0227,8.2819,8.3824,8.425,8.4018,8.3979,0.0,0.0,0.0,0.0,7.7597,7.527,7.3472,7.2366,6.8713,0.0,6.3556,0.0,5.6913,5.6835,5.2756,5.2096,5.4388,5.5707,5.8817,6.3221,6.645,7.114,7.6626,7.9445,8.0844,8.1289,0.0,8.1659,8.1522,7.9424,7.8647,7.8513,7.771,7.7299,7.6871,7.5634,7.5245,7.502,7.4194,7.3931,7.3845,7.3605,7.4048,7.4063,7.1909,7.0406,6.8955,0.0,0.0,0.0,0.0,0.0,0.0,0.0,0.0,0.0,0.0,0.0,0.0,0.0,4.7111,4.7547,4.9439,4.9529,4.9469,4.9523,5.2815,5.5318,5.6255,5.7035,5.9963,6.5624,6.6522,6.8591,7.2221,7.4603,7.6633,7.839,7.8624,7.8947,7.9391,8.0699,8.1083,8.0732,8.2879,8.3738,8.366,8.5807,8.651,8.6197,8.729,8.7603,8.7407,8.7405,8.7459,8.75,8.75,8.75,8.7617,5.1895,5.4664,0.0,5.6942,0.0,0.0,6.3477,6.6126,0.0,7.5461,7.8824,0.0,8.327,8.5551,8.6815,8.6455,8.6455,0.0,8.4211,0.0,0.0,8.0266,7.9199,7.7849,7.6221,7.3219,0.0,6.6866,0.0,0.0,5.804,5.4504,5.3417,5.4504,5.6511,5.9218,6.2663,6.8637,7.3324,7.7036,8.0766,8.232,0.0,8.3252,8.3602,8.3446,8.1621,8.0494,7.9717,7.8898,7.8354,7.7826,7.6482,7.631,7.641,7.5588,7.505,7.4861,7.5205,7.5377,7.5354,7.4778,7.3916,7.2779,7.1223,7.1209,7.1262,0.0,0.0,0.0,0.0,0.0,0.0,0.0,0.0,0.0,0.0,0.0,4.8444,4.9503,4.979,4.8905,4.646,4.9762,5.2312,5.2819,5.4888,5.7894,6.1954,6.5038,6.8161,7.1324,7.39,7.6438,7.8936,7.8975,7.941,8.028,8.1167,8.1356,8.1044,8.2723,8.3308,8.3074,8.5182,8.5885,8.5612,8.6471,8.7056,8.7407,8.7401,8.7416,8.7461,8.7461,8.7461,8.7656,5.5126,5.8319,0.0,0.0,0.0,0.0,0.0,6.991,0.0,7.746,0.0,8.2378,8.3255,8.6732,8.8808,8.8246,0.0,8.7422,8.5062,8.5565,8.4482,8.1194,8.2559,8.2181,7.9563,7.7757,7.4383,0.0,0.0,0.0,5.8583,5.6019,5.4504,5.3999,5.734,5.9788,6.2041,7.1481,7.6143,7.7619,8.234,8.3913,8.3602,8.5,8.5058,8.4282,8.3524,8.2242,8.0766,7.9795,7.8901,7.8046,7.727,7.7503,7.7834,7.7075,7.6376,7.5949,7.6531,7.6277,7.5999,7.6687,7.6916,7.6388,7.4289,7.3667,7.3566,7.3791,7.1807,7.1043,0.0,0.0,0.0,5.4429,0.0,0.0,0.0,0.0,0.0,4.8748,5.0633,0.0,4.6742,4.6748,4.8053,5.0707,5.2312,5.4459,5.7465,6.3321,6.781,7.0465,7.3002,7.6008,7.9483,7.9639,8.0146,8.1005,8.1864,8.1903,8.12,8.2684,8.3035,8.2606,8.4909,8.5573,8.5026,8.5807,8.6549,8.7251,8.7357,8.7414,8.7382,8.7382,8.7422,8.7734,5.7489,0.0,0.0,0.0,0.0,7.1274,7.414,7.5504,7.7267,8.0249,8.349,8.5844,8.6645,8.8094,8.9243,8.9852,9.0605,0.0,0.0,0.0,0.0,8.5604,8.5849,8.4854,8.2297,7.9231,7.5508,0.0,0.0,0.0,5.7729,5.5165,5.4232,5.4893,5.7612,6.2429,6.8839,7.3501,7.7192,8.0105,8.2339,8.4067,8.5195,8.4728,8.4474,8.4319,8.4164,8.3485,8.2436,8.0882,7.9795,7.9057,7.8901,7.8417,7.7913,7.7795,7.7622,7.737,7.6824,7.7114,7.7598,7.7736,7.7775,7.787,7.8142,7.7093,7.6471,7.7909,7.616,7.3978,7.2638,0.0,0.0,0.0,0.0,0.0,0.0,0.0,0.0,0.0,5.5311,5.3408,4.7795,4.9235,4.9874,4.8304,4.8517,5.1058,5.6441,5.7929,6.1993,0.0,7.2143,7.5149,0.0,0.0,8.0146,8.1005,8.1864,8.2215,8.2098,8.2371,8.2801,8.3347,8.4519,8.5338,8.5885,8.6041,8.6197,8.6392,8.7141,8.742,8.7392,8.7381,8.7422,8.7656,0.0,0.0,0.0,0.0,0.0,0.0,0.0,7.9914,8.1484,8.1822,8.3316,8.4666,8.5535,8.7996,8.9832,9.0305,9.1185,9.1329,9.0478,9.04,8.9472,8.7383,8.7719,0.0,8.4223,8.2166,7.8163,7.2134,0.0,0.0,0.0,5.5864,5.5009,5.5165,5.9022,6.4054,6.986,7.4264,0.0,8.0107,8.3134,8.4862,8.5621,8.5152,8.5268,8.554,8.4609,8.4337,8.4026,8.1912,8.0961,8.0456,7.9562,7.9291,7.9175,7.8748,7.8554,7.8437,7.803,7.8224,7.8593,7.8631,7.8612,7.8554,7.8611,7.83,7.7971,7.7969,7.7347,7.5733,7.2312,6.7241,0.0,0.0,0.0,0.0,0.0,0.0,5.7866,0.0,0.0,0.0,4.8801,5.0108,4.9541,4.5172,4.6947,5.0078,5.4289,5.668,6.1213,0.0,0.0,0.0,7.835,0.0,8.0341,8.1669,8.2098,8.2293,8.2293,8.2293,8.2528,8.2957,8.4245,8.5026,8.5456,8.5924,8.6119,8.6158,8.6549,8.7017,8.7414,8.7411,8.7421,8.7578,0.0,6.6918,0.0,0.0,7.4332,7.7793,7.9977,8.3247,8.4972,8.3649,8.3457,8.3873,8.4974,8.8128,9.0304,9.0576,9.1262,9.1406,9.071,9.0671,9.0091,8.8776,8.9356,8.866,8.6416,8.523,8.1058,0.0,0.0,0.0,0.0,5.7133,5.6473,5.655,6.1089,6.558,0.0,0.0,7.8088,8.0256,8.404,8.5713,8.5889,8.5868,8.6178,8.645,8.5247,8.5087,8.5157,8.2992,8.2044,8.1561,8.0456,8.0262,8.0337,7.966,7.9425,7.9305,7.9149,7.9248,7.9404,7.9466,7.9269,7.8998,7.8612,7.8729,7.8671,7.7699,7.7775,7.6721,7.2468,6.9124,0.0,0.0,0.0,0.0,0.0,0.0,0.0,0.0,0.0,0.0,4.9644,4.9581,4.7996,4.329,4.608,4.9206,5.2016,5.5543,0.0,0.0,0.0,7.3158,7.7296,0.0,8.0498,8.202,8.2215,8.2215,8.202,8.2215,8.2371,8.2645,8.3933,8.4636,8.487,8.5534,8.5924,8.608,8.608,8.6627,8.7407,8.7397,8.7414,8.7461,0.0,0.0,0.0,0.0,0.0,8.0805,8.19,8.4978,8.7094,8.694,8.6901,8.7517,8.9133,8.9838,9.0512,9.1238,9.1552,9.1677,9.16,9.16,9.1522,9.1367,9.1406,9.0981,8.9936,8.763,8.3459,0.0,0.0,6.6859,0.0,0.0,0.0,0.0,0.0,0.0,0.0,7.6185,7.9597,8.2815,8.4645,8.5933,8.676,8.663,8.618,8.5723,8.6296,8.599,8.5166,8.4234,8.2925,8.1807,8.245,8.1591,8.0306,8.0295,8.0251,8.0035,7.9305,7.9675,8.0295,8.0295,7.9675,7.9287,7.9985,7.9055,7.8416,7.9874,7.9057,7.6777,7.2477,7.2068,7.0784,0.0,0.0,0.0,0.0,0.0,6.2854,6.0126,0.0,0.0,5.0268,4.7228,4.5287,4.4702,4.5039,4.6766,5.0147,0.0,0.0,6.2095,6.6321,7.0191,7.3744,7.7726,8.0185,8.1122,8.1903,8.1903,8.1161,8.1942,8.2684,8.3386,8.3543,8.4089,8.4792,8.4909,8.5377,8.608,8.608,8.6627,8.7407,8.7407,8.7405,8.7304,0.0,0.0,0.0,0.0,0.0,0.0,0.0,8.6872,8.8256,8.8825,8.8479,8.8666,8.9893,9.0075,9.0487,9.1322,9.1531,9.1629,9.1531,9.162,9.1455,9.0885,9.1378,9.0826,8.8931,8.7952,8.4262,0.0,0.0,0.0,0.0,0.0,0.0,0.0,0.0,7.0834,7.4414,7.8408,8.1469,8.3745,8.4931,8.5614,8.5933,8.5381,8.5265,8.5405,8.5202,8.5191,8.5178,8.4353,8.4016,8.3816,8.3181,8.246,8.1871,8.1895,8.1484,8.0972,8.0648,8.0802,8.1073,8.112,8.0826,8.0516,8.0429,8.0274,8.0019,7.9735,7.9175,7.8085,7.5922,7.4126,7.2638,0.0,0.0,0.0,0.0,0.0,0.0,6.2309,0.0,5.6503,5.1982,4.8475,4.6683,4.7189,4.4832,4.4889,0.0,0.0,0.0,5.847,0.0,7.0035,7.2495,7.7804,8.0927,8.1786,8.2137,8.2137,8.1786,8.2137,8.2723,8.3504,8.3504,8.3972,8.4753,8.4245,8.4831,8.6041,8.5534,8.6158,8.7407,8.7407,8.7387,8.7366,7.6411,0.0,7.7326,0.0,8.1869,8.3093,8.6652,8.7955,8.8836,8.9752,8.9863,8.9975,9.0389,9.0659,9.1072,9.1715,9.1855,9.2002,9.2133,9.1801,9.1552,9.1406,9.1813,0.0,8.9433,8.8892,8.5823,8.0004,7.6095,0.0,0.0,0.0,0.0,0.0,7.1355,7.4138,7.6514,8.0585,8.314,8.4521,8.5385,8.5758,8.5706,8.5061,8.5216,8.5667,8.4752,8.4817,8.5178,8.4366,8.4508,8.4752,8.3367,8.2569,8.2157,8.2429,8.1838,8.1194,8.1426,8.1504,8.1504,8.1553,8.1335,8.1064,8.0771,8.0942,8.0865,7.9709,7.9308,7.8962,7.8181,7.5844,7.4149,7.4374,0.0,0.0,0.0,6.9823,0.0,6.3029,5.9601,5.629,5.2901,4.9247,4.7805,4.9403,4.6729,4.6164,0.0,0.0,0.0,0.0,0.0,0.0,7.124,7.6705,8.0179,8.1545,8.1545,8.1669,8.1942,8.2176,8.2606,8.3152,8.3152,8.3621,8.4362,8.3504,8.4167,8.5612,8.4753,8.5338,8.6666,8.6939,8.7017,8.7017,7.8748,7.9895,8.1269,8.3868,8.4365,8.5014,8.6921,8.7955,8.8836,8.9752,9.1402,9.2133,9.1287,9.2011,9.258,9.258,9.2646,9.3059,9.3907,9.2364,9.2203,0.0,0.0,9.2827,9.2953,9.1251,8.866,8.5217,0.0,0.0,7.2517,0.0,6.9652,7.1472,7.4834,7.7287,7.9183,8.2625,8.4521,8.5372,8.6223,8.6623,8.6674,8.6597,8.6623,8.6558,8.563,8.5294,8.5178,8.4366,8.4095,8.394,8.3089,8.162,8.042,8.1271,8.0923,8.042,8.1271,8.1504,8.1504,8.1504,8.0846,8.0459,8.131,8.0846,8.0251,8.026,7.9714,7.8942,7.805,7.727,7.5611,7.2197,0.0,0.0,0.0,6.8617,0.0,6.2118,5.5491,5.16,5.2427,4.8708,4.7626,5.1014,0.0,0.0,0.0,0.0,0.0,5.7616,6.2824,0.0,6.9426,7.3719,7.7153,7.9729,7.975,8.0185,8.1044,8.1903,8.2293,8.2293,8.2293,8.2762,8.3465,8.2645,8.3308,8.4714,8.3855,8.405,8.4948,8.5807,8.6119,8.6119,8.1652,8.2493,8.3333,8.4175,8.5283,8.624,8.6968,8.827,8.9343,8.9648,9.072,9.1602,9.191,9.2787,9.3323,0.0,9.3466,9.3581,0.0,9.3417,9.3643,9.4728,9.4087,9.3686,9.3755,9.2113,8.9898,8.7074,0.0,0.0,0.0,7.437,7.4912,7.6653,7.8254,8.0304,8.2587,8.4211,8.541,8.6223,8.6494,8.6261,8.5823,8.6377,8.661,8.6442,8.4985,8.483,8.5101,8.367,8.3206,8.3283,8.3592,8.3322,8.3012,8.3863,8.3515,8.2935,8.3206,8.2857,8.2548,8.3128,8.2161,8.1155,8.1465,8.0846,8.0406,8.1058,8.0539,7.9714,7.8922,7.8108,7.6824,7.4628,7.4716,0.0,7.0105,0.0,6.5959,6.1962,5.7982,5.5219,5.4363,5.1989,5.0987,5.2104,5.0547,0.0,0.0,0.0,0.0,0.0,6.4762,0.0,7.1979,7.6287,7.9143,8.0509,7.9945,8.0146,8.1005,8.1278,8.1747,8.2293,8.2293,8.245,8.2645,8.2411,8.2957,8.3933,8.4245,8.4909,8.5807,8.6666,8.6978,8.6978,8.3486,8.4174,8.4747,8.4747,8.5626,8.6583,8.7351,8.8346,8.9151,8.9573,9.0647,9.1797,9.2679,9.3599,0.0,9.4172,9.4282,9.4436,9.4672,9.4163,9.4116,9.4622,9.3913,9.3399,9.3083,9.2102,0.0,8.8267,8.4893,8.1491,7.8307,7.8989,7.9879,8.0962,8.2432,8.3824,8.5101,8.5913,8.661,8.7074,8.6726,8.6455,8.63,8.6532,8.661,8.6416,8.5024,8.4869,8.5178,8.4482,8.3592,8.3128,8.4946,8.4869,8.4211,8.4714,8.425,8.367,8.4018,8.3708,8.3399,8.394,8.3051,8.189,8.1581,8.1078,8.0846,8.1437,8.088,8.0074,7.9248,7.8437,7.737,7.5719,7.4744,7.3285,7.0736,0.0,6.5181,0.0,0.0,0.0,0.0,5.573,5.5742,0.0,5.5473,0.0,0.0,0.0,0.0,5.9825,6.7157,7.1915,7.3631,7.634,7.8456,7.9899,7.9768,7.9931,8.0477,8.0797,8.1077,8.1343,8.2014,8.2098,8.1825,8.2176,8.2762,8.3543,8.4089,8.4831,8.5729,8.6588,8.69,8.6978,8.4326,8.4976,8.5511,0.0,8.5511,0.0,8.7849,8.8155,8.8538,8.9535,9.1145,9.2565,9.3448,9.4292,9.483,9.498,0.0,0.0,0.0,9.4788,9.3939,9.4082,9.3235,9.2421,9.167,9.1554,9.0705,8.9085,8.5825,8.3448,8.1864,8.3528,8.4289,8.4366,8.6803,8.7499,8.6842,8.7731,8.8052,8.8002,8.7267,8.7383,8.7886,8.7112,8.6764,8.6571,8.572,8.5449,8.5604,8.6339,8.5024,8.3592,8.6726,8.6107,8.4211,8.425,8.3708,8.3244,8.4057,8.4211,8.4173,8.4173,8.3476,8.2587,8.1697,8.1504,8.1504,8.1504,8.0856,8.0051,7.9238,7.8469,7.7426,7.5741,7.4751,7.3255,7.051,6.8101,6.4993,6.0681,0.0,0.0,5.6913,5.962,6.1201,0.0,0.0,0.0,0.0,0.0,6.0824,6.5688,6.9977,7.2979,7.4655,7.4665,7.5874,7.8213,7.9023,7.9461,7.9539,8.0423,8.0431,7.9885,8.1584,8.1825,8.1161,8.1981,8.2762,8.3504,8.3582,8.4128,8.4987,8.5885,8.6197,8.6314,0.0,0.0,8.5511,8.5511,8.5511,8.5855,8.6965,8.7691,8.8647,9.0179,9.137,9.2368,9.3289,9.4254,9.4792,9.483,9.5558,9.6095,9.6288,9.5903,9.5672,9.5747,9.4972,9.439,9.4232,9.3026,9.1863,9.0821,8.8699,8.7215,8.623,8.6026,8.5976,8.6068,8.729,8.8035,8.8499,8.9349,8.9736,8.9774,9.0295,8.9792,8.8731,8.8594,8.813,8.7417,8.6528,8.6672,8.7202,8.6683,8.6169,8.572,8.5875,8.5488,8.514,8.5797,8.5875,8.5759,8.5898,8.5446,8.4944,8.486,8.3796,8.2535,8.1672,8.1504,8.1504,8.1504,8.0807,8.0174,8.0013,7.9315,7.8198,7.6633,7.5682,7.3527,6.9034,6.7868,6.5887,0.0,6.2274,6.2313,6.037,6.2133,6.2496,0.0,0.0,6.2729,6.2795,6.5211,6.7413,6.9262,7.2869,7.5647,7.7362,7.7384,7.7365,7.7307,7.7511,7.794,7.8642,7.9565,8.0236,8.0665,8.1819,8.2176,8.202,8.2215,8.2762,8.3582,8.4245,8.5026,8.5885,8.6783,8.7095,8.7134,8.5883,8.6042,8.6352,8.7116,8.6925,8.6963,8.7804,8.8339,8.9103,9.044,9.1017,9.1865,9.3169,9.3445,9.3869,9.4676,9.5713,9.6288,9.6288,9.5942,9.5711,9.5711,9.4516,9.3897,9.3897,9.308,9.2387,9.1886,9.0224,8.9401,8.9316,8.7726,8.763,8.8779,8.8866,8.9338,9.0111,9.0188,9.0458,9.0767,9.0518,8.9832,8.8914,8.8586,8.7901,8.7138,8.7022,8.709,8.7234,8.7485,8.6858,8.5882,8.5805,8.5264,8.48,8.565,8.5948,8.5937,8.5948,8.5545,8.5053,8.4667,8.3586,8.2648,8.2677,8.2342,8.2006,8.2058,8.171,8.113,8.0367,7.985,7.8634,7.5855,7.4422,7.1977,6.7254,6.6299,6.5343,6.3362,6.5032,6.612,6.5537,6.6664,6.6407,6.3857,6.5233,0.0,6.5712,6.9811,7.2016,7.1692,7.5429,7.7701,7.8285,7.7907,7.7462,7.7004,7.7394,7.7823,7.833,7.9257,7.989,8.0367,8.1258,8.1656,8.1695,8.2131,8.2996,8.4128,8.4636,8.5573,8.6744,8.7212,8.7407,8.7446,8.618,8.6459,8.7037,8.845,8.8262,8.8186,8.8988,8.9218,8.9714,9.0822,9.0861,9.1438,9.3089,9.2748,9.2942,9.4364,9.556,9.6212,9.6058,9.5403,9.4864,9.4634,9.3249,9.2441,9.2326,9.2441,9.2556,9.2672,9.1125,9.0736,9.1462,8.9215,8.9169,9.1014,9.0558,9.0674,9.1175,9.0712,9.0943,9.1445,9.0049,8.9393,8.9131,8.8197,8.731,8.6662,8.7472,8.7348,8.7001,8.8552,8.7657,8.5921,8.6268,8.5381,8.4301,8.4764,8.513,8.539,8.5506,8.541,8.5081,8.4397,8.3596,8.3133,8.3734,8.3409,8.293,8.2638,8.2651,8.2238,8.0666,8.0304,7.8858,7.4763,7.2734,7.0137,6.5824,0.0,6.4916,6.5343,6.7829,6.9733,7.0432,7.1054,7.0626,6.8723,7.0392,7.1014,6.9927,7.365,7.5184,7.3899,7.752,7.9169,7.848,7.7623,7.7116,7.6999,7.774,7.809,7.8129,7.9021,7.9461,7.9656,8.0523,8.0977,8.1172,8.2085,8.3419,8.4824,8.4941,8.5956,8.7401,8.7401,8.7401,8.7525,8.5203,8.5452,8.5696,8.5963,8.6538,8.7307,8.8148,8.8874,9.0135,9.2427,9.2083,9.2007,9.3043,9.374,9.3935,9.3555,9.5057,9.5674,9.5061,9.502,9.4364,9.2941,9.2633,9.2172,9.1441,9.2133,9.2826,9.3518,9.2556,9.2203,9.2387,9.1231,9.0217,8.9355,9.0603,9.084,9.0416,9.1688,9.2305,9.2421,9.2178,9.1638,9.0763,8.9246,8.8135,8.7417,8.8303,8.856,8.866,8.953,8.9639,8.9046,8.704,8.623,8.5728,8.4378,8.5034,8.6345,8.6979,8.6538,8.5928,8.5837,8.5244,8.4407,8.3178,8.3966,8.4301,8.2161,8.2277,8.2509,8.1504,8.0691,7.9052,7.5576,7.3586,7.0815,6.5902,0.0,6.7829,6.647,6.9228,7.1248,7.1403,7.086,7.0937,7.2025,7.1179,7.1412,7.3307,7.5487,7.6879,7.7315,7.8752,7.9429,7.9298,7.8519,7.774,7.6999,7.7155,7.7194,7.7233,7.8085,7.8915,7.9656,8.0514,8.1304,8.2084,8.2942,8.3878,8.4854,8.5556,8.6471,8.7386,8.7386,8.7393,8.7525,8.5614,8.6203,8.679,8.7247,8.8133,8.8824,8.9163,8.9668,9.0551,9.215,9.1658,9.1472,9.2312,9.2776,9.3086,9.32,9.3973,9.4324,9.3983,9.4139,9.3906,9.3172,9.2287,9.1595,9.121,9.2056,9.2903,9.371,9.2903,9.2977,9.3859,9.1626,9.0856,9.1462,9.0817,9.1125,9.2049,9.1895,9.2126,9.2511,9.2083,9.1082,8.9855,8.9542,8.8617,8.7583,8.843,8.8771,8.8765,8.8623,8.8964,8.8958,8.6415,8.5915,8.6107,8.5298,8.5329,8.5907,8.7147,8.6813,8.6242,8.6769,8.6261,8.5599,8.541,8.5188,8.4648,8.3127,8.2741,8.247,8.1633,8.0807,7.9376,7.6947,7.3584,0.0,6.8217,6.7765,6.8047,6.9111,7.187,7.3851,7.4317,7.3967,7.3695,7.3618,7.2874,7.2967,7.4123,7.5899,7.7415,7.8703,7.971,8.0195,8.0208,7.9364,7.8753,7.8363,7.8363,7.8597,7.9026,7.896,7.9673,8.0959,8.1382,8.2055,8.2913,8.382,8.4688,8.5468,8.5859,8.657,8.736,8.7377,8.7659,8.8174,8.61,8.6989,8.7839,8.8524,8.9457,9.0035,8.9946,9.0269,9.0814,9.161,9.1043,9.0856,9.1701,9.1816,9.216,9.3038,9.3392,9.3548,9.3514,9.3523,9.3371,9.3061,9.1828,9.1175,9.121,9.1864,9.2672,9.371,9.3095,9.3441,9.4634,9.2018,9.1518,9.2749,9.0979,9.1171,9.2749,9.1672,9.1595,9.2133,9.1479,9.0441,8.9325,8.9748,8.9094,8.8055,8.8748,8.8863,8.8671,8.8363,8.8479,8.8363,8.6401,8.6209,8.6671,8.6478,8.6126,8.6191,8.7655,8.7545,8.7132,8.7853,8.7237,8.6582,8.7133,8.6223,8.492,8.3856,8.321,8.2593,8.1646,8.0589,7.9197,7.7132,0.0,7.0292,0.0,6.8739,6.9023,7.2125,7.4628,7.6415,7.7231,7.6959,7.6259,7.5172,7.4895,7.4778,7.4783,7.6449,7.8159,7.9834,8.0653,8.0971,8.0791,8.0117,7.9715,7.952,7.9481,7.9844,8.0467,7.9805,8.0467,8.2104,8.2089,8.2725,8.3777,8.4696,8.5448,8.6033,8.6189,8.6707,8.7292,8.7351,8.7759,8.8462,8.6076,8.6851,8.7513,8.7589,8.8454,8.9201,8.9201,8.9888,9.0732,9.1658,9.1004,9.077,9.1701,9.1816,9.216,9.3038,9.3841,9.4343,9.4432,9.3667,9.26,9.1145,9.1067,9.1064,9.121,9.1248,9.2095,9.371,9.3633,9.3672,9.3787,9.3518,9.2249,9.021,9.0825,9.0748,9.021,9.0902,9.1248,9.1287,9.1248,9.1133,9.0941,9.0171,8.9825,8.971,8.9787,8.9325,8.894,9.0402,8.994,8.8671,8.8479,8.844,8.8363,8.7555,8.7825,8.8594,8.9479,8.9671,8.9633,8.971,8.8546,8.7224,8.6492,8.6323,8.5583,8.3182,8.322,8.3249,8.171,8.0048,7.7871,7.4695,0.0,0.0,6.913,7.0893,7.3004,7.4906,7.6747,7.8163,7.9018,7.7658,7.6998,7.7658,7.6959,7.6531,7.6531,7.8163,7.9911,8.1659,8.1792,8.1454,8.0707,8.0713,8.0298,7.9481,7.952,7.9532,7.961,7.9532,8.0467,8.2104,8.2104,8.3039,8.4676,8.5546,8.5936,8.6092,8.6832,8.7196,8.7298,8.7309,8.732,8.7663,8.672,8.7184,8.7563,8.8094,8.9041,8.9619,8.9573,8.9931,9.0555,9.1393,9.0873,9.0961,9.2297,9.2575,9.2924,9.3764,9.4185,9.4414,9.4419,9.312,9.2136,9.1759,9.1759,9.1871,9.2018,9.2018,9.2556,9.371,9.4249,9.421,9.371,9.371,9.2903,9.1518,9.1287,9.1325,9.1518,9.1287,9.121,9.121,9.121,9.0902,9.0441,9.0633,9.0364,8.9902,8.9902,9.0056,9.0171,8.9787,8.9556,8.9248,8.8209,8.8594,8.9402,8.9056,8.994,9.0902,9.0133,8.9902,8.9902,8.9902,8.9475,8.8628,8.7242,8.6582,8.5921,8.5021,8.4674,8.4357,8.3789,8.2339,8.0628,7.8838,0.0,7.3115,7.3545,7.3548,7.4208,7.5934,7.7661,7.8864,7.9214,7.8689,7.8241,7.8008,7.8202,7.8085,7.7541,7.9173,8.0649,8.1854,8.1911,8.1753,8.1437,8.1524,8.1384,8.1034,8.0504,8.0532,8.1052,8.1052,8.1728,8.2961,8.4052,8.4871,8.5572,8.639,8.6741,8.678,8.7092,8.7222,8.7312,8.7882,8.844,8.9075,8.7175,8.7819,8.835,8.888,8.9545,9.0049,9.0266,9.0172,9.0494,9.1587,9.089,9.0943,9.2665,9.2672,9.3066,9.4135,9.4332,9.4561,9.514,9.407,9.2936,9.1836,9.2296,9.2411,9.1986,9.2254,9.2676,9.3253,9.383,9.383,9.3251,9.3251,9.2828,9.2056,9.1479,9.1518,9.2056,9.1441,9.121,9.121,9.1518,9.1095,9.0402,9.1287,9.1056,9.0325,9.0325,9.0517,9.0671,8.9787,8.9517,8.9363,8.8479,8.9171,9.0364,9.0633,9.1556,9.2172,9.071,9.0133,8.9902,8.9902,8.9517,8.8825,8.7671,8.694,8.6363,8.5889,8.5543,8.5113,8.4396,8.3143,8.1887,8.0782,7.7253,7.516,7.6676,7.5675,7.5425,7.7173,7.8476,7.9292,7.9563,7.9194,7.8862,7.8823,7.859,7.8474,7.8396,7.9523,8.0727,8.1854,8.2164,8.2144,8.1908,8.1943,8.1975,8.1975,8.1392,8.1423,8.1998,8.227,8.2908,8.3831,8.5311,8.6104,8.6416,8.6975,8.7209,8.7209,8.7209,8.7209,8.7287,8.7936,8.8533,8.9235,8.7402,8.8691,8.979,8.979,8.9887,9.0286,9.1159,9.0552,9.0637,9.2489,9.114,9.0713,9.2527,9.1994,9.2231,9.4083,9.4197,9.4967,9.6783,9.6898,9.5031,9.0911,9.2327,9.2483,9.0954,9.1721,9.2142,9.2219,9.2219,9.222,9.2295,9.2295,9.191,9.121,9.121,9.121,9.121,9.121,9.121,9.1287,9.2133,9.1979,9.1325,9.2172,9.1979,9.121,9.1248,9.0671,9.0056,9.0941,9.0094,8.8863,8.9671,9.0517,9.1402,9.2249,9.2518,9.2326,9.1479,9.0594,8.9902,8.9902,8.8632,8.7401,8.7401,8.7401,8.6901,8.5247,8.5555,8.5357,8.2879,8.1754,8.0733,7.9172,7.746,7.6635,7.7558,7.7008,7.7147,7.8889,7.9153,7.9524,8.0417,7.8999,7.8746,8.0455,7.8202,7.7503,7.9212,7.9328,8.0105,8.1854,8.2669,8.2708,8.1931,8.1908,8.1926,8.1887,8.1975,8.203,8.203,8.2925,8.3742,8.456,8.5502,8.6412,8.7191,8.7195,8.7209,8.7209,8.7209,8.7209,8.7209,8.7209,8.7209,8.7481,8.8582,8.8983,8.9146,8.9714,8.9839,9.0142,9.1014,9.0408,9.0445,9.2163,9.1529,9.1539,9.3259,9.3355,9.3669,9.482,9.499,9.5082,9.514,9.5675,9.4911,9.247,9.351,9.3938,9.3561,9.3216,9.3024,9.3063,9.3141,9.2872,9.2295,9.2407,9.1982,9.121,9.121,9.121,9.121,9.121,9.1556,9.2133,9.2402,9.2672,9.3056,9.3903,9.371,9.3018,9.3633,9.3287,9.2595,9.2864,9.1825,9.0594,9.1479,9.2287,9.3133,9.398,9.4249,9.4057,9.3172,9.1902,9.0671,9.0056,8.8632,8.7401,8.7401,8.694,8.6517,8.6632,8.6863,8.6594,8.5241,8.4381,8.3171,8.0944,7.9211,7.8026,7.7751,7.7504,7.7504,7.8046,7.8154,7.8801,8.0278,7.9486,7.933,8.0533,7.9872,7.995,8.1077,8.1116,8.1349,8.1892,8.2669,8.298,8.2747,8.2727,8.2455,8.1911,8.2473,8.2802,8.2876,8.4393,8.5188,8.5455,8.6366,8.6927,8.7191,8.7206,8.7181,8.7209,8.7209,8.7209,8.7287,8.7871,8.8105,8.8378,8.8835,8.9086,8.9222,8.9714,9.0093,9.0472,9.1003,9.0662,9.0927,9.2595,9.1849,9.2023,9.3997,9.4274,9.4513,9.5056,9.5629,9.5616,9.4822,9.5592,9.5522,9.4146,9.461,9.4658,9.4091,9.39,9.3632,9.3287,9.3023,9.2641,9.222,9.1988,9.1639,9.121,9.121,9.1402,9.171,9.1364,9.1902,9.3018,9.329,9.352,9.3826,9.4982,9.4867,9.4174,9.4403,9.4328,9.406,9.3753,9.3215,9.2793,9.406,9.4752,9.5137,9.4945,9.5175,9.5172,9.3597,9.2174,9.1171,9.0979,8.9402,8.7902,8.7902,8.7517,8.7286,8.7825,8.7902,8.744,8.5901,8.5241,8.4265,8.2082,8.0393,7.9288,7.9172,7.8307,7.7829,7.8177,7.7953,7.8486,8.0174,7.9988,7.9971,8.0572,8.061,8.0844,8.1349,8.1387,8.1698,8.2359,8.3174,8.3602,8.3602,8.3951,8.3718,8.2903,8.3019,8.331,8.3717,8.5135,8.5757,8.5793,8.6666,8.7072,8.7105,8.716,8.7137,8.7167,8.7181,8.7181,8.7298,8.8183,8.83,8.83,8.8444,8.9199,8.979,8.979,9.051,9.1117,9.1192,9.1192,9.1761,9.3391,9.2254,9.2216,9.4528,9.4793,9.4882,9.506,9.6029,9.6333,9.5456,9.6387,9.663,9.5751,9.5789,9.5064,9.3459,9.4146,9.4108,9.3306,9.2542,9.2171,9.2181,9.1452,9.1107,9.1175,9.1175,9.1598,9.229,9.1598,9.2213,9.3751,9.4522,9.4446,9.4059,9.5598,9.5713,9.4945,9.4329,9.4521,9.4868,9.4062,9.4369,9.5287,9.6903,9.7442,9.7133,9.5365,9.5483,9.5712,9.3102,9.1946,9.1633,9.2402,9.0787,8.8979,8.8825,8.8748,8.8671,8.8594,8.8556,8.7825,8.5247,8.4786,8.4279,8.2648,8.1119,8.0431,8.1258,7.9404,7.8177,7.8912,7.834,7.8518,8.0129,8.0549,8.0747,8.0786,8.0844,8.0805,8.0727,8.0766,8.1504,8.3058,8.4029,8.4534,8.4534,8.5311,8.5272,8.4379,8.3679,8.3757,8.4534,8.5428,8.5816,8.5855,8.6651,8.7019,8.698,8.7072,8.7089,8.7089,8.7176,8.723,8.7386,8.813,8.7949,8.7676,8.906,8.9528,8.979,8.979,9.051,9.1306,9.195,9.2026,9.2405,9.3467,9.3277,9.3504,9.4679,9.4793,9.5058,9.583,9.6173,9.6094,9.5409,9.679,9.7379,9.6668,9.7112,9.6998,9.6095,9.5598,9.5255,9.5064,9.496,9.4279,9.2981,9.2908,9.2181,9.0992,9.0992,9.1068,9.1299,9.1721,9.2527,9.3563,9.4368,9.4982,9.5558,9.6554,9.6861,9.6746,9.7285,9.7091,9.6554,9.571,9.6479,9.7709,9.736,9.7746,9.7978,9.6171,9.5787,9.5597,9.3677,9.3102,9.3139,9.3293,9.2521,9.1325,8.994,8.9133,8.8517,8.7825,8.7671,8.6901,8.4362,8.3862,8.3548,8.2532,8.1561,8.1041,8.1374,8.0357,7.9443,7.9067,7.8834,7.9153,8.0206,8.1674,8.2513,8.2494,8.2534,8.2281,8.1659,8.2203,8.2708,8.3097,8.4612,8.5428,8.5428,8.5622,8.5272,8.4418,8.4884,8.5233,8.5467,8.6321,8.671,8.671,8.6924,8.6982,8.7019,8.7037,8.7055,8.7089,8.7176,8.7589,8.8078,8.7649,8.778,8.8413,8.9205,8.9438,8.9743,9.0259,9.1017,9.1749,9.2254,9.2633,9.3088,9.3542,9.358,9.4073,9.5286,9.612,9.6802,9.7257,9.702,9.6375,9.5267,9.6457,9.7086,9.6807,9.7142,9.7371,9.7471,9.7432,9.7012,9.621,9.6254,9.55,9.382,9.3478,9.2448,9.0915,9.0915,9.1145,9.1567,9.1951,9.2833,9.4098,9.4901,9.5514,9.6015,9.7277,9.7465,9.7197,9.8121,9.8121,9.7695,9.7699,9.8274,9.8959,9.8921,9.9002,9.8738,9.6925,9.6163,9.5517,9.3828,9.3139,9.2949,9.2987,9.2371,9.1562,9.071,8.9248,8.794,8.7478,8.7055,8.6132,8.3978,8.4247,8.4395,8.3156,8.2301,8.2092,8.296,8.1705,8.0833,8.1298,8.0989,8.1271,8.2607,8.3235,8.3768,8.4178,8.3892,8.3485,8.3058,8.3466,8.3913,8.434,8.5233,8.5894,8.6321,8.6321,8.6088,8.5622,8.5661,8.5933,8.6321,8.6787,8.6982,8.6982,8.6982,8.7001,8.6982,8.6982,8.7001,8.7076,8.7072,8.7617,8.8339,8.8383,8.9216,9.0306,8.9173,8.9318,8.974,9.0712,9.1506,9.2125,9.238,9.3188,9.3756,9.3756,9.3756,9.4325,9.5878,9.7333,9.8166,9.8166,9.7627,9.6781,9.5528,9.6197,9.6762,9.6905,9.7057,9.7409,9.812,9.9029,9.88,9.7318,9.7318,9.656,9.5079,9.4084,9.2748,9.1259,9.1259,9.1605,9.218,9.241,9.333,9.4707,9.5466,9.5891,9.6204,9.738,9.7642,9.7489,9.8155,9.8495,9.8796,9.9419,9.9638,9.9733,10.0397,10.0021,9.9026,9.7057,9.5959,9.5052,9.3475,9.2712,9.2449,9.2642,9.2066,9.1412,9.1405,8.9671,8.7979,8.7671,8.7055,8.5978,8.417,8.4824,8.5209,8.3824,8.2925,8.2879,8.4373,8.2931,8.2179,8.3536,8.3189,8.354,8.5191,8.4713,8.4645,8.5429,8.4876,8.4432,8.4277,8.4495,8.4942,8.5641,8.5855,8.6282,8.6982,8.6982,8.6982,8.6982,8.6399,8.6515,8.7215,8.7215,8.7215,8.7215,8.7215,8.7137,8.6982,8.6982,8.6982,8.6982,8.7001,8.7641,8.8613,8.9544,9.0725,9.177,8.9173,8.9318,8.9688,9.0555,9.1401,9.2194,9.2949,9.3887,9.4432,9.4308,9.4378,9.481,9.5793,9.6204,9.6461,9.6461,9.6347,9.6513,9.7123,9.7376,9.76,9.7744,9.8372,9.8497,9.812,9.9373,9.9717,9.9037,9.9037,9.8541,9.7585,9.5981,9.4419,9.2814,9.2814,9.2432,9.1935,9.3464,9.4228,9.4496,9.5337,9.6101,9.6713,9.6178,9.7286,9.9006,9.8395,9.9083,10.023,9.9618,9.9931,10.0474,9.9809,9.9052,9.7949,9.549,9.4108,9.3272,9.2279,9.255,9.3325,9.4015,9.3715,9.3063,9.2295,9.137,9.0287,8.8825,8.844,8.7594,8.517,8.4286,8.3862,8.3632,8.2862,8.2394,8.2717,8.3102,8.3209,8.2834,8.3354,8.4143,8.5137,8.5204,8.528,8.5396,8.539,8.4987,8.425,8.4975,8.5501,8.5618,8.6418,8.6865,8.6982,8.6982,8.6982,8.702,8.7642,8.8031,8.8108,8.8108,8.8108,8.8108,8.8108,8.7681,8.6982,8.6982,8.6982,8.6982,8.7001,8.7973,8.9449,9.0383,9.0439,9.0124,8.9102,8.9157,8.9625,9.1052,9.1542,9.2258,9.3687,9.4232,9.4459,9.4404,9.4459,9.4816,9.5647,9.6285,9.7074,9.7983,9.7696,9.7446,9.74,9.7907,9.8276,9.8377,9.8807,9.9134,9.9355,10.0118,10.0319,10.0107,10.0107,9.9152,9.7432,9.6668,9.5178,9.3115,9.3115,9.3153,9.3306,9.407,9.4681,9.5102,9.5446,9.5828,9.6248,9.6783,9.7432,9.8082,9.8617,9.961,10.0527,9.9555,9.9869,10.029,9.8983,9.8342,9.7815,9.6248,9.4872,9.3726,9.3344,9.3234,9.3277,9.3705,9.3251,9.2603,9.2334,9.1333,8.9793,8.7709,8.7248,8.6786,8.5209,8.4593,8.4324,8.4324,8.317,8.2509,8.3002,8.3387,8.388,8.452,8.5024,8.5496,8.5882,8.5565,8.5539,8.6043,8.5667,8.5483,8.5599,8.6033,8.6273,8.6316,8.6726,8.6961,8.6982,8.6982,8.6982,8.6982,8.737,8.7836,8.8302,8.8769,8.873,8.8302,8.8302,8.7797,8.6982,8.6982,8.6982,8.6982,8.7001,8.774,8.9002,9.0343,9.0616,9.0478]},{"header":{"parameterUnit":"m.s-1","parameterCategory":1,"la1":30.6,"la2":28.766,"lo1":-90.7593,"lo2":-88.6598,"dy":0.0162,"dx":0.0183,"nx":116,"ny":114,"refTime":"2024-03-15T12:00:00:Z","depth":0,"parameterNumber":3,"parameterNumberName":"V-component_of_WINDS"},"data":[0.0,0.0,0.0,0.0,0.0,0.0,0.0,0.0,0.0,0.0,0.0,0.0,0.0,0.0,0.0,0.0,0.0,0.0,0.0,0.0,0.0,0.0,0.0,0.0,0.0,0.0,0.0,0.0,0.0,0.0,0.0,0.0,0.0,0.0,0.0,0.0,0.0,0.0,0.0,0.0,0.0,0.0,0.0,0.0,0.0,0.0,0.0,0.0,0.0,0.0,0.0,0.0,0.0,0.0,0.0,0.0,0.0,0.0,0.0,0.0,0.0,0.0,0.0,0.0,0.0,0.0,0.0,0.0,0.0,0.0,0.0,0.0,0.0,0.0,0.0,0.0,0.0,0.0,0.0,0.0,0.0,0.0,0.0,0.0,0.0,0.0,0.0,0.0,0.0,0.0,0.0,0.0,0.0,0.0,0.0,0.0,0.0,0.0,0.0,0.0,0.0,0.0,0.0,0.0,0.0,0.0,0.0,0.0,0.0,0.0,0.0,0.0,0.0,0.0,0.0,0.0,0.0,0.0,0.0,0.0,0.0,0.0,0.0,0.0,0.0,0.0,0.0,0.0,0.0,0.0,0.0,0.0,0.0,0.0,0.0,0.0,0.0,0.0,0.0,0.0,0.0,0.0,0.0,0.0,0.0,0.0,0.0,0.0,0.0,0.0,0.0,0.0,0.0,0.0,0.0,0.0,0.0,0.0,0.0,0.0,0.0,0.0,0.0,0.0,0.0,0.0,0.0,0.0,0.0,0.0,0.0,0.0,0.0,0.0,0.0,0.0,0.0,0.0,0.0,0.0,0.0,0.0,0.0,0.0,0.0,0.0,0.0,0.0,0.0,0.0,0.0,0.0,0.0,0.0,0.0,0.0,0.0,0.0,0.0,0.0,0.0,0.0,0.0,0.0,0.0,0.0,0.0,0.0,0.0,0.0,0.0,0.0,0.0,0.0,0.0,0.0,0.0,0.0,0.0,0.0,0.0,0.0,0.0,0.0,0.0,0.0,0.0,0.0,0.0,0.0,0.0,0.0,0.0,0.0,0.0,0.0,0.0,0.0,0.0,0.0,0.0,0.0,0.0,0.0,0.0,0.0,0.0,0.0,0.0,0.0,0.0,0.0,0.0,0.0,0.0,0.0,0.0,0.0,0.0,0.0,0.0,0.0,0.0,0.0,0.0,0.0,0.0,0.0,0.0,0.0,0.0,0.0,0.0,0.0,0.0,0.0,0.0,0.0,0.0,0.0,0.0,0.0,0.0,0.0,0.0,0.0,0.0,0.0,0.0,0.0,0.0,0.0,0.0,0.0,0.0,0.0,0.0,0.0,0.0,0.0,0.0,0.0,0.0,0.0,0.0,0.0,0.0,0.0,0.0,0.0,0.0,0.0,0.0,0.0,0.0,0.0,0.0,0.0,0.0,0.0,0.0,0.0,0.0,0.0,0.0,0.0,0.0,0.0,0.0,0.0,0.0,0.0,0.0,0.0,0.0,0.0,0.0,0.0,0.0,0.0,0.0,0.0,0.0,0.0,0.0,0.0,0.0,0.0,0.0,0.0,0.0,0.0,0.0,0.0,0.0,0.0,0.0,0.0,0.0,0.0,0.0,0.0,0.0,0.0,0.0,0.0,0.0,0.0,0.0,0.0,0.0,0.0,0.0,0.0,0.0,0.0,0.0,0.0,0.0,0.0,0.0,0.0,0.0,0.0,0.0,0.0,0.0,0.0,0.0,0.0,0.0,0.0,0.0,0.0,0.0,0.0,0.0,0.0,0.0,0.0,0.0,0.0,0.0,0.0,0.0,0.0,0.0,0.0,0.0,0.0,0.0,0.0,0.0,0.0,0.0,0.0,0.0,0.0,0.0,0.0,0.0,0.0,0.0,0.0,0.0,0.0,0.0,0.0,0.0,0.0,0.0,0.0,0.0,0.0,0.0,0.0,0.0,0.0,0.0,0.0,0.0,0.0,0.0,0.0,0.0,0.0,0.0,0.0,0.0,0.0,0.0,0.0,0.0,0.0,0.0,0.0,0.0,0.0,0.0,0.0,0.0,0.0,0.0,0.0,0.0,0.0,0.0,0.0,0.0,0.0,0.0,0.0,0.0,0.0,0.0,0.0,0.0,0.0,0.0,0.0,0.0,0.0,0.0,0.0,0.0,0.0,0.0,0.0,0.0,0.0,0.0,0.0,0.0,0.0,0.0,0.0,0.0,0.0,0.0,0.0,0.0,0.0,0.0,0.0,0.0,0.0,0.0,0.0,0.0,0.0,0.0,0.0,0.0,0.0,0.0,0.0,0.0,0.0,0.0,0.0,0.0,0.0,0.0,0.0,0.0,0.0,0.0,0.0,0.0,0.0,0.0,0.0,0.0,0.0,0.0,0.0,0.0,0.0,0.0,0.0,0.0,0.0,0.0,0.0,0.0,0.0,0.0,0.0,0.0,0.0,0.0,0.0,0.0,0.0,0.0,0.0,0.0,0.0,0.0,0.0,0.0,0.0,0.0,0.0,0.0,0.0,0.0,0.0,0.0,0.0,0.0,0.0,0.0,0.0,0.0,0.0,0.0,0.0,0.0,0.0,0.0,0.0,0.0,0.0,0.0,0.0,0.0,0.0,0.0,0.0,0.0,0.0,0.0,0.0,0.0,0.0,0.0,0.0,0.0,0.0,0.0,0.0,0.0,0.0,0.0,0.0,0.0,0.0,0.0,0.0,0.0,0.0,0.0,0.0,0.0,0.0,0.0,0.0,0.0,0.0,0.0,0.0,0.0,0.0,0.0,0.0,0.0,0.0,0.0,0.0,0.0,0.0,0.0,0.0,0.0,0.0,0.0,0.0,0.0,0.0,0.0,0.0,0.0,0.0,0.0,0.0,0.0,0.0,0.0,0.0,0.0,0.0,0.0,0.0,0.0,0.0,0.0,0.0,0.0,0.0,0.0,0.0,0.0,0.0,0.0,0.0,0.0,0.0,0.0,0.0,0.0,0.0,0.0,0.0,0.0,0.0,0.0,0.0,0.0,0.0,0.0,0.0,0.0,0.0,0.0,0.0,0.0,0.0,0.0,0.0,0.0,0.0,0.0,0.0,0.0,0.0,0.0,0.0,0.0,0.0,0.0,0.0,0.0,0.0,0.0,0.0,0.0,0.0,0.0,0.0,0.0,0.0,0.0,0.0,0.0,0.0,0.0,0.0,0.0,0.0,0.0,0.0,0.0,0.0,0.0,0.0,0.0,0.0,0.0,0.0,0.0,0.0,0.0,0.0,0.0,0.0,0.0,0.0,0.0,0.0,0.0,0.0,0.0,0.0,0.0,0.0,0.0,0.0,0.0,0.0,0.0,0.0,0.0,0.0,0.0,0.0,0.0,0.0,0.0,0.0,0.0,0.0,0.0,0.0,0.0,0.0,0.0,0.0,0.0,0.0,0.0,0.0,0.0,0.0,0.0,0.0,0.0,0.0,0.0,0.0,0.0,0.0,0.0,0.0,0.0,0.0,0.0,0.0,0.0,0.0,0.0,0.0,0.0,0.0,0.0,0.0,0.0,0.0,0.0,0.0,0.0,0.0,0.0,0.0,0.0,0.0,0.0,0.0,0.0,0.0,0.0,0.0,0.0,0.0,0.0,0.0,0.0,0.0,0.0,0.0,0.0,0.0,0.0,0.0,0.0,0.0,0.0,0.0,0.0,0.0,0.0,0.0,0.0,0.0,0.0,0.0,0.0,0.0,0.0,0.0,0.0,0.0,0.0,0.0,0.0,0.0,0.0,0.0,0.0,0.0,0.0,0.0,0.0,0.0,0.0,0.0,0.0,0.0,0.0,0.0,0.0,0.0,0.0,0.0,0.0,0.0,0.0,0.0,0.0,0.0,0.0,0.0,0.0,0.0,0.0,0.0,0.0,0.0,0.0,0.0,0.0,0.0,0.0,0.0,0.0,0.0,0.0,0.0,0.0,0.0,0.0,0.0,0.0,0.0,0.0,0.0,0.0,0.0,0.0,0.0,0.0,0.0,0.0,0.0,0.0,0.0,0.0,0.0,0.0,0.0,0.0,0.0,0.0,0.0,0.0,0.0,0.0,0.0,0.0,0.0,0.0,0.0,0.0,0.0,0.0,0.0,0.0,0.0,0.0,0.0,0.0,0.0,0.0,0.0,0.0,0.0,0.0,0.0,0.0,0.0,0.0,0.0,0.0,0.0,0.0,0.0,0.0,0.0,0.0,0.0,0.0,0.0,0.0,0.0,0.0,0.0,0.0,0.0,0.0,0.0,0.0,0.0,0.0,0.0,0.0,0.0,0.0,0.0,0.0,0.0,0.0,0.0,0.0,0.0,0.0,0.0,0.0,0.0,0.0,0.0,0.0,0.0,0.0,0.0,0.0,0.0,0.0,0.0,0.0,0.0,0.0,0.0,0.0,0.0,0.0,0.0,0.0,0.0,0.0,0.0,0.0,0.0,0.0,0.0,0.0,0.0,0.0,0.0,0.0,0.0,0.0,0.0,0.0,0.0,0.0,0.0,0.0,0.0,0.0,0.0,0.0,0.0,0.0,0.0,0.0,0.0,0.0,0.0,0.0,0.0,0.0,0.0,0.0,0.0,0.0,0.0,0.0,0.0,0.0,0.0,0.0,0.0,0.0,0.0,0.0,0.0,0.0,0.0,0.0,0.0,0.0,0.0,0.0,0.0,0.0,0.0,0.0,0.0,0.0,0.0,0.0,0.0,0.0,0.0,0.0,0.0,0.0,0.0,0.0,0.0,0.0,0.0,0.0,0.0,0.0,0.0,0.0,0.0,0.0,0.0,0.0,0.0,0.0,0.0,0.0,0.0,0.0,0.0,0.0,0.0,0.0,0.0,0.0,0.0,0.0,0.0,0.0,0.0,0.0,0.0,0.0,0.0,0.0,0.0,0.0,0.0,0.0,0.0,0.0,0.0,0.0,0.0,0.0,0.0,0.0,0.0,0.0,0.0,0.0,0.0,0.0,0.0,0.0,0.0,0.0,0.0,0.0,0.0,0.0,0.0,0.0,0.0,0.0,0.0,0.0,0.0,0.0,0.0,0.0,0.0,0.0,0.0,0.0,0.0,0.0,0.0,0.0,0.0,0.0,0.0,0.0,0.0,0.0,0.0,0.0,0.0,0.0,0.0,0.0,0.0,0.0,0.0,0.0,0.0,0.0,0.0,0.0,0.0,0.0,0.0,0.0,0.0,0.0,0.0,0.0,0.0,0.0,0.0,0.0,0.0,0.0,0.0,0.0,0.0,0.0,0.0,0.0,0.0,0.0,0.0,0.0,0.0,0.0,0.0,0.0,0.0,0.0,0.0,0.0,0.0,0.0,0.0,0.0,0.0,0.0,0.0,0.0,0.0,0.0,0.0,0.0,0.0,0.0,0.0,0.0,0.0,0.0,0.0,0.0,0.0,0.0,0.0,0.0,0.0,0.0,0.0,0.0,0.0,0.0,0.0,0.0,0.0,0.0,0.0,0.0,0.0,0.0,0.0,0.0,0.0,0.0,0.0,0.0,0.0,0.0,0.0,0.0,0.0,0.0,0.0,0.0,0.0,0.0,0.0,0.0,0.0,0.0,0.0,0.0,0.0,0.0,0.0,0.0,0.0,0.0,0.0,0.0,0.0,0.0,0.0,0.0,0.0,0.0,0.0,0.0,0.0,0.0,0.0,0.0,0.0,0.0,0.0,0.0,0.0,0.0,0.0,0.0,0.0,0.0,0.0,0.0,0.0,0.0,0.0,0.0,0.0,0.0,0.0,0.0,0.0,0.0,0.0,0.0,0.0,0.0,0.0,0.0,0.0,0.0,0.0,0.0,0.0,0.0,0.0,0.0,0.0,0.0,0.0,0.0,0.0,0.0,0.0,0.0,0.0,0.0,0.0,0.0,0.0,0.0,0.0,0.0,0.0,0.0,0.0,0.0,0.0,0.0,0.0,0.0,0.0,0.0,0.0,0.0,0.0,0.0,0.0,0.0,0.0,0.0,0.0,0.0,0.0,0.0,0.0,0.0,0.0,0.0,0.0,0.0,0.0,0.0,0.0,0.0,0.0,0.0,0.0,0.0,0.0,0.0,0.0,0.0,0.0,0.0,0.0,0.0,0.0,0.0,0.0,0.0,0.0,-0.5382,0.0,0.0,0.0,0.0,0.0,0.0,0.0,0.0,0.0,0.0,0.0,0.0,0.0,0.0,0.0,0.0,0.0,0.0,0.0,0.0,0.0,0.0,0.0,0.0,0.0,0.0,0.0,0.0,0.0,0.0,0.0,0.0,0.0,0.0,0.0,0.0,0.0,0.1179,0.1096,0.1254,0.1405,0.1635,0.1543,0.0,0.0,0.0,0.0,0.0,0.0,0.0,0.0,0.0,0.0,0.0,0.0,0.0,0.0,0.0,0.0,0.0,0.0,0.0,0.0,0.0,0.0,0.0,0.0,0.0,0.0,0.0,0.0,0.0,0.0,0.0,0.0,0.0,0.0,0.0,0.0,0.0,0.0,0.0,0.0,0.0,0.0,0.0,0.0,0.0,0.0,0.0,0.0,0.0,0.0,0.0,0.0,0.0,0.0,0.0,0.0,0.0,0.0,0.0,0.0,0.0,0.0,0.0,0.0,0.0,0.0,0.0,0.0,0.0,0.0,0.0,0.0,0.0,-0.5904,0.0,0.0,0.0,0.0,0.0,0.0,0.0,0.0,0.0,0.0,0.0,0.0,0.0,0.0,0.0,0.0,0.0,0.0,0.0,0.0,0.0,0.0,0.0,0.2455,0.2712,0.3057,0.2304,0.1664,0.1456,0.1466,0.1537,0.1402,0.1348,0.1315,0.1305,0.1359,0.125,0.1186,0.131,0.1687,0.2072,0.1915,0.0,0.0,0.0,0.0,0.0,0.0,0.0,0.0,0.0,0.0,0.0,0.0,0.0,0.0,0.0,0.0,0.0,0.0,0.0,0.0,0.0,0.0,0.0,0.0,0.0,0.0,0.0,0.0,0.0,0.0,0.0,0.0,0.0,0.0,0.0,0.0,0.0,0.0,0.0,0.0,0.0,0.0,0.0,0.0,0.0,0.0,0.0,0.0,0.0,0.0,0.0,0.0,0.0,0.0,0.0,0.0,0.0,0.0,0.0,0.0,0.0,0.0,0.0,0.0,0.0,0.0,-0.6366,-0.6498,-0.637,-0.6651,-0.6762,-0.6643,-0.6562,-0.6677,-0.6947,-0.6832,0.0,0.0,0.0,0.0,0.0,0.0,0.0,0.0,0.0,0.0,0.0,0.0,0.0,0.0,0.0,0.0,0.0,0.0,0.0,0.0,0.0,0.2347,0.2268,0.2544,0.2946,0.2712,0.1647,0.1891,0.1866,0.1384,0.137,0.1259,0.1292,0.1395,0.1428,0.147,0.1794,0.2062,0.2153,0.2161,0.2205,0.2176,0.1965,0.0,0.0,0.0,0.0,0.0,0.0,0.0,0.0,0.0,0.0,0.0,0.0,0.0,0.0,0.0,0.0,0.0,0.0,0.0,0.0,0.0,0.0,0.0,0.0,0.0,0.0,0.0,0.0,0.0,0.0,0.0,0.0,0.0,0.0,0.0,0.0,0.0,0.0,0.0,0.0,0.0,0.0,0.0,-0.3808,-0.4806,0.0,0.0,0.0,0.0,0.0,0.0,0.0,0.0,0.0,0.0,0.0,0.0,0.0,-0.5841,-0.5998,-0.6725,-0.6962,-0.6831,-0.7076,-0.717,-0.7125,-0.7199,-0.7329,-0.7509,-0.7607,0.0,-0.6873,-0.6706,0.0,0.0,0.0,0.0,0.0,0.0,0.0,0.0,0.0,0.0,0.0,0.0,0.0,0.0,0.0,0.0,0.0,0.0,0.0,0.0,0.0,0.2579,0.2809,0.3106,0.3297,0.3011,0.2343,0.2371,0.2206,0.1745,0.1632,0.1531,0.1606,0.1573,0.1589,0.1643,0.1984,0.2241,0.2271,0.2236,0.2146,0.2142,0.2158,0.2047,0.1824,0.1703,0.0,0.0,0.0,0.0,0.0,0.0,0.0,0.0,0.0,0.0,0.0,0.0,0.0,0.0,0.0,0.0,0.0,0.0,0.0,0.0,0.0,0.0,0.0,0.0,0.0,0.0,0.0,0.0,0.0,0.0,0.0,0.0,0.0,0.0,0.0,0.0,0.0,0.0,0.0,-0.3494,-0.3871,-0.4487,-0.4329,-0.4319,0.0,0.0,0.0,0.0,0.0,0.0,0.0,0.0,0.0,-0.5172,-0.5454,-0.5873,-0.6131,-0.6769,-0.703,-0.7049,-0.7529,-0.7803,-0.7864,-0.7905,-0.8019,-0.8199,-0.8281,-0.8134,-0.7807,-0.737,-0.7181,-0.689,0.0,0.0,0.0,0.0,-0.6241,-0.6215,0.0,0.0,0.0,0.0,0.0,0.0,0.0,0.0,0.0,0.0,0.0,0.0,0.2455,0.2825,0.3188,0.3524,0.3372,0.3148,0.294,0.2682,0.246,0.2057,0.1823,0.1809,0.1839,0.1704,0.1684,0.1909,0.2228,0.2463,0.2328,0.2409,0.2294,0.2279,0.2273,0.2177,0.2014,0.1877,0.1763,0.0,0.0,0.0,0.0,0.0,0.0,0.0,0.0,0.0,0.0,0.0,0.0,0.0,0.0,0.0,0.0,0.0,0.0,0.0,0.0,0.0,0.0,0.0,0.0,0.0,0.0,0.0,0.0,0.0,0.0,0.0,0.0,0.0,0.0,0.0,0.0,0.0,0.0,-0.3665,-0.3921,-0.4337,-0.4318,-0.4435,0.0,0.0,0.0,0.0,0.0,0.0,-0.4667,-0.4872,-0.5066,-0.5399,-0.5528,-0.578,-0.6156,-0.6738,-0.7009,-0.7124,-0.7715,-0.8007,-0.8152,-0.8152,-0.8246,-0.8414,-0.8391,-0.8561,-0.8513,-0.806,-0.7627,-0.7321,-0.6892,-0.6656,-0.6545,-0.6455,-0.6394,-0.6374,0.0,0.0,0.0,0.0,0.0,0.0,0.0,0.0,0.0,0.0,0.0,0.2666,0.297,0.2943,0.2943,0.325,0.3403,0.3265,0.2972,0.2948,0.2778,0.2288,0.2011,0.1789,0.1791,0.1795,0.1911,0.2095,0.2637,0.271,0.2286,0.2854,0.2881,0.2373,0.2431,0.2387,0.2262,0.208,0.1986,0.1939,0.0,0.0,0.0,0.0,0.0,0.0,0.0,0.0,0.0,0.0,0.0,0.0,0.0,0.0,0.0,0.0,0.0,0.0,0.0,0.0,0.0,0.0,0.0,0.0,0.0,0.0,0.0,0.0,0.0,0.0,0.0,0.0,0.0,0.0,0.0,0.0,0.0,0.0,0.0,-0.4873,-0.4766,0.0,0.0,0.0,0.0,-0.4577,-0.4881,-0.5002,-0.4891,-0.5125,-0.5311,-0.5436,-0.6076,-0.632,-0.6323,-0.6812,-0.7245,-0.7255,-0.733,-0.7405,-0.7476,-0.7476,-0.7561,-0.7701,-0.8196,-0.8353,-0.8308,-0.8257,-0.7962,-0.7607,-0.7243,-0.699,-0.6823,-0.6737,-0.6754,-0.6798,0.0,0.0,0.0,0.0,0.0,0.0,0.0,0.0,0.2093,0.2247,0.2613,0.2918,0.3071,0.3281,0.3561,0.3674,0.3886,0.3857,0.3569,0.3365,0.3229,0.3186,0.2674,0.2519,0.2711,0.2699,0.2903,0.31,0.3237,0.3304,0.3158,0.311,0.3142,0.2962,0.2675,0.2659,0.2909,0.239,0.2125,0.2048,0.1876,0.1745,0.0,0.0,0.0,0.0,0.0,0.0,0.0,0.0,0.0,0.0,0.0,0.0,0.0,0.0,0.0,0.0,0.0,0.0,0.0,0.0,0.0,0.0,0.0,0.0,0.0,0.0,0.0,0.0,0.0,0.0,0.0,0.0,0.0,0.0,0.0,0.0,0.0,-0.4519,-0.4684,0.0,-0.4554,-0.4629,-0.4733,-0.4698,-0.4957,-0.5224,-0.5324,-0.5455,-0.5616,-0.5815,-0.6047,-0.6086,-0.6123,-0.6773,-0.703,-0.7074,-0.7532,-0.7582,-0.7796,-0.7749,-0.7755,-0.78,-0.7865,-0.7999,-0.8349,-0.7805,-0.7849,-0.806,-0.7701,-0.7448,-0.7276,-0.7186,-0.7137,-0.7117,0.0,0.0,0.0,0.0,0.0,0.0,0.0,0.0,0.206,0.2362,0.2756,0.3057,0.3286,0.3624,0.3899,0.4079,0.4169,0.4139,0.3962,0.3703,0.3556,0.3556,0.3173,0.2999,0.3215,0.3379,0.3552,0.3741,0.3865,0.3916,0.3747,0.352,0.3388,0.3215,0.2908,0.29,0.3185,0.2847,0.2705,0.258,0.2287,0.2162,0.2055,0.0,0.0,0.0,0.0,0.0,0.0,0.0,0.0,0.0,0.0,0.0,0.0,0.0,0.0,0.0,0.0,0.0,0.0,0.0,0.0,0.0,0.0,0.0,0.0,0.0,0.0,0.0,0.0,0.0,0.0,0.0,0.0,0.0,0.0,0.0,-0.424,-0.4477,-0.4519,-0.4577,-0.4564,-0.4657,-0.4782,-0.4927,-0.5123,-0.5357,-0.5635,-0.5766,-0.5916,-0.6098,-0.6164,-0.6202,-0.6221,-0.6676,-0.6716,-0.6931,-0.7199,-0.7424,-0.7399,-0.7352,-0.7317,-0.7289,-0.7365,-0.7681,-0.8211,-0.7788,-0.7941,-0.8432,-0.7737,-0.7534,-0.7412,-0.711,-0.7041,-0.7018,0.0,0.0,0.0,0.0,0.0,0.0,0.0,0.2048,0.233,0.2792,0.299,0.3147,0.3627,0.3845,0.4027,0.4204,0.4218,0.4194,0.4131,0.3842,0.3624,0.3512,0.3243,0.3238,0.3506,0.356,0.3746,0.3931,0.4342,0.4365,0.4001,0.3931,0.3783,0.3419,0.3294,0.327,0.32,0.3638,0.3676,0.3496,0.3038,0.2766,0.2512,0.0,0.0,0.0,0.0,0.0,0.0,0.0,0.0,0.0,0.0,0.0,0.0,0.0,0.0,0.0,0.0,0.0,0.0,0.0,0.0,0.0,0.0,0.0,0.0,0.0,0.0,0.0,0.0,0.0,0.0,0.0,0.0,0.0,-0.4033,-0.3952,-0.4179,-0.4673,-0.4583,-0.452,-0.472,-0.4965,-0.5106,-0.5286,-0.5414,-0.5591,-0.5831,-0.6066,-0.6224,-0.6292,-0.6461,-0.6526,-0.6472,-0.6529,-0.6526,-0.6469,-0.6531,-0.6526,-0.6463,-0.6463,-0.6431,-0.6368,-0.6892,-0.7216,-0.7718,-0.7867,-0.8274,-0.8525,-0.7302,-0.7177,-0.7492,-0.6755,-0.6394,-0.6584,0.0,0.0,0.0,0.0,0.0,0.0,0.0,0.2116,0.2296,0.2579,0.2897,0.3289,0.364,0.3995,0.4229,0.4278,0.4283,0.4237,0.4134,0.3804,0.3657,0.3755,0.4109,0.4308,0.4458,0.4565,0.4706,0.4892,0.5045,0.5053,0.4918,0.4617,0.4294,0.4283,0.3997,0.4005,0.4314,0.4503,0.456,0.4655,0.3658,0.3365,0.3255,0.0,0.0,0.0,0.0,0.0,0.0,0.0,0.0,0.0,0.0,0.0,0.0,0.0,0.0,0.0,0.0,0.0,0.0,0.0,0.0,0.0,0.0,0.0,0.0,0.0,0.0,0.0,0.0,0.0,0.0,0.0,-0.3111,-0.3606,-0.4213,-0.4201,-0.4433,-0.5038,-0.4829,-0.4717,-0.5175,-0.524,-0.5324,-0.5417,-0.5616,-0.5839,-0.6079,-0.6194,-0.6363,-0.6597,-0.657,-0.6586,-0.6654,-0.667,-0.6649,-0.6589,-0.6695,-0.6668,-0.6526,-0.6526,-0.6469,-0.6365,-0.6454,-0.6785,-0.7144,-0.7175,-0.7466,-0.7778,-0.7585,-0.7402,-0.751,-0.6933,-0.6724,-0.6673,0.0,0.0,0.0,0.0,0.0,0.0,0.0,0.2136,0.2343,0.2657,0.3052,0.3439,0.379,0.4093,0.427,0.427,0.427,0.4196,0.4025,0.3842,0.3842,0.4076,0.0,0.4749,0.5041,0.5079,0.5199,0.5403,0.5346,0.5346,0.5406,0.4922,0.4762,0.4765,0.4453,0.4453,0.4777,0.4957,0.5211,0.521,0.4564,0.4093,0.3785,0.3377,0.301,0.2796,0.2415,0.2097,0.1928,0.1492,0.0,0.0,0.0,0.0,0.0,0.0,0.0,0.0,0.0,0.0,0.0,0.0,0.0,0.0,0.0,0.0,0.0,0.0,0.0,0.0,0.0,0.0,0.0,0.0,-0.3119,-0.348,-0.4199,-0.4024,-0.3988,-0.4605,-0.4498,-0.4537,-0.4729,-0.5245,-0.5298,-0.5056,-0.5583,-0.5779,-0.5794,-0.6143,-0.6521,-0.6719,-0.6736,-0.6771,-0.6839,-0.6815,-0.6771,-0.6711,-0.6733,-0.6676,-0.6551,-0.6526,-0.6461,-0.6365,-0.6294,-0.6626,-0.696,-0.688,-0.7207,0.0,0.0,0.0,0.0,0.0,-0.6366,-0.6463,0.0,0.0,0.0,0.0,0.0,0.0,0.0,0.2232,0.2493,0.2905,0.3224,0.3567,0.397,0.4142,0.4224,0.4218,0.4215,0.412,0.3894,0.3948,0.4123,0.4417,0.4619,0.488,0.5215,0.5237,0.5354,0.5581,0.5523,0.5529,0.5591,0.5112,0.4958,0.4958,0.4958,0.4934,0.4891,0.5364,0.5477,0.5414,0.5422,0.5076,0.449,0.394,0.36,0.3118,0.2939,0.2537,0.2178,0.2084,0.0,0.0,0.0,0.0,0.0,0.0,0.0,0.0,0.0,0.0,0.0,0.0,0.0,0.0,0.0,0.0,0.0,0.0,0.0,0.0,0.0,0.0,0.0,0.0,-0.3063,-0.3415,-0.3783,-0.3455,-0.3295,-0.3864,-0.4079,-0.4119,-0.416,-0.5006,-0.5227,-0.4493,-0.5335,-0.5855,-0.5454,0.0,0.0,0.0,0.0,-0.6989,-0.6989,-0.6943,-0.688,-0.6807,-0.6711,-0.6627,-0.6551,-0.6502,-0.6447,-0.639,-0.6376,-0.651,-0.6997,-0.6982,-0.7128,-0.7429,-0.6907,-0.6629,-0.6371,-0.5889,-0.5808,-0.6097,0.0,0.0,0.0,0.0,0.0,0.0,0.0,0.2319,0.2537,0.291,0.3224,0.3534,0.3858,0.4131,0.427,0.4221,0.4215,0.4155,0.4011,0.415,0.4349,0.4602,0.4924,0.5177,0.5346,0.5442,0.5561,0.5706,0.5646,0.5673,0.5777,0.5562,0.5546,0.5546,0.5546,0.5565,0.5599,0.5769,0.57,0.5602,0.5651,0.5463,0.4987,0.4643,0.4108,0.3564,0.3186,0.2679,0.2331,0.2243,0.1732,0.1008,0.0242,0.0113,0.0,0.0,0.0,0.0,0.0,0.0,0.0,0.0,0.0,0.0,0.0,0.0,0.0,0.0,0.0,0.0,0.0,0.0,0.0,-0.2393,-0.2546,-0.2698,-0.2833,-0.2868,-0.3044,-0.3871,-0.3739,-0.3767,-0.4631,-0.491,-0.5206,-0.5511,-0.5897,-0.6114,-0.5723,-0.6236,-0.6571,-0.6288,-0.6716,-0.6927,-0.6927,-0.6962,-0.6902,-0.6744,0.0,0.0,-0.6553,-0.6586,-0.657,-0.6512,-0.6414,-0.6384,-0.66,-0.6889,-0.7003,-0.7125,-0.6795,-0.6328,-0.6081,-0.5823,-0.5758,-0.5875,0.0,0.0,0.0,0.0,0.0,0.0,0.0,0.2371,0.2583,0.2916,0.3196,0.3469,0.3739,0.3929,0.4014,0.3951,0.3948,0.3984,0.4074,0.4305,0.4575,0.4875,0.5177,0.5409,0.5559,0.5591,0.5679,0.5831,0.5771,0.5788,0.5878,0.5845,0.5831,0.5831,0.5831,0.5848,0.5878,0.5878,0.5826,0.5744,0.5774,0.564,0.542,0.5193,0.4786,0.4214,0.3644,0.3249,0.2711,0.232,0.2091,0.1738,0.128,0.0734,0.0,0.0,0.0,0.0,0.0,0.0,0.0,0.0,0.0,0.0,0.0,0.0,0.0,0.0,0.0,-0.2587,-0.2412,0.0,-0.2305,-0.2427,-0.2548,-0.2657,-0.2748,-0.2774,-0.2945,-0.3425,-0.3454,-0.3484,-0.3855,-0.4289,-0.457,-0.4502,-0.5067,-0.5432,-0.4941,-0.5499,-0.6043,-0.6122,-0.6367,-0.6835,-0.7085,-0.709,-0.7027,-0.6908,-0.6908,-0.6815,-0.6638,-0.6608,-0.6594,-0.6589,-0.6499,-0.6461,-0.6452,-0.6525,-0.6652,-0.6615,-0.6519,-0.6235,-0.5957,-0.5867,-0.5812,-0.5777,0.0,0.0,0.0,0.0,0.0,0.0,0.0,0.2403,0.2613,0.2905,0.3142,0.3373,0.3602,0.3692,0.3719,0.3681,0.3711,0.3853,0.4142,0.4452,0.4777,0.5115,0.5373,0.5583,0.5739,0.5717,0.5782,0.594,0.5902,0.5913,0.5976,0.5987,0.5987,0.5976,0.5976,0.5967,0.5957,0.5946,0.5905,0.5848,0.5823,0.5755,0.5654,0.5537,0.5282,0.4705,0.4072,0.3613,0.3024,0.2475,0.2259,0.2195,0.2248,0.1423,0.0252,-0.0939,-0.1369,0.0,0.0,0.0,0.0,0.0,0.0,0.0,0.0,-0.2204,-0.2326,-0.2373,-0.2457,-0.2541,-0.26,-0.2455,-0.2448,-0.2583,-0.2675,-0.2752,-0.2819,-0.2834,-0.2829,-0.2804,-0.3175,-0.3378,-0.305,-0.382,-0.39,-0.3446,-0.4352,-0.4669,-0.4135,-0.4704,-0.5454,-0.57,-0.5991,-0.6277,-0.6778,-0.6969,-0.6922,-0.6869,-0.7,-0.6878,-0.6725,-0.6654,-0.6627,-0.6632,-0.6589,-0.6521,-0.6436,-0.6338,-0.6289,-0.6273,-0.6213,-0.6123,-0.6016,-0.5907,-0.5858,-0.5842,0.0,0.0,0.0,0.0,0.0,0.0,0.0,0.0,0.26,0.285,0.3044,0.3232,0.3422,0.3542,0.3627,0.3673,0.3826,0.4025,0.427,0.4619,0.4929,0.5183,0.5474,0.5665,0.5739,0.5839,0.5929,0.6003,0.6046,0.6098,0.6161,0.6215,0.621,0.6158,0.6737,0.6513,0.6074,0.6585,0.634,0.5902,0.5796,0.5744,0.5717,0.5597,0.534,0.4765,0.4157,0.3685,0.3064,0.2506,0.2289,0.2234,0.2333,0.2163,0.1723,0.0506,-0.0364,-0.093,-0.0896,-0.1351,-0.1851,-0.1939,-0.1964,-0.2022,0.0,-0.25,-0.2598,-0.2413,-0.2607,-0.2784,-0.2499,-0.2433,-0.2522,-0.259,-0.2656,-0.2728,-0.2816,-0.2852,-0.2868,-0.2864,-0.2867,-0.3049,-0.3409,-0.3684,-0.3982,-0.4491,-0.4753,-0.469,-0.4282,-0.471,-0.4969,-0.4644,-0.5063,-0.5289,-0.5336,-0.6039,-0.6257,-0.6203,-0.6903,-0.7,-0.673,-0.6826,-0.6782,-0.6635,-0.663,-0.6534,-0.6379,-0.6365,-0.633,-0.6273,-0.6213,-0.6147,-0.6082,-0.6016,-0.5959,-0.591,0.0,0.0,0.0,0.0,0.0,0.0,0.0,0.0,0.0,0.2747,0.2894,0.3027,0.3136,0.3256,0.3338,0.3362,0.3692,0.3984,0.4188,0.467,0.5055,0.5297,0.5529,0.5711,0.5845,0.5897,0.597,0.6063,0.6123,0.6145,0.6136,0.6234,0.6229,0.6136,0.6328,0.6314,0.609,0.6185,0.6151,0.5965,0.5842,0.5771,0.5725,0.557,0.5261,0.4969,0.421,0.3739,0.0,0.2451,0.2253,0.2219,0.2225,0.2181,0.2117,0.116,0.0251,-0.0369,-0.037,-0.111,-0.1876,-0.1995,-0.1923,-0.1975,-0.2341,-0.2506,-0.251,-0.2382,-0.2561,-0.2594,-0.2477,-0.2542,-0.2617,-0.2695,-0.2758,-0.2823,-0.2896,-0.2917,-0.2924,-0.2924,-0.2941,-0.2943,-0.3291,-0.3346,-0.3424,-0.3723,-0.3802,-0.3903,-0.3822,-0.4066,-0.4328,-0.4396,-0.465,-0.4905,-0.5393,-0.5667,-0.5877,-0.625,-0.6016,-0.6347,-0.6779,-0.6374,-0.6323,-0.6635,-0.66,-0.6545,-0.6466,-0.6322,-0.627,-0.627,-0.6175,-0.612,-0.6087,-0.5995,-0.5921,-0.5869,0.0,0.0,0.0,0.0,0.0,0.0,0.0,0.0,0.0,0.0,0.2785,0.2877,0.2951,0.3052,0.3123,0.3139,0.355,0.3899,0.4112,0.464,0.5071,0.5346,0.5545,0.5728,0.5894,0.5946,0.6006,0.6074,0.615,0.6166,0.6125,0.6232,0.6224,0.6123,0.6314,0.6297,0.6068,0.6151,0.6123,0.5954,0.5831,0.5744,0.567,0.5474,0.5278,0.4929,0.4192,0.3737,0.3424,0.2475,0.2168,0.2165,0.2178,0.2148,0.2105,0.1431,0.0643,0.0,0.0,-0.0656,-0.1473,-0.1978,-0.1921,-0.1825,-0.2429,-0.2462,-0.2488,-0.2466,-0.2478,-0.2507,-0.2552,-0.2608,-0.2677,-0.2769,-0.2834,-0.2894,-0.2953,-0.2961,-0.2961,-0.2961,-0.2973,-0.298,-0.2975,-0.3009,-0.3066,-0.3149,-0.3223,-0.3296,-0.3375,-0.342,-0.3682,-0.4168,-0.4214,-0.4485,-0.4995,-0.5243,-0.545,-0.5831,-0.5575,-0.5915,-0.639,-0.6108,-0.6063,-0.6449,-0.6567,-0.6518,-0.6488,-0.6311,-0.6264,-0.6294,-0.6188,-0.6128,-0.6085,-0.5965,-0.5894,-0.5853,0.0,0.0,0.0,0.0,0.0,0.0,0.0,0.0,0.0,0.0,0.0,0.0,0.0,0.3014,0.3076,0.3134,0.3474,0.3809,0.4106,0.4526,0.4924,0.5281,0.5523,0.5709,0.5831,0.6003,0.6068,0.6016,0.6131,0.6188,0.6188,0.6251,0.6245,0.6185,0.6767,0.6699,0.6011,0.6505,0.6256,0.5826,0.5706,0.5619,0.554,0.53,0.5063,0.4691,0.3836,0.3563,0.3269,0.2288,0.2022,0.2063,0.2034,0.2064,0.2109,0.1449,0.0652,0.0,0.0,-0.0,-0.0281,-0.1569,-0.1636,-0.1862,-0.2541,-0.2716,-0.2556,-0.2556,-0.2556,-0.2557,-0.2559,-0.2608,-0.2677,-0.2769,-0.2834,-0.2894,-0.2953,-0.2961,-0.2961,-0.2961,-0.2936,-0.2942,-0.2999,-0.3059,-0.312,-0.3182,-0.3215,-0.3284,-0.3404,-0.3412,-0.3453,-0.354,-0.352,-0.3549,-0.3636,-0.4285,-0.4488,-0.4488,-0.5607,-0.5949,-0.5113,-0.565,-0.584,-0.5878,-0.6336,-0.6431,-0.6376,-0.6368,-0.6365,-0.6363,-0.6297,-0.6202,-0.6085,-0.5965,-0.5921,-0.591,0.0,0.0,0.0,0.0,0.0,0.0,0.0,0.0,0.0,0.0,0.0,0.0,0.0,0.0,0.0,0.0,0.3493,0.3771,0.3989,0.4477,0.488,0.5161,0.5442,0.5646,0.5769,0.5869,0.5932,0.5954,0.6033,0.6074,0.6074,0.6175,0.6185,0.6125,0.628,0.6241,0.6003,0.5999,0.5909,0.57,0.5583,0.545,0.5311,0.5188,0.4768,0.4147,0.0,0.3269,0.3048,0.2164,0.1913,0.1951,0.1981,0.21,0.1846,0.0753,0.0253,0.0,0.0,0.0,-0.0146,-0.0458,-0.0639,-0.0992,-0.2318,-0.2814,-0.2637,-0.2598,-0.2238,-0.2065,-0.2582,-0.2622,-0.2684,-0.2795,-0.2881,-0.2953,-0.3013,-0.3039,-0.3037,-0.2996,-0.3018,-0.3036,-0.3037,-0.3037,-0.308,-0.318,-0.3234,-0.3305,-0.3407,-0.3431,-0.3465,-0.3516,-0.3544,-0.3576,-0.3604,-0.384,-0.405,-0.4449,-0.5252,-0.5158,-0.4437,-0.5039,-0.5399,-0.5726,-0.5439,-0.559,-0.5764,-0.5461,-0.544,-0.5658,-0.5564,-0.5674,-0.5973,-0.5891,-0.5861,-0.5853,0.0,0.0,0.0,0.0,0.0,0.0,0.0,0.0,0.0,0.0,0.0,0.0,0.0,0.0,0.0,0.0,0.0,0.3681,0.3839,0.4278,0.4646,0.4907,0.5147,0.533,0.545,0.5512,0.5594,0.5698,0.576,0.5831,0.5918,0.5995,0.6008,0.5967,0.5932,0.5905,0.5872,0.5695,0.5605,0.5572,0.5387,0.5232,0.5087,0.4897,0.4485,0.0,0.3247,0.2881,0.27,0.2,0.1786,0.1844,0.1883,0.1921,0.1838,0.0377,0.0,0.0,0.0,0.0,0.0,0.0,0.0,-0.0345,-0.1537,-0.2038,-0.2352,-0.2619,-0.207,-0.1726,-0.239,-0.2562,-0.262,-0.2785,-0.269,-0.2581,-0.3054,-0.3076,-0.3071,-0.3043,-0.3065,-0.3082,-0.3084,-0.3077,-0.3112,-0.3212,-0.3265,-0.3332,-0.3423,-0.3446,-0.3476,-0.3516,-0.3555,-0.358,-0.3589,-0.3611,-0.3815,-0.441,-0.4757,-0.4682,-0.4417,-0.5031,-0.537,-0.5448,-0.518,-0.5149,-0.5337,-0.4836,-0.481,-0.5216,-0.4941,-0.5244,-0.5362,-0.5488,-0.5442,-0.5586,0.0,0.0,0.0,0.0,0.0,0.0,0.0,0.0,0.0,0.0,0.0,0.0,0.0,0.0,0.0,0.0,0.0,0.0,0.3665,0.3951,0.4248,0.4548,0.4681,0.4807,0.4929,0.4984,0.5098,0.5275,0.5333,0.548,0.5703,0.5709,0.5711,0.5717,0.5711,0.5679,0.5624,0.5556,0.5491,0.5409,0.5115,0.4959,0.4861,0.4461,0.4094,0.3558,0.3025,0.2555,0.2161,0.1719,0.1662,0.1761,0.1651,0.1784,0.1686,0.0395,0.0,0.0,0.0,0.0,0.0,0.0,0.0,0.0,0.0,-0.0689,-0.1524,-0.2453,-0.1895,-0.1385,-0.2151,-0.2439,-0.25,-0.2565,-0.1929,-0.1807,-0.2881,-0.3074,-0.3067,-0.3095,-0.3077,-0.3084,-0.314,-0.3174,-0.3217,-0.3276,-0.3306,-0.336,-0.345,-0.346,-0.3487,-0.354,-0.3549,-0.3562,-0.3594,-0.3587,-0.3777,-0.437,-0.4331,-0.4485,-0.4826,-0.5408,-0.5333,-0.4831,-0.5138,-0.5098,-0.4704,-0.4657,-0.4637,-0.4633,-0.4583,-0.4512,-0.4617,-0.4933,-0.5036,-0.4958,0.0,0.0,0.0,0.0,0.0,0.0,0.0,0.0,0.0,0.0,0.0,0.0,0.0,0.0,0.0,0.0,0.0,0.0,0.36,0.3853,0.4109,0.4365,0.4575,0.4744,0.4867,0.4883,0.4935,0.5027,0.5044,0.5104,0.5204,0.5251,0.5322,0.5403,0.5313,0.5289,0.5308,0.5158,0.5008,0.4861,0.4736,0.46,0.4455,0.4349,0.3888,0.3176,0.2947,0.2455,0.1792,0.1806,0.18,0.1798,0.1319,0.1501,0.1585,0.041,0.0,0.0,0.0,0.0,0.0,0.0,0.0,0.0,0.0,-0.017,-0.0333,-0.0633,-0.0459,-0.0596,-0.1157,-0.1924,-0.2318,-0.1804,-0.1558,-0.164,-0.1922,-0.2721,-0.3114,-0.3099,-0.3149,-0.3183,-0.3178,-0.3223,-0.3279,-0.3339,-0.3329,-0.3351,-0.342,-0.3486,-0.3531,-0.3544,-0.3589,-0.3614,-0.3625,-0.3558,-0.3506,-0.3685,-0.3627,-0.3554,-0.3671,-0.3867,-0.4009,-0.4106,-0.3893,-0.3885,-0.4072,-0.3623,-0.3597,-0.397,-0.39,-0.4026,-0.434,-0.4868,-0.5025,-0.4998,0.0,0.0,0.0,0.0,0.0,0.0,0.0,0.0,0.0,0.0,0.0,0.0,0.0,0.0,0.0,0.0,0.0,0.0,0.0,0.3711,0.3902,0.4065,0.4199,0.4316,0.4412,0.4387,0.4442,0.458,0.458,0.4665,0.4826,0.4858,0.508,0.5173,0.51,0.5075,0.5072,0.479,0.4665,0.0,0.0,0.4278,0.4177,0.4071,0.3651,0.3007,0.2885,0.2385,0.1787,0.1834,0.1906,0.1737,0.1019,0.0929,0.0834,0.0145,0.0,0.0,0.0,0.0,0.0,0.0,0.0,0.0,0.0,0.0,0.0,0.0,0.0,-0.0142,-0.0825,-0.1563,-0.1952,-0.1288,-0.1025,-0.1088,-0.2125,-0.274,-0.3146,-0.3156,-0.3201,-0.3231,-0.3227,-0.3257,-0.33,-0.3362,-0.3351,-0.3373,-0.3448,-0.3509,-0.3551,-0.3565,-0.3596,-0.3607,-0.3596,-0.3534,-0.348,-0.3437,-0.3614,-0.3747,-0.3635,-0.3836,-0.3968,-0.3846,0.0,-0.3444,-0.3412,-0.3188,-0.3165,-0.3332,-0.328,-0.3428,-0.3768,-0.4463,-0.4631,-0.4446,0.0,0.0,0.0,0.0,0.0,0.0,0.0,0.0,0.0,0.0,0.0,0.0,0.0,0.0,0.0,0.0,0.0,0.0,0.0,0.0,0.3684,0.3755,0.3875,0.3909,0.3858,0.3911,0.3867,0.409,0.4082,0.4215,0.448,0.4488,0.4664,0.5012,0.4715,0.4687,0.492,0.4577,0.4373,0.4297,0.4085,0.3995,0.3965,0.0,0.0,0.3079,0.2777,0.2302,0.1926,0.1973,0.1876,0.1655,0.1074,0.0424,0.0,0.0,0.0,0.0,0.0,0.0,0.0,0.0,0.0,0.0,0.0,0.0,0.0,0.0,0.0,-0.0136,-0.0788,-0.1357,-0.1737,-0.1277,-0.0505,-0.0716,-0.2526,-0.2946,-0.2968,-0.3024,-0.3034,-0.3249,-0.3273,-0.3276,-0.33,-0.3362,-0.3366,-0.3404,-0.3491,-0.3527,-0.3562,-0.3594,-0.3594,-0.3576,-0.3544,-0.3509,-0.3463,-0.3405,-0.3816,-0.4159,-0.3822,-0.4421,-0.4339,-0.3815,-0.381,-0.3394,-0.2966,-0.2958,-0.2939,-0.2913,-0.2885,-0.2874,-0.305,-0.3909,-0.3894,-0.371,0.0,0.0,0.0,0.0,0.0,0.0,0.0,0.0,0.0,0.0,0.2978,0.3,0.0,0.0,0.0,0.0,0.0,0.0,0.0,0.0,0.0,0.3689,0.3925,0.398,0.3858,0.3986,0.4001,0.3907,0.3856,0.3883,0.3984,0.4036,0.409,0.4142,0.4095,0.4095,0.4125,0.4068,0.3978,0.3875,0.3831,0.3785,0.373,0.3638,0.0,0.0,0.2496,0.2112,0.1876,0.2005,0.2132,0.2108,0.1158,0.0451,0.0,0.0,0.0,0.0,0.0,0.0,0.0,0.0,0.0,0.0,0.0,0.0,0.0,0.0,0.0,-0.0,-0.0126,-0.1189,-0.1851,-0.1715,-0.0663,-0.0177,-0.0582,-0.1178,-0.178,-0.1815,-0.2645,-0.3272,-0.3275,-0.3276,-0.33,-0.3362,-0.3366,-0.3396,-0.3461,-0.3516,-0.3569,-0.3625,-0.3604,-0.3576,-0.3544,-0.3467,-0.341,-0.3373,-0.3298,-0.3427,-0.3355,-0.3328,-0.3289,-0.3242,-0.3214,0.0,-0.2995,-0.2945,-0.292,-0.2913,-0.2885,-0.2874,-0.3052,-0.3582,-0.358,-0.357,0.0,0.0,0.0,0.0,0.0,0.0,0.0,0.2861,0.3016,0.3294,0.3332,0.3308,0.3243,0.3262,0.3264,0.0,0.0,0.0,0.0,0.0,0.0,0.0,0.0,0.0,0.3717,0.3776,0.3774,0.3719,0.0,0.3706,0.3766,0.3796,0.3959,0.4137,0.3987,0.3973,0.4088,0.3939,0.3758,0.3676,0.3676,0.3657,0.3627,0.0,0.0,0.0,0.2455,0.2103,0.1899,0.197,0.2127,0.2168,0.1825,0.0946,0.0,0.0,0.0,0.0,0.0,0.0,0.0,0.0,0.0,0.0,0.0,0.0,0.0,0.0,0.0,0.0,0.0,-0.1161,-0.2086,-0.1929,-0.0793,-0.0342,-0.1505,-0.1143,-0.1161,-0.2213,-0.1826,-0.1831,-0.2236,-0.2859,-0.3302,-0.3362,-0.3381,-0.341,-0.3454,-0.3499,-0.3551,-0.3611,-0.3538,-0.3506,-0.3524,-0.3418,-0.3358,-0.3341,-0.3266,-0.32,-0.3142,-0.3111,-0.3073,-0.3026,-0.2996,-0.2975,-0.2954,-0.2896,-0.2881,-0.289,-0.2844,-0.2846,-0.2872,-0.339,-0.3394,-0.3225,0.0,0.0,0.0,0.0,0.0,0.0,0.0,0.2992,0.3169,0.3591,0.3676,0.3632,0.3455,0.3414,0.3357,0.0,0.0,0.0,0.0,0.0,0.0,0.0,0.0,0.0,0.0,0.0,0.0,0.3589,0.3575,0.0,0.0,0.0,0.0,0.0,0.3847,0.3819,0.4002,0.3774,0.3632,0.0,0.0,0.3589,0.0,0.0,0.0,0.0,0.0,0.2237,0.1915,0.1941,0.2084,0.2281,0.245,0.1443,0.0165,0.0,0.0,0.0,0.0,0.0,0.0,0.0,0.0,0.0,0.0,0.0,0.0,0.0,0.0,0.0,0.0,-0.114,-0.2172,-0.1997,-0.0915,-0.0661,-0.2187,-0.1485,-0.1141,-0.2403,-0.1009,-0.0404,-0.1212,-0.2241,-0.2888,-0.2933,-0.3179,-0.3427,-0.3465,-0.3495,-0.3531,-0.3569,-0.3474,-0.3445,-0.3493,-0.3371,-0.3314,-0.332,-0.3246,-0.3187,-0.3141,-0.3104,-0.3062,-0.3014,-0.2977,-0.2947,-0.2921,-0.2863,-0.2852,-0.287,-0.2822,-0.2831,-0.2871,-0.3201,-0.3208,-0.287,0.0,0.0,0.0,0.0,0.0,0.0,0.0,0.3098,0.3357,0.3779,0.379,0.3774,0.3807,0.3711,0.3556,0.0,0.0,0.0,0.0,0.0,0.0,0.0,0.0,0.0,0.0,0.0,0.0,0.3589,0.3531,0.0,0.0,0.0,0.0,0.0,0.0,0.36,0.3709,0.3597,0.0,0.0,0.0,0.0,0.0,0.0,0.0,0.0,0.0,0.2406,0.1865,0.1974,0.2061,0.2148,0.2417,0.1837,0.098,0.0165,0.0,0.0,0.0,0.0,0.0,0.0,0.0,0.0,0.0,0.0,0.0,0.0,0.0,0.0,0.0,-0.113,-0.1999,-0.216,-0.0914,-0.0,-0.018,-0.1871,-0.2312,-0.0596,-0.0201,-0.0,-0.0202,-0.1019,-0.1646,-0.1661,-0.2745,-0.3437,-0.3495,-0.3524,-0.3531,-0.3509,-0.3474,-0.3456,-0.3461,-0.334,-0.3294,-0.332,-0.3205,-0.3148,-0.3141,-0.3082,-0.3054,-0.3044,-0.2987,-0.296,0.0,-0.2894,-0.2871,-0.2874,-0.2868,-0.287,-0.2874,-0.2871,-0.2871,-0.287,0.0,0.0,0.0,0.0,0.0,0.0,0.297,0.3106,0.3354,0.385,0.3894,0.3899,0.3959,0.3858,0.3662,0.3349,0.0,0.0,0.0,0.0,0.0,0.0,0.0,0.0,0.0,0.0,0.393,0.3643,0.3882,0.0,0.0,0.0,0.0,0.0,0.0,0.3589,0.3589,0.3589,0.0,0.0,0.0,0.0,0.0,0.0,0.0,0.0,0.0,0.0,0.1844,0.1874,0.196,0.2067,0.2133,0.1838,0.1055,0.0317,0.0,0.0,0.0,0.0,0.0,0.0,0.0,0.0,0.0,0.0,0.0,0.0,-0.06,-0.083,-0.0119,-0.1096,-0.2033,-0.2176,-0.1703,-0.1357,-0.1667,-0.2434,-0.2717,-0.2104,-0.0784,0.0,0.0,-0.0411,-0.0833,-0.1486,-0.2783,-0.3234,-0.2605,-0.3035,-0.3476,-0.3502,-0.3438,-0.342,-0.3457,-0.3336,-0.3291,-0.332,-0.3219,-0.317,-0.3168,-0.3107,-0.308,-0.3076,-0.3016,-0.2979,0.0,-0.2898,-0.2874,-0.2872,-0.2853,-0.2857,-0.2874,-0.2874,-0.2874,-0.2872,0.0,0.0,0.0,0.0,0.0,0.2534,0.3003,0.3117,0.3349,0.3856,0.3894,0.3918,0.4046,0.3894,0.3684,0.3447,0.3401,0.0,0.0,0.0,0.0,0.0,0.0,0.0,0.0,0.0,0.4005,0.3679,0.3972,0.4085,0.0,0.0,0.399,0.4036,0.0,0.0,0.0,0.0,0.0,0.0,0.0,0.0,0.0,0.0,0.0,0.0,0.0,0.0,0.0,0.0,0.0,0.1982,0.2004,0.1822,0.138,0.0909,0.0319,0.0,0.0,0.0,0.0,0.0,0.0,0.0,0.0,0.0,0.0,0.0,-0.0941,-0.1511,-0.0706,-0.1318,-0.1978,-0.221,-0.217,-0.2164,-0.2064,-0.2492,-0.2968,-0.3173,-0.1344,0.0,0.0,0.0,-0.0211,-0.1071,-0.1934,-0.2365,-0.193,-0.2557,-0.2998,-0.3487,-0.3427,-0.3414,-0.3457,-0.3354,-0.3309,-0.332,-0.3239,-0.3191,-0.3174,-0.3122,-0.3093,-0.3081,-0.302,-0.2981,0.0,-0.2898,-0.2874,-0.2872,-0.2851,-0.2855,-0.2875,-0.2883,-0.2886,-0.2887,0.0,0.0,0.0,0.0,0.0,0.0,0.3003,0.3153,0.3382,0.3807,0.3755,0.3793,0.4093,0.3804,0.3613,0.367,0.3458,0.0,0.0,0.0,0.0,0.0,0.0,0.0,0.0,0.0,0.3957,0.3679,0.3739,0.3855,0.4141,0.3793,0.376,0.4036,0.0,0.0,0.0,0.0,0.0,0.0,0.0,0.0,0.0,0.0,0.0,0.0,0.0,0.0,0.0,0.0,0.0,0.0,0.0,0.2051,0.2165,0.2483,0.1244,0.0,0.0,0.0,0.0,0.0,0.0,0.0,0.0,0.0,0.0,0.0,-0.0943,-0.1768,-0.1768,-0.1815,-0.1996,-0.2187,-0.2055,-0.1477,-0.0161,-0.1692,-0.284,-0.2992,-0.1138,0.0,0.0,0.0,-0.0,-0.0,-0.0,-0.0637,-0.1686,-0.1684,-0.2333,-0.3456,-0.3457,-0.3456,-0.3457,-0.3396,-0.3351,-0.3321,-0.3258,-0.32,-0.3142,-0.3111,-0.3081,-0.305,-0.2988,-0.2961,0.0,-0.2898,-0.2874,-0.2874,-0.2874,-0.2874,-0.2878,-0.2905,-0.2916,-0.292,0.0,0.0,0.0,0.0,0.0,0.0,0.0,0.2967,0.3166,0.351,0.3521,0.3578,0.3796,0.3608,0.3491,0.3548,0.345,0.0,0.0,0.0,0.0,0.0,0.0,0.0,0.0,0.0,0.4325,0.4154,0.4463,0.4609,0.4584,0.4248,0.4053,0.4104,0.372,0.3589,0.0,0.0,0.0,0.0,0.0,0.0,0.3621,0.0,0.0,0.0,0.0,0.0,0.0,0.0,0.0,0.0,0.0,0.0,0.0,0.1051,0.0423,0.0,0.0,0.0,0.0,0.0,0.0,0.0,0.0,0.0,0.0,0.0,-0.0351,-0.0825,-0.1768,-0.1918,-0.188,-0.2191,-0.2401,-0.2357,-0.1592,-0.2374,-0.2848,-0.2938,-0.1183,0.0,0.0,0.0,0.0,0.0,0.0,-0.0211,-0.0632,-0.0631,-0.0635,-0.107,-0.1927,-0.2355,-0.2141,-0.2945,-0.333,-0.3321,-0.326,-0.321,-0.3172,-0.3142,-0.3112,-0.308,-0.3018,-0.2992,-0.2987,-0.2927,-0.2915,-0.2931,-0.2911,-0.2915,-0.2935,-0.2943,-0.2947,-0.2949,0.0,0.0,0.0,0.0,0.0,0.0,0.0,0.285,0.3011,0.3245,0.3316,0.342,0.3621,0.3485,0.3428,0.3553,0.3471,0.0,0.0,0.0,0.0,0.0,0.0,0.0,0.0,0.4258,0.4493,0.4498,0.4567,0.4602,0.4726,0.4416,0.4181,0.3908,0.3776,0.3619,0.0,0.0,0.0,0.0,0.0,0.0,0.3556,0.0,0.0,0.0,0.0,0.0,0.0,0.0,0.0,0.0,0.0,0.0,0.0,0.0,0.0,0.0,0.0,0.0,0.0,0.0,0.0,0.0,0.0,0.0,-0.0121,-0.0576,-0.0345,-0.0232,-0.1058,-0.156,-0.1876,-0.2163,-0.2495,-0.2595,-0.2343,-0.2504,-0.2833,-0.2799,-0.1205,0.0,0.0,0.0,0.0,0.0,0.0,0.0,0.0,0.0,0.0,0.0,-0.0641,-0.1071,-0.1071,-0.2112,-0.2925,-0.3321,-0.327,-0.322,-0.3171,-0.3152,-0.312,-0.3078,-0.3028,-0.3006,0.0,-0.2953,-0.2945,-0.296,-0.2941,-0.2945,-0.2962,-0.2975,-0.2986,-0.2995,0.0,0.0,0.0,0.0,0.0,0.0,0.0,0.279,0.2907,0.3116,0.3142,0.3305,0.3531,0.3409,0.3403,0.364,0.0,0.0,0.0,0.0,0.0,0.0,0.0,0.0,0.0,0.3993,0.4242,0.4438,0.4139,0.4305,0.4573,0.4243,0.3984,0.3706,0.3749,0.3668,0.0,0.0,0.0,0.0,0.3521,0.3496,0.0,0.0,0.0,0.0,0.0,0.0,0.0,0.0,0.0,0.0,0.0,0.0,0.0,0.0,0.0,0.0,0.0,0.0,0.0,0.0,0.0,0.0,0.0,0.0,0.0,-0.1464,-0.0896,-0.0113,-0.0,-0.0967,-0.1861,-0.2157,-0.2241,-0.2236,-0.2138,-0.2286,-0.2473,-0.2735,-0.1012,0.0,0.0,0.0,0.0,0.0,0.0,0.0,0.0,0.0,0.0,0.0,0.0,0.0,0.0,-0.1069,-0.211,-0.3321,-0.3288,-0.3227,-0.3142,-0.3142,-0.311,0.0,-0.302,-0.3009,-0.3007,-0.2975,-0.2964,-0.2968,-0.2965,-0.2966,-0.2971,-0.2999,-0.3029,-0.3055,0.0,0.0,0.0,0.0,0.0,0.0,0.0,0.0,0.0,0.0,0.3019,0.3131,0.3234,0.3207,0.3262,0.0,0.0,0.0,0.0,0.0,0.0,0.0,0.0,0.0,0.0,0.4038,0.4288,0.4438,0.4485,0.4619,0.4849,0.4411,0.4153,0.3946,0.3823,0.3668,0.0,0.0,0.0,0.0,0.3521,0.3496,0.0,0.0,0.0,0.0,0.2192,0.1989,0.0,0.0,0.0,0.0,0.0,0.0,0.0,0.0,0.0,0.0,0.0,0.0,0.0,0.0,0.0,0.0,0.0,0.0,-0.0109,-0.033,-0.0881,-0.1121,-0.0119,-0.1076,-0.197,-0.2026,-0.2091,-0.2171,-0.217,-0.1204,-0.0569,-0.0622,-0.0212,0.0,0.0,0.0,0.0,0.0,0.0,0.0,0.0,0.0,0.0,0.0,0.0,0.0,0.0,-0.1052,-0.2084,-0.332,-0.3266,-0.3206,-0.3142,-0.3142,-0.311,-0.3051,-0.302,-0.302,-0.3037,-0.2983,-0.2988,-0.3028,-0.3005,-0.301,-0.3032,-0.3039,-0.3061,-0.3086,0.0,0.0,0.0,0.0,0.0,0.0,0.0,0.0,0.0,0.0,0.0,0.0,0.0,0.0,0.0,0.0,0.0,0.0,0.0,0.0,0.0,0.0,0.0,0.0,0.3586,0.3908,0.4288,0.4857,0.4788,0.4948,0.5218,0.4801,0.4395,0.4025,0.376,0.0,0.0,0.0,0.0,0.0,0.3482,0.0,0.0,0.0,0.0,0.0,0.2023,0.1842,0.0,0.1711,0.1745,0.1771,0.0,0.0,0.0,0.0,0.0,0.0,0.0,0.0,0.0,0.0,0.0,0.0,0.0,0.0,0.0,0.0,-0.0548,-0.0892,-0.0827,-0.0965,-0.1122,-0.107,-0.1111,-0.1475,-0.213,-0.0905,0.0,0.0,0.0,0.0,0.0,0.0,0.0,0.0,0.0,0.0,0.0,0.0,0.0,0.0,0.0,0.0,0.0,-0.0626,-0.1657,-0.33,-0.3254,-0.3208,-0.3163,-0.3149,-0.3118,-0.3071,-0.304,-0.3037,-0.305,-0.3017,-0.3022,-0.3051,-0.3035,-0.3037,-0.3052,-0.3052,-0.308,-0.3116,0.0,0.0,0.0,0.0,0.0,0.0,0.0,0.0,0.0,0.0,0.0,0.0,0.0,0.0,0.0,0.0,0.0,0.0,0.0,0.0,0.0,0.0,0.0,0.354,0.36,0.3659,0.4157,0.5025,0.4835,0.4986,0.5374,0.52,0.4626,0.4008,0.3673,0.3531,0.0,0.0,0.0,0.348,0.3422,0.0,0.0,0.0,0.0,0.0,0.0,0.0,0.0,0.1711,0.1749,0.1664,0.1775,0.0,0.0,0.0,0.0,0.0,0.0,0.0,0.0,0.0,0.0,0.0,0.0,0.0,0.0,0.0,0.0,-0.0332,-0.1292,-0.0736,0.0,0.0,0.0,-0.0454,-0.1743,-0.0753,0.0,0.0,0.0,0.0,0.0,0.0,0.0,0.0,0.0,0.0,0.0,0.0,0.0,0.0,0.0,0.0,0.0,0.0,-0.0824,-0.2657,-0.2832,-0.3004,-0.2975,-0.2951,-0.2924,-0.2896,0.0,0.0,-0.2862,-0.3052,-0.3052,-0.2862,-0.2862,-0.2862,-0.3052,-0.3058,-0.3095,-0.314,0.0,0.0,0.0,0.0,0.0,0.0,0.0,0.0,0.0,0.0,0.0,0.0,0.0,0.0,0.0,0.0,0.0,0.0,0.0,0.0,0.0,0.0,0.3578,0.3602,0.3662,0.3725,0.3942,0.4088,0.4423,0.4594,0.4614,0.4836,0.4493,0.3954,0.3744,0.3542,0.3362,0.0,0.0,0.342,0.336,0.0,0.0,0.0,0.0,0.0,0.0,0.0,0.0,0.1625,0.1658,0.1577,0.1157,0.0,0.0,0.0,0.0,0.0,0.0,0.0,0.0,0.0,0.0,0.0,0.0,0.0,0.0,0.0,0.0,-0.0108,-0.0241,-0.0123,0.0,0.0,0.0,-0.0,-0.0358,-0.0189,0.0,0.0,0.0,0.0,0.0,0.0,0.0,0.0,0.0,0.0,0.0,0.0,0.0,0.0,0.0,0.0,0.0,0.0,-0.0203,-0.0405,-0.1392,-0.1766,-0.1749,-0.1747,-0.1736,-0.172,0.0,-0.1716,-0.1907,-0.2671,-0.2671,-0.2098,-0.1907,-0.2288,-0.3055,-0.3081,-0.3112,-0.3142,0.0,0.0,0.0,0.0,0.0,0.0,0.0,0.0,0.0,0.0,0.0,0.0,0.0,0.0,0.0,0.0,0.0,0.0,0.0,0.0,0.0,0.3681,0.3654,0.3665,0.3725,0.382,0.408,0.44,0.4681,0.4852,0.4915,0.4721,0.4354,0.3984,0.3706,0.3518,0.3412,0.3349,0.3338,0.336,0.0,0.0,0.0,0.0,0.0,0.0,0.0,0.0,0.0,0.0,0.1635,0.1681,0.1339,0.0,0.0,0.0,0.0,0.0,0.0,0.0,0.0,0.0,0.0,0.0,0.0,0.0,0.0,0.0,0.0,0.0,0.0,0.0,0.0,0.0,0.0,0.0,0.0,0.0,0.0,0.0,0.0,0.0,0.0,0.0,0.0,0.0,0.0,0.0,0.0,0.0,0.0,0.0,0.0,0.0,0.0,0.0,0.0,-0.0,-0.0401,-0.0796,-0.0792,-0.0788,-0.0784,-0.0781,0.0,-0.0773,-0.0769,-0.116,-0.1926,-0.2673,-0.2509,-0.2318,-0.2312,-0.2933,-0.3145,-0.3142,0.0,0.0,0.0,0.0,0.0,0.0,0.0,0.0,0.0,0.0,0.0,0.0,0.0,0.0,0.0,0.0,0.0,0.0,0.0,0.0,0.3529,0.3698,0.3673,0.3719,0.385,0.3943,0.4229,0.4729,0.4947,0.5107,0.5212,0.4608,0.4224,0.4022,0.3703,0.3521,0.345,0.336,0.3313,0.33,0.0,0.0,0.0,0.0,0.0,0.0,0.0,0.0,0.0,0.0,0.0,0.0,0.0,0.0,0.0,0.0103,0.0,0.0,0.0,0.0,0.0,0.0,0.0,0.0,0.0,0.0,0.0,0.0,0.0,0.0,0.0,0.0,0.0,0.0,0.0,0.0,0.0,0.0,0.0,0.0,0.0,0.0,0.0,0.0,0.0,0.0,0.0,0.0,0.0,0.0,0.0,0.0,0.0,0.0,0.0,0.0,0.0,0.0,0.0,0.0,0.0,0.0,0.0,0.0,0.0,0.0,0.0,0.0,-0.1165,-0.3058,-0.3119,-0.2738,-0.214,-0.2765,-0.2961,-0.274,0.0,0.0,0.0,0.0,0.0,0.0,0.0,0.0,0.0,0.0,0.0,0.0,0.0,0.0,0.0,0.0,0.0,0.0,0.0,0.0,0.339,0.351,0.3567,0.3752,0.4093,0.4109,0.4204,0.4392,0.4627,0.4777,0.4834,0.4531,0.4264,0.4027,0.3834,0.3594,0.3332,0.3324,0.3289,0.3237,0.3237,0.0,0.0,0.0,0.0,0.0,0.0,0.0,0.0,0.0,0.0,0.0,0.0,0.0,0.1251,0.0311,0.0,0.0,0.0,0.0,0.0,0.0,0.0,0.0,0.0,0.0,0.0,0.0,0.0,0.0,0.0,0.0,0.0,0.0,0.0,0.0,0.0,0.0,0.0,0.0,0.0,0.0,0.0,0.0,0.0,0.0,0.0,0.0,0.0,0.0,0.0,0.0,0.0,0.0,0.0,0.0,0.0,0.0,0.0,0.0,0.0,0.0,0.0,0.0,0.0,0.0,0.0,0.0,-0.1165,-0.3249,-0.3119,-0.3141,-0.314,-0.3145,-0.254,-0.155,0.0,0.0,0.0,0.0,0.0,0.0,0.0,0.0,0.0,0.0,0.0,0.0,0.0,0.0,0.0,0.0,0.0,0.0,0.0,0.0,0.3352,0.3545,0.361,0.3744,0.3956,0.4106,0.4327,0.4621,0.4788,0.482,0.4728,0.4425,0.4196,0.4022,0.373,0.3556,0.348,0.3368,0.333,0.3338,0.3262,0.3194,0.0,0.0,0.0,0.0,0.0,0.0,0.0,0.0,0.1554,0.1609,0.1564,0.1626,0.1492,0.0722,0.0306,0.0,0.0,0.0,0.0,0.0,0.0,0.0,0.0,0.0,0.0,0.0,0.0,0.0,0.0,0.0,0.0,0.0,0.0,0.0,0.0,0.0,0.0,0.0,0.0,0.0,0.0,0.0,0.0,0.0,0.0,0.0,0.0,0.0,0.0,0.0,0.0,0.0,0.0,0.0,0.0,0.0,0.0,0.0,0.0,0.0,0.0,-0.0,-0.1399,-0.1988,-0.1971,-0.1979,-0.1966,-0.2334,-0.2957,-0.3183,-0.2997,-0.1787,-0.1772,-0.2342,0.0,0.0,0.0,0.0,0.0,0.0,0.0,0.0,0.0,0.0,0.0,0.0,0.0,0.0,0.0,0.0,0.0,0.0,0.3169,0.3191,0.3283,0.3466,0.355,0.3679,0.3856,0.4057,0.4319,0.4643,0.4801,0.4785,0.4602,0.436,0.418,0.4052,0.3766,0.3651,0.3662,0.3501,0.3425,0.3403,0.33,0.3234,0.0,0.0,0.0,0.0,0.0,0.0,0.0,0.0,0.1525,0.1595,0.1551,0.1622,0.1603,0.0927,0.0409,0.0103,0.0405,0.0208,0.0,0.0,0.0,0.0,0.0,0.0,0.0,0.0,0.0,0.0,0.0,0.0,0.0,0.0,0.0,0.0,0.0,0.0,0.0,0.0,0.0,0.0,0.0,0.0,0.0,0.0,0.0,0.0,0.0,0.0,0.0,0.0,0.0,0.0,0.0,0.0,0.0,0.0,0.0,0.0,0.0,0.0,0.0,-0.0,-0.1621,-0.262,-0.3189,-0.3198,-0.2791,-0.218,-0.2984,-0.3201,-0.3016,-0.1198,-0.1188,-0.1961,0.0,0.0,0.0,0.0,0.0,0.0,0.0,0.0,0.0,0.0,0.0,0.0,0.0,0.0,0.0,0.0,0.0,0.0,0.3144,0.3104,0.3166,0.3229,0.3349,0.3553,0.385,0.3973,0.4153,0.4398,0.4638,0.466,0.4477,0.436,0.424,0.4117,0.4003,0.3918,0.385,0.373,0.3575,0.3409,0.3346,0.3322,0.3308,0.0,0.0,0.0,0.0,0.0,0.0,0.0,0.1546,0.1581,0.1641,0.1662,0.1454,0.0935,0.0421,0.0212,0.1326,0.083,0.0,0.0,0.0,0.0,0.0,0.0,0.0,0.0,0.0,0.0,0.0,0.0,0.0,0.0,0.0,0.0,0.0,0.0,0.0,0.0,0.0,0.0,0.0,0.0,0.0,0.0,0.0,0.0,0.0,0.0,0.0,0.0,0.0,0.0,0.0,0.0,0.0,0.0,0.0,0.0,0.0,0.0,0.0,0.0,0.0,-0.1216,-0.3191,-0.3221,-0.3234,-0.323,-0.32,-0.3189,-0.2989,-0.1992,-0.099,-0.0,0.0,0.0,0.0,0.0,0.0,0.0,0.0,0.0,0.0,0.0,0.0,0.0,0.0,0.0,0.0,0.0,0.0,0.0,0.2984,0.3003,0.3076,0.3224,0.3384,0.3512,0.3602,0.3807,0.4071,0.4398,0.4553,0.4491,0.4232,0.424,0.4134,0.394,0.3989,0.3929,0.3788,0.3668,0.3559,0.3463,0.3362,0.3322,0.3313,0.0,0.0,0.0,0.0,0.0,0.0,0.0,0.0,0.0,0.1568,0.1624,0.1684,0.1437,0.0716,0.0102,0.0392,0.0806,0.116,0.152,0.119,0.0917,0.0983,0.0428,0.0,0.0,0.0,0.0,0.0,0.0,0.0,0.0,0.0,0.0,0.0,0.0,0.0,0.0,0.0,0.0,0.0,0.0,0.0,0.0,0.0,0.0,0.0,0.0,0.0,0.0,0.0,0.0,0.0,0.0,0.0,0.0,0.0,0.0,0.0,0.0,0.0,0.0,0.0,-0.0814,-0.2214,-0.2826,-0.3209,-0.3172,-0.3205,-0.3206,-0.2987,-0.1977,-0.1378,-0.1176,0.0,0.0,0.0,0.0,0.0,0.0,0.0,0.0,0.0,0.0,0.3506,0.3364,0.0,0.0,0.0,0.0,0.0,0.0,0.0,0.2981,0.3076,0.3259,0.3392,0.3507,0.3602,0.3842,0.4025,0.4147,0.4289,0.4232,0.3986,0.4145,0.4128,0.3973,0.4139,0.4101,0.3902,0.3782,0.3638,0.3491,0.342,0.3376,0.3352,0.0,0.0,0.0,0.0,0.0,0.0,0.0,0.0,0.0,0.1546,0.1585,0.1632,0.1721,0.1112,0.0403,0.04,0.0931,0.1522,0.1847,0.1885,0.1782,0.1786,0.0916,0.0,0.0,0.0,0.0,0.0,0.0,0.0,0.0,0.0,0.0,0.0,0.0,0.0,0.0,0.0,0.0,0.0,0.0,0.0,0.0,0.0,0.0,0.0,0.0,0.0,0.0,0.0,0.0,0.0,0.0,0.0,0.0,0.0,0.0,0.0,0.0,0.0,0.0,0.0,-0.0609,-0.1616,-0.283,-0.3212,-0.3182,-0.3217,-0.3221,-0.3204,-0.2389,-0.1981,-0.1577,0.0,0.0,0.3046,0.3273,0.0,0.0,0.0,0.0,0.0,0.0,0.3419,0.3575,0.0,0.0,0.0,0.0,0.0,0.0,0.0,0.0,0.3139,0.3322,0.3409,0.3556,0.3782,0.3981,0.3973,0.3744,0.3929,0.3929,0.3768,0.4068,0.4177,0.4128,0.4362,0.433,0.4093,0.3965,0.3744,0.348,0.348,0.345,0.3398,0.3335,0.0,0.0,0.0,0.0,0.0,0.0,0.0,0.0,0.1558,0.1546,0.1534,0.169,0.1509,0.1117,0.1052,0.109,0.1261,0.1639,0.2013,0.243,0.2669,0.1468,0.0166,0.0166,0.0,0.0,0.0,0.0,0.0,0.0,0.0,0.0,0.0,0.0,0.0,0.0,0.0,0.0,0.0,0.0,0.0,0.0,0.0,0.0,0.0,0.0,0.0,0.0,0.0,0.0,0.0,0.0,0.0,0.0,0.0,0.0,0.0,0.0,0.0,0.0,0.0,-0.0606,-0.1616,-0.2628,-0.3231,-0.3227,-0.3231,-0.3232,-0.323,-0.323,-0.2608,-0.1789,0.0,0.0,0.3603,0.3707,0.0,0.0,0.0,0.0,0.0,0.0,0.0,0.0,0.0,0.0,0.0,0.0,0.0,0.0,0.0,0.0,0.3202,0.3384,0.3632,0.3809,0.391,0.382,0.3703,0.3556,0.3785,0.3828,0.3703,0.4006,0.4112,0.4063,0.4259,0.4185,0.3907,0.3736,0.3545,0.336,0.336,0.3352,0.3335,0.3273,0.3163,0.0,0.0,0.0,0.0,0.0,0.0,0.0,0.1525,0.1515,0.1498,0.1631,0.1465,0.129,0.1626,0.1696,0.1808,0.2139,0.2258,0.2473,0.257,0.2309,0.1845,0.1173,0.0503,0.0,0.0,0.0,0.0,0.0,0.0,0.0,0.0,0.0,0.0,0.0,0.0,0.0,0.0,0.0,0.0,0.0,0.0,0.0,0.0,0.0,0.0,0.0,0.0,0.0,0.0,0.0,0.0,0.0,0.0,0.0,0.0,0.0,0.0,0.0,0.0,-0.0202,-0.0404,-0.2424,-0.3219,-0.32,-0.3223,-0.3217,-0.3198,-0.3198,-0.298,-0.2754,0.0,0.0,0.0,0.0,0.0,0.0,0.0,0.0,0.0,0.0,0.0,0.0,0.0,0.0,0.0,0.0,0.0,0.0,0.0,0.0,0.3319,0.3531,0.3798,0.3905,0.3823,0.3755,0.3621,0.3412,0.357,0.3627,0.3597,0.3899,0.4052,0.4085,0.424,0.4142,0.385,0.3698,0.3529,0.3365,0.3365,0.3346,0.3313,0.3253,0.3196,0.3136,0.2569,0.0,0.0,0.0,0.0,0.0,0.0,0.0,0.1452,0.1525,0.1452,0.1381,0.1816,0.1913,0.2042,0.2328,0.2409,0.2572,0.2631,0.2669,0.2524,0.2018,0.1683,0.101,0.0168,0.0,0.0344,0.1223,0.1421,0.1086,0.0185,0.0372,0.0561,0.0,0.0,0.0,0.0,0.0,0.0369,0.1307,0.056,0.0,0.0,0.0,0.0,0.0,0.0,0.0,0.0,0.0,0.0,0.0,0.0,0.0,0.0,0.0,0.0,0.0,0.0,0.0,-0.0,-0.1212,-0.2216,-0.3212,-0.3225,-0.3223,-0.3208,-0.3208,-0.319,-0.3163,0.0,0.0,0.0,0.0,0.0,0.0,0.0,0.0,0.0,0.0,0.0,0.0,0.0,0.0,0.0,0.0,0.0,0.0,0.0,0.0,0.0,0.3684,0.3872,0.388,0.3681,0.3687,0.3575,0.3338,0.3376,0.0,0.0,0.0,0.4014,0.4145,0.4226,0.4106,0.3834,0.3681,0.3526,0.3379,0.3357,0.3319,0.3267,0.0,0.0,0.0,0.2648,0.2381,0.2216,0.2065,0.0,0.0,0.0,0.0,0.1408,0.1411,0.1434,0.1569,0.177,0.1906,0.2064,0.2369,0.2522,0.2612,0.2664,0.2684,0.2692,0.2524,0.2694,0.219,0.0674,0.034,0.0861,0.2635,0.2846,0.2345,0.0737,0.1109,0.1112,0.0561,0.0369,0.0183,0.0,0.0,0.0728,0.2736,0.1471,0.0371,0.0,0.0,0.0,0.0,0.0,0.0,0.0,0.0,0.0,0.0,0.0,0.0,0.0,0.0,0.0,0.0,0.0,0.0,0.0,0.0,-0.1005,-0.2615,-0.3023,-0.3224,-0.3224,-0.3228,-0.3213,-0.3189,0.0,0.0,0.0,0.0,0.0,0.0,0.0,0.0,0.0,0.0,0.409,0.4338,0.0,0.407,0.4014,0.3793,0.3531,0.3254,0.3155,0.0,0.0,0.3747,0.3736,0.3711,0.3679,0.3482,0.3387,0.3401,0.3357,0.0,0.0,0.0,0.0,0.4202,0.0,0.3965,0.3763,0.3488,0.3324,0.3245,0.3139,0.3093,0.0,0.0,0.0,0.0,0.0,0.2359,0.2435,0.2261,0.1987,0.0,0.0,0.0,0.1388,0.1293,0.1357,0.1534,0.1565,0.1808,0.2101,0.2301,0.2459,0.2574,0.2607,0.2654,0.2524,0.2018,0.2357,0.2695,0.2358,0.1699,0.1546,0.2784,0.2815,0.2856,0.2552,0.1828,0.1646,0.2382,0.1827,0.0909,0.0,0.0,0.0723,0.2735,0.274,0.1829,0.0,0.0,0.0,0.0,0.0,0.0,0.0,0.0,0.0,0.0,0.0,0.0,0.0,0.0,0.0,0.0,0.0,0.0,0.0,0.0,-0.0197,-0.0592,-0.2388,-0.3194,-0.3197,-0.3224,-0.3215,-0.3189,0.0,0.0,0.0,0.0,0.0,0.0,0.0,0.0,0.0,0.0,0.0,0.4474,0.4422,0.4315,0.4171,0.4068,0.3752,0.3531,0.3294,0.3401,0.3537,0.3711,0.3659,0.3597,0.3531,0.336,0.3283,0.3311,0.0,0.0,0.0,0.4003,0.4125,0.0,0.0,0.0,0.3749,0.345,0.3286,0.3221,0.3098,0.3112,0.0,0.0,0.0,0.0,0.0,0.0,0.0,0.0,0.21,0.1908,0.1844,0.0,0.0,0.0,0.1408,0.1494,0.1697,0.193,0.2162,0.236,0.2472,0.2551,0.2613,0.2647,0.2505,0.1848,0.2356,0.2694,0.2694,0.2028,0.1875,0.2776,0.2808,0.2844,0.2887,0.2543,0.2371,0.2919,0.1997,0.1447,0.1631,0.0721,0.054,0.1988,0.2533,0.2525,0.1614,0.0538,0.0,0.0,0.0,0.0,0.0,0.0,0.0,0.0,0.0,0.0,0.0,0.0,0.0,0.0,0.0,0.0,0.0,0.0,0.0,-0.0,-0.0992,-0.2184,-0.3168,-0.3216,-0.3215,-0.3191,0.0,0.0,0.0,0.0,0.0,0.0,0.0,0.0,0.0,0.0,0.0,0.4638,0.4549,0.0,0.0,0.0,0.3894,0.3711,0.3529,0.3535,0.3591,0.3605,0.3567,0.3488,0.3368,0.3262,0.3215,0.0,0.0,0.0,0.3992,0.4098,0.4229,0.0,0.4142,0.0,0.0,0.0,0.0,0.0,0.0,0.0,0.0,0.0,0.0,0.0,0.0,0.0,0.0,0.0,0.0,0.2024,0.1885,0.1769,0.0,0.0,0.0,0.1519,0.1771,0.1949,0.2097,0.2331,0.244,0.2515,0.2604,0.2642,0.2499,0.2183,0.2356,0.2692,0.2692,0.2361,0.2211,0.2774,0.2808,0.284,0.287,0.2891,0.2905,0.2908,0.2166,0.1801,0.2179,0.1263,0.0898,0.1436,0.2328,0.2852,0.2475,0.1057,0.0175,0.0,0.0,0.0,0.0,0.0,0.0,0.0,0.0,0.0,0.0,0.0,0.0,0.0,0.0,0.0,0.0,0.0,0.0,0.0,0.0,-0.0984,-0.255,-0.3,-0.3208,-0.3193,0.0,0.0,0.0,0.0,0.0,0.0,0.0,0.0,0.0,0.0,0.0,0.4545,0.4451,0.4266,0.4115,0.4189,0.3922,0.37,0.3641,0.3549,0.3506,0.342,0.3422,0.0,0.3243,0.3177,0.3172,0.0,0.0,0.0,0.4117,0.4183,0.4335,0.4551,0.4371,0.4158,0.3921,0.0,0.0,0.0,0.0,0.0,0.0,0.0,0.0,0.0,0.0,0.0,0.0,0.0,0.0,0.0,0.0,0.1934,0.1665,0.0,0.0,0.0,0.1702,0.1701,0.1798,0.2097,0.2301,0.2453,0.2544,0.263,0.2691,0.2692,0.2692,0.2692,0.2692,0.2716,0.2746,0.2778,0.2808,0.284,0.287,0.2875,0.2876,0.2876,0.2875,0.2156,0.0359,0.1796,0.2335,0.1436,0.2313,0.2476,0.1591,0.14,0.087,0.0,0.0,0.0,0.0,0.0,0.0,0.0,0.0,0.0,0.0,0.0,0.0,0.0,0.0,0.0,0.0,0.0,0.0,0.0,0.0,-0.0,-0.0388,-0.2375,-0.319,-0.2993,0.0,0.0,0.0,0.0,0.0,0.0,0.0,0.0,0.0,0.0,0.0,0.0,0.0,0.4514,0.4546,0.4536,0.435,0.398,0.3632,0.3675,0.3597,0.3294,0.3332,0.3278,0.3117,0.3093,0.0,0.0,0.0,0.3501,0.3959,0.4095,0.4226,0.4338,0.4196,0.4065,0.3927,0.3545,0.0,0.0,0.0,0.0,0.0,0.0,0.0,0.0,0.0,0.0,0.0,0.0,0.0,0.0,0.0,0.0,0.0,0.1579,0.1557,0.1493,0.1757,0.1786,0.1816,0.2041,0.2203,0.2338,0.2447,0.2556,0.2639,0.266,0.2679,0.2692,0.2692,0.2702,0.2718,0.2748,0.278,0.281,0.2841,0.2861,0.2867,0.2846,0.2325,0.1433,0.0178,0.0715,0.1077,0.1436,0.2312,0.2644,0.2275,0.1212,0.0342,0.0,0.0,0.0,0.0,0.0,0.0,0.0,0.0,0.0,0.0,0.0,0.0,0.0,0.0,0.0,0.0,0.0,0.0,0.0,0.0,0.0,-0.0194,-0.1582,-0.259,-0.2993,0.0,0.0,0.0,0.0,0.0,0.0,0.0,0.0,0.0,0.0,0.0,0.0,0.0,0.0,0.4741,0.4826,0.461,0.4288,0.3864,0.3807,0.3623,0.3302,0.3278,0.3256,0.3115,0.0,0.0,0.0,0.0,0.0,0.0,0.3973,0.4101,0.4341,0.415,0.4105,0.0,0.0,0.0,0.3409,0.0,0.0,0.3493,0.0,0.0,0.0,0.0,0.0,0.0,0.0,0.0,0.0,0.0,0.0,0.0,0.0,0.0,0.1672,0.1768,0.1807,0.1868,0.1979,0.2087,0.2195,0.2406,0.25,0.2562,0.2632,0.2662,0.268,0.2691,0.2684,0.269,0.2731,0.2763,0.2793,0.2825,0.2846,0.2848,0.2816,0.1946,0.1061,0.0175,0.0,0.0356,0.125,0.2292,0.2793,0.2784,0.1544,0.0677,0.0,0.0,0.0,0.0,0.0,0.0,0.0,0.0,0.0,0.0,0.0,0.0,0.0,0.0,0.0,0.0,0.0,0.0,0.0,0.0,0.0,-0.0,-0.0788,-0.1986,-0.2993,0.0,0.0,0.0,0.0,0.0,0.0,0.0,0.0,0.0,0.0,0.0,0.0,0.0,0.0,0.0,0.4839,0.4765,0.4578,0.4197,0.4003,0.3751,0.3528,0.3358,0.3292,0.3229,0.0,0.0,0.0,0.0,0.0,0.0,0.0,0.4226,0.4714,0.4383,0.4174,0.4185,0.0,0.3815,0.3758,0.0,0.3553,0.3542,0.0,0.0,0.0,0.3733,0.3613,0.0,0.2934,0.0,0.0,0.0,0.0,0.0,0.0,0.0,0.0,0.0,0.0,0.0,0.2012,0.1947,0.2027,0.2412,0.2457,0.2458,0.2609,0.2641,0.265,0.2684,0.2665,0.2665,0.2724,0.2761,0.2792,0.2823,0.2827,0.2816,0.2787,0.1912,0.1038,0.0171,0.0,0.0524,0.1411,0.2251,0.275,0.2781,0.2724,0.186,0.0,0.0,0.0,0.0,0.0,0.0,0.0,0.0,0.0,0.0,0.0,0.0,0.0,0.0,0.0,0.0,0.0,0.0,0.0,0.0,0.0,0.0,0.0,-0.1383,-0.2793,0.0,0.0,0.0,0.0,0.0,0.0,0.0,0.0,0.0,0.0,0.0,0.0,0.0,0.0,0.0,0.5128,0.499,0.4734,0.4291,0.4127,0.401,0.3844,0.3635,0.3576,0.3466,0.0,0.0,0.0,0.0,0.0,0.0,0.0,0.0,0.0,0.4187,0.4067,0.3812,0.3792,0.0,0.3755,0.3589,0.364,0.0,0.0,0.0,0.0,0.0,0.3927,0.3688,0.0,0.2923,0.247,0.0,0.0,0.0,0.0,0.0,0.0,0.1765,0.0,0.0,0.0,0.0,0.0,0.2106,0.2193,0.2278,0.245,0.2485,0.2514,0.2609,0.262,0.262,0.2637,0.2683,0.2736,0.2788,0.2796,0.2792,0.2784,0.2591,0.2053,0.1015,0.1526,0.1877,0.2243,0.2556,0.2718,0.2748,0.2694,0.1839,0.0,0.0,0.0,0.0,0.0,0.0,0.0,0.0,0.0,0.0,0.0,0.0,0.0,0.0,0.0,0.0,0.0,0.0,0.0,0.0,0.0,0.0,0.0,-0.0397,-0.0996,0.0,0.0,0.5197,0.5279,0.0,0.0,0.0,0.0,0.0,0.0,0.0,0.0,0.0,0.0,0.0,0.5634,0.5378,0.4956,0.4712,0.4265,0.401,0.395,0.3877,0.3856,0.3775,0.0,0.0,0.0,0.0,0.0,0.0,0.0,0.0,0.0,0.4318,0.4309,0.0,0.0,0.0,0.0,0.3687,0.0,0.0,0.4087,0.4164,0.0,0.0,0.0,0.3962,0.3527,0.2803,0.0,0.0,0.0,0.0,0.0,0.0,0.0,0.0,0.0,0.0,0.1799,0.0,0.0,0.2053,0.2105,0.2163,0.2395,0.2584,0.2759,0.2865,0.2872,0.3032,0.3063,0.294,0.2823,0.2718,0.2727,0.2721,0.2709,0.2692,0.2337,0.1485,0.2152,0.2502,0.2698,0.2672,0.2669,0.2698,0.2669,0.1998,0.0505,0.017,0.0,0.0,0.0,0.0,0.0,0.0,0.0,0.0,0.0,0.0,0.0,0.0,0.0,0.0,0.0,0.0,0.0,0.0,0.0,0.0,0.0,0.0,-0.0198,0.0,0.0,0.5615,0.5922,0.6247,0.6369,0.0,0.0,0.0,0.0,0.0,0.0,0.0,0.0,0.0,0.0,0.5744,0.5367,0.5264,0.4504,0.4032,0.413,0.4041,0.4055,0.4072,0.0,0.0,0.0,0.0,0.0,0.0,0.0,0.0,0.0,0.4548,0.4545,0.4211,0.0,0.0,0.3605,0.3823,0.3935,0.0,0.0,0.4368,0.4343,0.4398,0.4387,0.4197,0.3452,0.2693,0.0,0.0,0.0,0.0,0.0,0.1966,0.0,0.0,0.0,0.0,0.0,0.171,0.0,0.2106,0.2091,0.2078,0.2357,0.2695,0.2999,0.3081,0.3383,0.354,0.3772,0.3326,0.3048,0.2637,0.2647,0.2637,0.2611,0.2602,0.2428,0.1924,0.2263,0.2612,0.2641,0.2619,0.2619,0.265,0.2652,0.2331,0.1516,0.0506,0.0,0.0,0.0,0.0,0.0,0.0,0.0,0.0,0.0,0.0,0.0,0.0,0.0,0.0,0.0,0.0,0.0,0.0,0.0,0.0,0.0,0.0,0.0,0.5823,0.5858,0.5811,0.6022,0.6316,0.0,0.0,0.0,0.0,0.0,0.0,0.0,0.0,0.0,0.0,0.0,0.6162,0.5778,0.5567,0.4918,0.4634,0.4862,0.4545,0.4497,0.4621,0.4442,0.0,0.0,0.0,0.0,0.0,0.0,0.0,0.0,0.4384,0.4149,0.3704,0.0,0.0,0.3591,0.3638,0.0,0.4174,0.4283,0.4406,0.4523,0.4534,0.4564,0.4556,0.39,0.3271,0.2682,0.0,0.0,0.0,0.173,0.0,0.0,0.0,0.0,0.0,0.0,0.0,0.0,0.1834,0.1861,0.1913,0.2045,0.2346,0.2665,0.2801,0.3156,0.3333,0.3315,0.3133,0.312,0.3123,0.2813,0.2645,0.2639,0.2597,0.2575,0.243,0.2578,0.2581,0.2608,0.2605,0.2626,0.268,0.2662,0.2675,0.2556,0.0853,0.0,0.0,0.0,0.0,0.0,0.0,0.0,0.0,0.0,0.0,0.0,0.0,0.0,0.0,0.0,0.0,0.0,0.0,0.0,0.0,0.0,0.0,0.0,0.5973,0.5976,0.6047,0.6537,0.0,0.0,0.0,0.0,0.0,0.0,0.0,0.0,0.0,0.0,0.0,0.0,0.0,0.0,0.0,0.0,0.5066,0.4904,0.4998,0.5002,0.5021,0.4958,0.483,0.0,0.0,0.0,0.0,0.0,0.0,0.0,0.0,0.4336,0.3843,0.4053,0.3969,0.3564,0.3804,0.0,0.4286,0.4496,0.4613,0.4673,0.4733,0.4588,0.4366,0.3922,0.3507,0.0,0.0,0.2559,0.2586,0.0,0.2555,0.2687,0.0,0.0,0.0,0.1855,0.0,0.0,0.0,0.1966,0.1879,0.2267,0.2523,0.2791,0.2937,0.3251,0.3552,0.3739,0.3447,0.3283,0.356,0.3019,0.2581,0.2581,0.2555,0.2542,0.2556,0.2559,0.2566,0.2579,0.2581,0.2594,0.2624,0.2299,0.2151,0.2355,0.1702,0.1029,0.0,0.0,0.0,0.0,0.0,0.0,0.0,0.0,0.0,0.0,0.0,0.0,0.0,0.0,0.0,0.0,0.0,0.0,0.0,0.0,0.0,0.0,0.6116,0.61,0.6266,0.698,0.0,0.0,0.0,0.0,0.0,0.0,0.0,0.0,0.0,0.0,0.0,0.0,0.0,0.0,0.0,0.0,0.0,0.4989,0.5348,0.5482,0.5267,0.5308,0.5292,0.5218,0.0,0.0,0.0,0.0,0.0,0.0,0.0,0.0,0.4167,0.0,0.0,0.3638,0.0,0.4237,0.4281,0.4651,0.4771,0.4758,0.4916,0.4731,0.4283,0.4006,0.3794,0.3479,0.3138,0.3151,0.0,0.0,0.0,0.0,0.0,0.0,0.0,0.0,0.0,0.2058,0.0,0.0,0.0,0.2391,0.2738,0.2956,0.2939,0.3324,0.3732,0.4121,0.3725,0.3541,0.3845,0.3124,0.2616,0.264,0.2655,0.2508,0.2514,0.2521,0.2537,0.2566,0.2536,0.2534,0.2574,0.2108,0.1967,0.1997,0.2537,0.2048,0.0513,0.0171,0.0,0.0,0.0,0.0,0.0,0.0,0.0,0.0,0.0,0.0,0.0,0.0,0.0,0.0,0.0,0.0,0.0,0.0,0.0,0.0,0.6321,0.635,0.639,0.6649,0.7046,0.7388,0.7535,0.0,0.0,0.0,0.0,0.0,0.0,0.0,0.0,0.0,0.0,0.0,0.7704,0.0,0.0,0.5996,0.5704,0.5517,0.5361,0.5218,0.5132,0.5124,0.0,0.0,0.0,0.0,0.0,0.0,0.4656,0.0,0.0,0.0,0.3946,0.0,0.421,0.4174,0.0,0.4447,0.4632,0.4711,0.4992,0.4981,0.467,0.0,0.4627,0.4364,0.0,0.3777,0.3832,0.3364,0.0,0.0,0.0,0.0,0.0,0.0,0.2806,0.0,0.0,0.0,0.206,0.191,0.0,0.2784,0.2453,0.0,0.0,0.3485,0.3346,0.336,0.3548,0.3263,0.2984,0.2828,0.2899,0.2951,0.2512,0.2444,0.2454,0.2587,0.2448,0.244,0.2627,0.2616,0.2478,0.2725,0.2707,0.271,0.2566,0.0855,0.0,0.0,0.0,0.0,0.0,0.0,0.0,0.0,0.0,0.0,0.0,0.0,0.0,0.0,0.0,0.0,0.0,0.0,0.0,0.0,0.6261,0.6312,0.6518,0.6785,0.7051,0.7345,0.7671,0.8166,0.0,0.0,0.0,0.0,0.0,0.0,0.0,0.0,0.0,0.8059,0.0,0.0,0.0,0.0,0.6336,0.0,0.5955,0.5547,0.5292,0.5186,0.5043,0.0,0.0,0.0,0.0,0.0,0.4786,0.4622,0.4594,0.0,0.4076,0.0,0.0,0.4204,0.0,0.4673,0.4924,0.4984,0.5038,0.4989,0.4872,0.0,0.4662,0.0,0.0,0.0,0.0,0.4141,0.0,0.0,0.0,0.0,0.0,0.0,0.0,0.0,0.2686,0.0,0.2455,0.0,0.0,0.0,0.0,0.0,0.0,0.0,0.3291,0.339,0.3687,0.3692,0.3483,0.3139,0.2845,0.2587,0.2399,0.239,0.2418,0.2517,0.2405,0.2394,0.2536,0.2566,0.2604,0.2657,0.2698,0.2725,0.2737,0.2053,0.103,0.0,0.0,0.0,0.0,0.0,0.0,0.0,0.133,0.1152,0.0,0.0,0.0,0.0,0.0,0.0,0.0,0.0,0.0,0.0,0.6435,0.0,0.0,0.6834,0.7035,0.7339,0.7888,0.0,0.0,0.0,0.0,0.0,0.9568,0.9351,0.0,0.0,0.9041,0.8758,0.0,0.0,0.7696,0.0,0.0,0.0,0.0,0.0,0.5398,0.5243,0.5059,0.0,0.0,0.0,0.0,0.0,0.4845,0.4732,0.4883,0.4484,0.4305,0.4316,0.4496,0.4574,0.4628,0.4888,0.5095,0.5327,0.5238,0.5176,0.526,0.504,0.4878,0.0,0.4681,0.0,0.4665,0.0,0.0,0.0,0.4044,0.0,0.0,0.0,0.0,0.0,0.0,0.0,0.0,0.0,0.0,0.0,0.0,0.0,0.2741,0.31,0.0,0.336,0.3711,0.3793,0.3733,0.336,0.2819,0.246,0.232,0.2308,0.2334,0.2436,0.2337,0.2333,0.2474,0.2532,0.2577,0.2613,0.2687,0.2725,0.2725,0.2563,0.1887,0.0689,0.0172,0.0,0.0,0.0,0.0,0.0186,0.2301,0.2325,0.0772,0.0198,0.0,0.0,0.0,0.0,0.0,0.0,0.0,0.0,0.7124,0.6744,0.0,0.0,0.0,0.7394,0.0,0.0,0.0,0.0,0.0,0.0,0.0,0.0,0.0,0.0,0.0,0.9579,0.9449,0.0,0.8429,0.0,0.0,0.6663,0.0,0.0,0.0,0.5243,0.5059,0.5059,0.0,0.0,0.0,0.0,0.4825,0.4664,0.4833,0.4458,0.4739,0.5314,0.5324,0.5563,0.5875,0.0,0.5274,0.5756,0.5753,0.0,0.0,0.5736,0.5538,0.0,0.0,0.0,0.0,0.0,0.0,0.0,0.0,0.0,0.0,0.3984,0.0,0.0,0.0,0.0,0.3111,0.0,0.0,0.0,0.0,0.0,0.0,0.0,0.299,0.0,0.0,0.3463,0.3453,0.3434,0.2901,0.2512,0.2324,0.2176,0.2159,0.2365,0.2217,0.2233,0.2499,0.2542,0.2586,0.2643,0.2677,0.2694,0.2694,0.2212,0.2212,0.2527,0.086,0.0,0.0,0.0,0.0,0.0186,0.2317,0.3108,0.2867,0.078,0.0,0.0,0.0,0.0,0.0,0.0,0.0,0.0,0.7623,0.0,0.0,0.0,0.0,0.0,0.0,0.8454,0.0,0.0,0.0,0.0,0.0,1.0411,1.0378,0.0,0.0,1.0057,0.9851,0.9351,0.0,0.0,0.0,0.7307,0.0,0.0,0.0,0.0,0.0,0.5214,0.5328,0.5055,0.5132,0.5398,0.4904,0.4926,0.5576,0.5055,0.5235,0.5883,0.5929,0.6214,0.6496,0.0,0.5947,0.5878,0.6156,0.6301,0.0,0.5928,0.5722,0.5679,0.5184,0.5136,0.5234,0.5038,0.5346,0.0,0.0,0.0,0.5331,0.478,0.0,0.0,0.0,0.0,0.0,0.0,0.0,0.0,0.0,0.0,0.0,0.0,0.0,0.3449,0.0,0.333,0.3171,0.283,0.2841,0.2576,0.2011,0.2078,0.2154,0.2225,0.2174,0.2232,0.2443,0.2502,0.2556,0.2615,0.2665,0.2712,0.2752,0.2552,0.2552,0.2752,0.2236,0.19,0.1915,0.1259,0.0917,0.1114,0.2493,0.3101,0.3085,0.2344,0.1169,0.0,0.0,0.0,0.0,0.0,0.0,0.0,0.817,0.0,0.0,0.0,0.0,0.0,0.0,0.0,0.0,0.0,1.0144,0.0,1.0987,0.0,1.0889,0.0,1.0786,1.0547,1.0177,0.9862,0.0,0.9726,0.8564,0.0,0.0,0.0,0.0,0.0,0.0,0.5467,0.5516,0.521,0.5259,0.5598,0.5104,0.5268,0.5833,0.5494,0.5873,0.6437,0.6916,0.7154,0.0,0.0,0.6864,0.6513,0.0,0.6909,0.7066,0.655,0.633,0.6267,0.5786,0.5725,0.5808,0.563,0.5745,0.6166,0.5832,0.5739,0.0,0.5438,0.502,0.0,0.4174,0.0,0.4204,0.0,0.0,0.0,0.0,0.0,0.0,0.0,0.0,0.0,0.0,0.321,0.3038,0.2624,0.2754,0.2539,0.1921,0.1975,0.2056,0.2162,0.2121,0.2178,0.238,0.2459,0.2526,0.2585,0.2645,0.2705,0.2766,0.2739,0.2739,0.2595,0.278,0.2785,0.2961,0.2347,0.2021,0.203,0.2863,0.3085,0.3069,0.311,0.2331,0.0963,0.0193,0.0,0.0,0.0,0.0,0.0,0.8554,0.8309,0.0,0.0,0.8188,0.0,0.0,0.0,0.9655,0.0,1.0536,1.09,1.1259,1.1406,1.1433,1.1319,1.1308,1.1063,1.0492,1.0438,0.0,0.0,0.9121,0.8555,0.8493,0.0,0.0,0.0,0.0,0.5794,0.5786,0.5422,0.5349,0.5533,0.5313,0.5441,0.5712,0.5897,0.6512,0.747,0.8153,0.8249,0.7841,0.8269,0.8201,0.7704,0.7439,0.7741,0.8064,0.7474,0.723,0.7162,0.6668,0.6506,0.6492,0.6574,0.6553,0.6536,0.6462,0.6131,0.5758,0.6079,0.0,0.0,0.0,0.0,0.4971,0.0,0.0,0.0,0.0,0.0,0.0,0.0,0.0,0.3143,0.3131,0.3115,0.3054,0.2764,0.2664,0.2438,0.2152,0.1872,0.1879,0.2163,0.2057,0.2082,0.2318,0.2413,0.2489,0.2556,0.2616,0.2676,0.2737,0.2766,0.2422,0.1884,0.2475,0.2841,0.2963,0.2908,0.2946,0.2926,0.3043,0.3061,0.3011,0.307,0.3078,0.2862,0.0954,0.0,0.0,0.0,0.0,0.0,0.871,0.8903,0.9136,0.0,0.8534,0.8301,0.0,0.0,0.0,0.0,1.0857,1.1275,1.1639,1.1781,1.1841,1.1808,1.1803,0.0,0.0,0.0,0.0,1.0905,0.9743,0.9021,0.9046,0.7677,0.0,0.668,0.0,0.5982,0.5974,0.5545,0.5475,0.5716,0.5487,0.5793,0.6505,0.6398,0.7007,0.7885,0.835,0.8497,0.8365,0.0,0.8583,0.8389,0.8173,0.8093,0.8252,0.7654,0.7443,0.7402,0.6783,0.6749,0.7058,0.6654,0.6956,0.7436,0.7087,0.6967,0.6805,0.6766,0.6469,0.6033,0.0,0.0,0.0,0.0,0.0,0.0,0.0,0.0,0.0,0.0,0.0,0.0,0.0,0.3294,0.3221,0.3024,0.2812,0.2484,0.2162,0.196,0.1932,0.1964,0.1992,0.2094,0.2292,0.2323,0.2395,0.2522,0.2605,0.2676,0.2737,0.2746,0.2412,0.1906,0.2642,0.2831,0.2819,0.2894,0.2924,0.2921,0.2996,0.3021,0.301,0.3048,0.3059,0.3052,0.1716,0.0572,0.0,0.0,0.0,0.0,0.915,0.9639,0.0,0.9529,0.0,0.0,0.9204,0.9441,0.0,1.0941,1.1429,0.0,1.2074,1.2404,1.2394,1.215,1.215,0.0,1.1835,0.0,0.0,1.1281,1.0427,0.9904,0.9697,0.8504,0.0,0.7323,0.0,0.0,0.61,0.5729,0.5614,0.5729,0.569,0.6094,0.6586,0.6911,0.7545,0.8097,0.8489,0.8652,0.0,0.875,0.8787,0.8771,0.8579,0.846,0.8379,0.7945,0.789,0.7665,0.7364,0.7516,0.7694,0.7278,0.7557,0.7868,0.7573,0.7424,0.7256,0.753,0.7117,0.6687,0.6544,0.67,0.6548,0.0,0.0,0.0,0.0,0.0,0.0,0.0,0.0,0.0,0.0,0.0,0.3281,0.3245,0.3045,0.2777,0.2435,0.2064,0.1827,0.1844,0.1917,0.2022,0.2163,0.2271,0.238,0.2491,0.2581,0.2669,0.2757,0.2758,0.26,0.2277,0.2657,0.2841,0.283,0.2889,0.2909,0.2901,0.2975,0.2999,0.299,0.302,0.304,0.3052,0.1907,0.0954,0.0,0.0,0.0,0.0,0.972,1.0283,0.0,0.0,0.0,0.0,0.0,1.0292,0.0,1.1576,0.0,1.2495,1.2443,1.2962,1.3074,1.2598,0.0,1.2286,1.1955,1.2025,1.1873,1.1411,1.1236,1.0819,1.0651,0.9375,0.8639,0.0,0.0,0.0,0.6157,0.5888,0.5729,0.5676,0.6027,0.6284,0.6521,0.7513,0.8003,0.8158,0.8836,0.882,0.8787,0.8934,0.9128,0.9044,0.8779,0.8644,0.8489,0.8387,0.8293,0.8203,0.8121,0.8146,0.8352,0.8101,0.8027,0.7983,0.8044,0.7849,0.7485,0.806,0.7745,0.7524,0.7317,0.7256,0.7084,0.678,0.6598,0.6372,0.0,0.0,0.0,0.3925,0.0,0.0,0.0,0.0,0.0,0.3409,0.3319,0.0,0.2961,0.2143,0.1783,0.1882,0.1827,0.1902,0.2007,0.2211,0.2368,0.2461,0.2549,0.2654,0.2776,0.2781,0.2799,0.2829,0.2859,0.286,0.2836,0.2887,0.29,0.2885,0.2965,0.2988,0.2969,0.2996,0.3022,0.3047,0.2097,0.1144,0.0381,0.0191,0.0,0.0,1.0266,0.0,0.0,0.0,0.0,1.1927,1.2075,1.1959,1.2065,1.271,1.3224,1.3596,1.353,1.3362,1.3337,1.3228,1.2935,0.0,0.0,0.0,0.0,1.2031,1.1684,1.1171,1.0835,0.9553,0.877,0.0,0.0,0.0,0.6068,0.5798,0.57,0.5769,0.6055,0.6562,0.7235,0.7725,0.8113,0.8419,0.9199,0.9207,0.8954,0.9279,0.9438,0.9421,0.9403,0.9143,0.8664,0.8501,0.8387,0.8309,0.8293,0.8415,0.8705,0.8348,0.8501,0.8644,0.8244,0.8105,0.7985,0.817,0.8174,0.8013,0.8041,0.7933,0.7869,0.8017,0.7837,0.7286,0.6515,0.0,0.0,0.0,0.0,0.0,0.0,0.0,0.0,0.0,0.3625,0.3384,0.3028,0.2473,0.2178,0.232,0.1906,0.1895,0.2218,0.2149,0.2165,0.0,0.2519,0.2624,0.0,0.0,0.2799,0.2829,0.2859,0.2871,0.2867,0.2876,0.2891,0.2911,0.2951,0.298,0.2999,0.3005,0.301,0.3017,0.2853,0.2671,0.2288,0.0572,0.0,0.0,0.0,0.0,0.0,0.0,0.0,0.0,0.0,1.3552,1.3636,1.3509,1.3569,1.3789,1.3547,1.374,1.3626,1.3094,1.3018,1.2835,1.2716,1.2705,1.2574,1.2281,1.2133,0.0,1.1462,1.0635,0.9597,0.8697,0.0,0.0,0.0,0.5872,0.5782,0.5798,0.6464,0.7157,0.796,0.8297,0.0,0.9127,0.9472,0.9481,0.9377,0.9702,0.9715,0.9746,0.964,0.9609,0.9574,0.9152,0.8867,0.8811,0.8362,0.8684,0.9021,0.8624,0.895,0.9284,0.9063,0.9085,0.8955,0.8612,0.8783,0.895,0.8436,0.8402,0.8539,0.8195,0.813,0.7793,0.6645,0.544,0.0,0.0,0.0,0.0,0.0,0.0,0.4046,0.0,0.0,0.0,0.3199,0.2955,0.2596,0.2367,0.205,0.1968,0.2252,0.2103,0.2138,0.0,0.0,0.0,0.2736,0.0,0.2806,0.2852,0.2867,0.2874,0.2874,0.2874,0.2882,0.2897,0.2942,0.2969,0.2984,0.3001,0.3007,0.3009,0.3022,0.3039,0.2862,0.1335,0.0381,0.0,0.0,1.2554,0.0,0.0,1.3274,1.3892,1.4102,1.4679,1.4792,1.4186,1.4153,1.4035,1.3839,1.4155,1.3899,1.3133,1.3029,1.2846,1.2748,1.2743,1.2661,1.2477,1.2558,1.246,1.2145,1.1599,1.0672,0.0,0.0,0.0,0.0,0.6131,0.606,0.6068,0.696,0.7907,0.0,0.0,0.9242,0.9854,1.0133,0.9955,0.9786,0.9973,1.0009,1.0041,0.9901,1.0259,1.0645,1.0006,0.9711,0.9473,0.8811,0.9145,0.9509,0.9252,0.9576,0.9913,0.9894,0.973,0.975,0.923,0.9558,0.9525,0.8783,0.8796,0.8963,0.8509,0.8174,0.7725,0.6659,0.5896,0.0,0.0,0.0,0.0,0.0,0.0,0.0,0.0,0.0,0.0,0.3471,0.325,0.2936,0.2458,0.2213,0.2256,0.2385,0.2182,0.0,0.0,0.0,0.2555,0.2699,0.0,0.2811,0.2864,0.2871,0.2871,0.2864,0.2871,0.2876,0.2886,0.2931,0.2956,0.2964,0.2987,0.3001,0.3006,0.3006,0.3025,0.3052,0.2098,0.1144,0.0,0.0,0.0,0.0,0.0,0.0,1.4794,1.4441,1.4984,1.5357,1.533,1.5323,1.5432,1.5716,1.4832,1.4336,1.4247,1.3478,1.2884,1.2873,1.2873,1.2863,1.2841,1.2846,1.2786,1.264,1.1926,1.0988,0.0,0.0,0.8061,0.0,0.0,0.0,0.0,0.0,0.0,0.0,0.9354,0.9773,1.0168,1.0956,1.0742,1.0077,1.0829,1.0964,1.0525,1.0978,1.1512,1.178,1.109,1.0549,1.0045,0.9941,1.0199,1.0394,0.9859,1.0209,1.0359,0.9913,0.9783,0.9859,0.9859,0.9783,0.9735,0.9821,0.9707,0.9455,0.91,0.8309,0.7562,0.6979,0.6305,0.5726,0.0,0.0,0.0,0.0,0.0,0.4395,0.4204,0.0,0.0,0.3515,0.3303,0.3067,0.3028,0.2656,0.2553,0.2957,0.0,0.0,0.2575,0.2461,0.2451,0.2575,0.2714,0.28,0.2833,0.286,0.286,0.2834,0.2861,0.2887,0.2912,0.2917,0.2936,0.2961,0.2965,0.2981,0.3006,0.3006,0.3025,0.3052,0.3052,0.1716,0.0,0.0,0.0,0.0,0.0,0.0,0.0,0.0,1.5709,1.5959,1.5662,1.5601,1.5435,1.5446,1.5073,1.4737,1.4464,1.3884,1.349,1.3884,1.3284,1.3057,1.3178,1.3046,1.2765,1.2498,1.2165,1.1468,0.0,0.0,0.0,0.0,0.0,0.0,0.0,0.0,0.9325,0.9962,1.0149,1.0545,1.1211,1.1181,1.1081,1.0742,1.1051,1.1036,1.0865,1.1217,1.1594,1.1971,1.1667,1.1247,1.0663,1.0398,1.049,1.0779,1.06,1.0728,1.102,1.0796,1.0817,1.0854,1.05,1.0641,1.06,1.0054,1.0034,1.018,0.9614,0.9021,0.8207,0.7478,0.6974,0.6515,0.0,0.0,0.0,0.0,0.0,0.0,0.4357,0.0,0.3951,0.3635,0.339,0.3264,0.33,0.284,0.2549,0.0,0.0,0.0,0.2297,0.0,0.2446,0.2532,0.2717,0.2826,0.2856,0.2868,0.2868,0.2856,0.2868,0.2889,0.2916,0.2916,0.2932,0.296,0.2942,0.2962,0.3005,0.2987,0.3009,0.3052,0.3052,0.2479,0.1716,1.5894,0.0,1.5908,0.0,1.6099,1.6152,1.6256,1.6301,1.6264,1.6028,1.5845,1.5663,1.5329,1.5374,1.5036,1.4731,1.4343,1.4161,1.4592,1.3925,1.3478,1.3661,1.3312,0.0,1.2569,1.2493,1.1871,1.0888,1.0356,0.0,0.0,0.0,0.0,0.0,0.9553,1.0254,1.0753,1.0967,1.1315,1.1879,1.162,1.1481,1.1283,1.1387,1.1408,1.1278,1.1346,1.1732,1.1971,1.1857,1.1689,1.1346,1.079,1.087,1.0999,1.1035,1.132,1.1411,1.1444,1.1455,1.1455,1.1099,1.125,1.1213,1.0455,1.0656,1.0646,1.014,0.9562,0.8822,0.8045,0.747,0.714,0.6834,0.0,0.0,0.0,0.5495,0.0,0.4684,0.4429,0.4183,0.3931,0.3552,0.3448,0.3563,0.3165,0.2823,0.0,0.0,0.0,0.0,0.0,0.0,0.2643,0.2846,0.2975,0.3026,0.3026,0.2852,0.2861,0.287,0.2885,0.2904,0.2904,0.292,0.2946,0.2916,0.2939,0.299,0.296,0.298,0.3026,0.3036,0.3039,0.3039,1.6738,1.6982,1.7089,1.7254,1.7164,1.691,1.6306,1.6301,1.6264,1.6028,1.6117,1.6246,1.6096,1.581,1.5493,1.5493,1.5088,1.4739,1.4873,1.4629,1.4397,0.0,0.0,1.3666,1.3064,1.2825,1.246,1.1976,0.0,0.0,0.9708,0.0,0.9324,0.9568,1.0351,1.0862,1.1128,1.1612,1.1879,1.1998,1.2118,1.1789,1.1411,1.1978,1.1789,1.1396,1.1844,1.1987,1.1971,1.1857,1.1819,1.1797,1.1677,1.1471,1.1302,1.1422,1.1373,1.1302,1.1422,1.1455,1.1455,1.1455,1.1362,1.1308,1.1427,1.1362,1.11,1.0745,0.9788,0.8994,0.8893,0.8121,0.7447,0.7429,0.0,0.0,0.0,0.6305,0.0,0.5298,0.4855,0.4514,0.4472,0.394,0.3748,0.4015,0.0,0.0,0.0,0.0,0.0,0.302,0.288,0.0,0.3031,0.3219,0.3369,0.3481,0.2959,0.28,0.283,0.286,0.2874,0.2874,0.2874,0.289,0.2915,0.2886,0.2909,0.2958,0.2928,0.2935,0.2966,0.2996,0.3007,0.3007,1.7356,1.7534,1.7713,1.77,1.7933,1.7938,1.7299,1.7358,1.7367,1.702,1.6814,1.6771,1.6827,1.6361,1.6245,0.0,1.5641,1.566,0.0,1.5214,1.5041,1.5427,1.4481,1.4001,1.3803,1.3151,1.2634,1.2237,0.0,0.0,0.0,1.0287,1.0362,1.0602,1.0998,1.1286,1.1607,1.1835,1.2004,1.2118,1.2156,1.2123,1.1871,1.214,1.2172,1.1956,1.1944,1.1922,1.196,1.1759,1.1694,1.1705,1.1748,1.171,1.1667,1.1786,1.1737,1.1656,1.1694,1.1645,1.1601,1.1683,1.1547,1.1406,1.1449,1.1362,1.1122,1.0672,1.0424,0.9788,0.9167,0.8727,0.8244,0.7844,0.7359,0.0,0.675,0.0,0.5771,0.5285,0.5073,0.4831,0.4756,0.4548,0.4349,0.4101,0.3978,0.0,0.0,0.0,0.0,0.0,0.3252,0.0,0.3615,0.3498,0.3455,0.3515,0.2966,0.2799,0.2829,0.2838,0.2855,0.2874,0.2874,0.2879,0.2886,0.2878,0.2897,0.2931,0.2942,0.2965,0.2996,0.3026,0.3037,0.3037,1.7746,1.7892,1.8014,1.8014,1.82,1.8206,1.7772,1.7974,1.7936,1.7411,1.7415,1.7221,1.7177,1.6925,0.0,1.6605,1.6201,1.6227,1.6693,1.5969,1.5539,1.5834,1.5084,1.4584,1.4327,1.3765,0.0,1.2995,1.2309,1.1816,1.118,1.1101,1.1226,1.1378,1.1585,1.1781,1.196,1.2074,1.2172,1.2237,1.2188,1.215,1.2129,1.2161,1.2172,1.2145,1.1949,1.1928,1.1971,1.1873,1.1748,1.1683,1.1938,1.1928,1.1835,1.1906,1.1841,1.1759,1.1808,1.1764,1.1721,1.1797,1.1672,1.1509,1.1465,1.1395,1.1362,1.1083,1.0828,1.0364,0.973,0.9284,0.8986,0.8293,0.7856,0.7541,0.7123,0.0,0.6133,0.0,0.0,0.0,0.0,0.5244,0.5122,0.0,0.4609,0.0,0.0,0.0,0.0,0.3397,0.3813,0.4084,0.4181,0.4001,0.394,0.4013,0.3483,0.3315,0.3338,0.3175,0.3008,0.3196,0.3043,0.2867,0.2857,0.287,0.289,0.2917,0.2936,0.2962,0.2994,0.3024,0.3035,0.3037,1.8116,1.8062,1.8176,0.0,1.8176,0.0,1.7873,1.7935,1.7812,1.7607,1.7717,1.7783,1.753,1.7476,1.7362,1.6748,0.0,0.0,0.0,1.6714,1.6353,1.5744,1.5602,1.5259,1.4519,1.4501,1.4366,1.411,1.321,1.2471,1.2235,1.1925,1.1846,1.1857,1.2199,1.2297,1.2205,1.233,1.2571,1.2368,1.2265,1.2281,1.2352,1.2243,1.2194,1.2167,1.2047,1.2009,1.2031,1.2134,1.1949,1.1748,1.2188,1.2102,1.1835,1.1841,1.1764,1.1699,1.1813,1.1835,1.183,1.183,1.1732,1.1607,1.1482,1.1455,1.1455,1.1455,1.1004,1.0539,1.0432,0.9983,0.9507,0.8797,0.8517,0.8184,0.7411,0.7158,0.6831,0.6378,0.0,0.0,0.5982,0.6003,0.5893,0.0,0.0,0.0,0.0,0.0,0.372,0.4162,0.4433,0.4623,0.473,0.4567,0.4641,0.4784,0.4314,0.4164,0.4168,0.3687,0.3512,0.3488,0.3027,0.2857,0.2834,0.2863,0.289,0.2916,0.2919,0.2938,0.2968,0.2999,0.301,0.3014,0.0,0.0,1.8176,1.8176,1.8176,1.8249,1.8287,1.844,1.864,1.8757,1.8589,1.8583,1.8556,1.7895,1.7569,1.7362,1.7065,1.6944,1.6978,1.691,1.687,1.6668,1.6106,1.5796,1.5558,1.4942,1.455,1.4385,1.4049,1.3424,1.2887,1.2665,1.2466,1.2096,1.2656,1.2961,1.3029,1.3154,1.3211,1.3217,1.2891,1.2819,1.3063,1.2648,1.2582,1.287,1.2739,1.2567,1.2449,1.2762,1.2494,1.2047,1.2069,1.2015,1.1966,1.2058,1.2069,1.2053,1.2455,1.2579,1.2506,1.3061,1.2523,1.1967,1.166,1.1455,1.1455,1.1455,1.1357,1.1089,1.0534,1.0442,0.9948,0.8901,0.8623,0.8215,0.7256,0.7133,0.6925,0.0,0.6545,0.6549,0.6345,0.6393,0.6293,0.0,0.0,0.5488,0.5632,0.4846,0.4714,0.5147,0.5095,0.5124,0.524,0.4902,0.4562,0.4221,0.4062,0.4085,0.4121,0.3648,0.3503,0.3522,0.3036,0.287,0.2864,0.2871,0.289,0.2919,0.2942,0.2969,0.2999,0.3031,0.3041,0.3043,1.904,1.8682,1.8355,1.8517,1.8476,1.8485,1.8663,1.8777,1.8939,1.9224,1.9139,1.8899,1.8955,1.8375,1.8034,1.7975,1.7308,1.6978,1.6978,1.6917,1.6876,1.6876,1.6453,1.6134,1.6134,1.5576,1.546,1.5376,1.4896,1.436,1.4146,1.3698,1.3292,1.3268,1.3479,1.375,1.3869,1.3881,1.3923,1.397,1.3528,1.3626,1.3685,1.3239,1.3333,1.3412,1.3394,1.321,1.3037,1.3465,1.3175,1.2835,1.2824,1.2743,1.2673,1.28,1.2653,1.246,1.2653,1.2976,1.3091,1.3031,1.2865,1.2536,1.1804,1.1939,1.2073,1.1715,1.1665,1.1583,1.1116,1.0867,1.0527,0.9482,0.8973,0.836,0.7366,0.7115,0.6868,0.666,0.6835,0.6949,0.6888,0.7007,0.6833,0.643,0.5994,0.0,0.6327,0.5648,0.551,0.5642,0.544,0.5433,0.5474,0.5277,0.4907,0.471,0.4734,0.476,0.4791,0.4327,0.4187,0.4036,0.337,0.3208,0.321,0.3047,0.2898,0.2938,0.2956,0.2988,0.3029,0.3046,0.3052,0.3054,1.9501,1.897,1.8699,1.9002,1.8761,1.8744,1.8915,1.8964,1.9069,1.9305,1.9313,1.9227,1.9151,1.887,1.8698,1.8556,1.7711,1.7181,1.7154,1.6822,1.6727,1.6686,1.6442,1.63,1.6279,1.63,1.632,1.6341,1.5658,1.5387,1.5306,1.453,1.4323,1.4415,1.4546,1.4564,1.4645,1.457,1.4607,1.4688,1.4262,1.4159,1.4316,1.3969,1.3829,1.392,1.405,1.3835,1.378,1.4223,1.3884,1.3609,1.3664,1.3523,1.3352,1.3425,1.3103,1.2952,1.297,1.3337,1.3666,1.299,1.3053,1.2981,1.2141,1.2466,1.2764,1.1798,1.1984,1.2107,1.1516,1.1286,1.0907,1.0009,0.9253,0.8612,0.75,0.0,0.6823,0.6868,0.7129,0.7329,0.7403,0.7468,0.7423,0.7223,0.6623,0.6682,0.735,0.6605,0.6082,0.5978,0.5761,0.571,0.5488,0.5428,0.5392,0.5384,0.5436,0.5461,0.5463,0.5006,0.486,0.4872,0.4044,0.3536,0.3544,0.3225,0.3095,0.3147,0.3152,0.3189,0.3243,0.3243,0.3243,0.3056,2.0259,1.9532,1.8802,1.8861,1.8789,1.8558,1.8736,1.8891,1.9159,1.9646,1.9573,1.9557,1.9565,1.9285,1.9111,1.8822,1.8477,1.8164,1.7618,1.6968,1.6639,1.6388,1.6334,1.6252,1.6123,1.6246,1.6368,1.649,1.632,1.5843,1.546,1.5267,1.4693,1.4152,1.4756,1.4998,1.4928,1.5138,1.524,1.5259,1.4806,1.4719,1.4985,1.4335,1.4354,1.4629,1.4777,1.4423,1.4042,1.4781,1.4599,1.4104,1.3786,1.3657,1.3578,1.3364,1.3468,1.3676,1.4165,1.4676,1.4765,1.4364,1.3883,1.318,1.2431,1.2174,1.2035,1.1547,1.1563,1.1596,1.1455,1.134,1.0934,1.0118,0.9361,0.8538,0.7509,0.0,0.7129,0.6986,0.7276,0.7488,0.7505,0.7448,0.7456,0.757,0.7011,0.7033,0.7705,0.7102,0.6895,0.7274,0.6544,0.5903,0.5545,0.5491,0.5436,0.5384,0.5395,0.5398,0.5401,0.4947,0.4827,0.4872,0.422,0.4083,0.4122,0.4165,0.4212,0.4261,0.4297,0.3964,0.3624,0.3624,0.3434,0.3056,2.0554,2.01,1.9639,1.9742,1.9539,1.9489,1.9767,1.9469,1.9454,2.0008,1.9692,1.9443,1.9622,1.9509,1.9362,1.9386,1.9119,1.8762,1.8268,1.7448,1.6981,1.6429,1.6273,1.6151,1.6083,1.6232,1.6381,1.6524,1.6381,1.6185,1.6128,1.5744,1.5612,1.5306,1.5605,1.5658,1.5817,1.579,1.583,1.5896,1.5616,1.5446,1.544,1.5185,1.5028,1.505,1.5195,1.5054,1.4854,1.5228,1.5087,1.4886,1.4461,1.4377,1.4409,1.4274,1.4088,1.4183,1.4583,1.4917,1.5013,1.4715,1.4435,1.4132,1.3337,1.3492,1.3407,1.2238,1.2181,1.2141,1.1654,1.1357,1.1156,1.0472,0.9687,0.0,0.8225,0.7721,0.7302,0.7264,0.7554,0.7762,0.7811,0.7774,0.7746,0.7738,0.7338,0.7187,0.7791,0.7308,0.7454,0.7925,0.6799,0.6135,0.5961,0.5724,0.5507,0.548,0.548,0.5496,0.5526,0.5348,0.5222,0.5306,0.4799,0.4659,0.4708,0.4576,0.4438,0.4479,0.45,0.4348,0.4196,0.3815,0.3636,0.3464,2.087,2.0684,2.0481,2.0641,2.0242,2.0166,2.0559,2.0012,1.9718,2.01,1.9767,1.9519,1.9492,1.9516,1.9589,1.9776,1.9425,1.9245,1.9026,1.8179,1.7516,1.6828,1.6398,1.6282,1.6083,1.6198,1.6341,1.6524,1.6415,1.6476,1.6686,1.6225,1.6137,1.6354,1.6042,1.6076,1.6354,1.6164,1.6151,1.6246,1.613,1.5947,1.575,1.5825,1.571,1.5527,1.5649,1.5669,1.5635,1.5581,1.5601,1.5581,1.5235,1.5201,1.5282,1.5248,1.4993,1.4617,1.4865,1.5043,1.5364,1.5096,1.499,1.4878,1.4191,1.4429,1.4401,1.2907,1.2993,1.2897,1.1838,1.1505,1.1307,1.084,0.0,0.9254,0.0,0.8136,0.7712,0.774,0.7844,0.8032,0.8117,0.8089,0.8015,0.7901,0.7541,0.753,0.786,0.7698,0.787,0.8391,0.7234,0.6728,0.6536,0.613,0.5749,0.5735,0.5732,0.5583,0.5627,0.5581,0.5627,0.5741,0.538,0.5241,0.5308,0.4995,0.4852,0.4885,0.4894,0.4734,0.4766,0.4387,0.4023,0.4056,2.1461,2.1252,2.101,2.1028,2.0421,1.9775,1.9775,1.9928,1.9907,1.9692,1.9759,1.9916,1.9492,1.9516,1.9589,1.9776,1.9946,1.9838,1.9212,1.9057,1.8419,1.7717,1.7084,1.6672,1.6083,1.609,1.6239,1.6524,1.651,1.6517,1.6537,1.649,1.6266,1.5906,1.6015,1.6001,1.5906,1.6029,1.609,1.6096,1.609,1.6069,1.6035,1.59,1.5839,1.5818,1.5832,1.575,1.5683,1.594,1.5859,1.5635,1.5601,1.5594,1.5581,1.5438,1.5486,1.5622,1.5778,1.5811,1.5805,1.5818,1.5215,1.4596,1.4474,1.4059,1.3746,1.3175,1.3181,1.2999,1.2212,1.1963,1.1464,1.0498,0.0,0.0,0.9101,0.8548,0.8318,0.8534,0.8236,0.8215,0.8305,0.8162,0.8093,0.8162,0.8089,0.8044,0.8044,0.8215,0.8399,0.8583,0.8056,0.7485,0.7061,0.6529,0.632,0.6255,0.5735,0.5561,0.5567,0.5561,0.5627,0.5741,0.5741,0.5807,0.5921,0.5794,0.5821,0.5831,0.5882,0.5715,0.5339,0.5149,0.4958,0.4402,2.1622,2.1536,2.1629,2.176,2.1171,2.1103,2.1298,2.0969,2.0698,2.089,2.0354,1.9957,2.025,1.9889,1.9752,1.993,2.002,2.0068,1.9854,1.9581,1.8745,1.7421,1.7214,1.682,1.6225,1.6225,1.632,1.6524,1.6619,1.6612,1.6524,1.6524,1.6381,1.6137,1.6096,1.6103,1.6137,1.6096,1.6083,1.6083,1.6083,1.6029,1.5947,1.5981,1.5934,1.5852,1.5852,1.5879,1.59,1.5832,1.5791,1.5737,1.5554,1.5622,1.5764,1.5703,1.5859,1.6029,1.5893,1.5852,1.5852,1.5852,1.5576,1.5428,1.5187,1.4878,1.4571,1.4037,1.398,1.3738,1.3084,1.2489,1.205,1.1607,0.0,0.9951,0.9682,0.9356,0.9112,0.9155,0.8848,0.8637,0.8675,0.8444,0.8223,0.8199,0.8219,0.8207,0.815,0.8321,0.8477,0.8603,0.8429,0.8052,0.7662,0.7132,0.6941,0.6911,0.6689,0.6338,0.6201,0.6201,0.6073,0.5801,0.5878,0.5935,0.5984,0.6041,0.6066,0.6068,0.609,0.5908,0.5723,0.5375,0.5216,0.5058,2.1735,2.1896,2.2028,2.216,2.1912,2.1827,2.2088,2.1648,2.1308,2.1777,2.0984,2.0578,2.0755,2.0545,2.0207,2.0439,2.0266,2.0315,2.0223,1.9995,1.9119,1.7643,1.7732,1.7336,1.6841,1.6682,1.6759,1.6863,1.6967,1.6967,1.6653,1.6653,1.6577,1.6232,1.613,1.6137,1.6232,1.6123,1.6083,1.6083,1.6137,1.6062,1.594,1.6096,1.6056,1.5927,1.5927,1.5961,1.5988,1.5832,1.5784,1.5757,1.5601,1.5723,1.5934,1.5981,1.6144,1.6252,1.5995,1.5893,1.5852,1.5852,1.5784,1.5662,1.5459,1.533,1.5228,1.4759,1.4699,1.4434,1.3745,1.3169,1.2604,1.2073,1.1373,1.0563,1.0435,0.9963,0.9763,0.9647,0.9288,0.9034,0.9065,0.8498,0.8289,0.8285,0.826,0.8248,0.824,0.8358,0.8485,0.8603,0.8636,0.8453,0.8067,0.771,0.7352,0.7352,0.73,0.6945,0.6633,0.6655,0.6525,0.623,0.634,0.621,0.6232,0.6082,0.6098,0.6098,0.6098,0.6098,0.6104,0.5764,0.5609,0.5653,2.1792,2.2113,2.2387,2.2387,2.1995,2.1676,2.1885,2.174,2.1551,2.1353,2.1461,2.1569,2.1362,2.1238,2.1081,2.0858,2.0883,2.0836,2.0572,2.0596,1.9983,1.8496,1.8784,1.8606,1.768,1.7829,1.7911,1.7926,1.7926,1.7717,1.7106,1.7106,1.6827,1.6083,1.6083,1.6083,1.6083,1.6083,1.6083,1.6096,1.6246,1.6218,1.6103,1.6252,1.6218,1.6083,1.609,1.5988,1.5879,1.6035,1.5886,1.5669,1.5811,1.5961,1.6117,1.6266,1.6313,1.6279,1.613,1.5974,1.5852,1.5852,1.5628,1.5411,1.5411,1.5411,1.5323,1.5031,1.5086,1.4859,1.4055,1.3681,1.3148,1.2009,1.1576,1.1282,1.09,1.0309,1.0157,1.0386,0.9544,0.9061,0.9162,0.8477,0.8277,0.8456,0.8219,0.8146,0.8326,0.8338,0.8419,0.8603,0.8689,0.8693,0.8611,0.8067,0.7889,0.7885,0.7352,0.7177,0.7177,0.7255,0.7327,0.7398,0.6917,0.6801,0.6862,0.6288,0.6098,0.6098,0.6098,0.6098,0.6098,0.6098,0.6098,0.6117,2.2703,2.2392,2.2227,2.2368,2.2191,2.2266,2.2482,2.2332,2.2341,2.2552,2.2185,2.1977,2.2174,2.1767,2.1625,2.1673,2.1276,2.0862,2.0223,2.0336,2.0174,1.9444,1.9237,1.8899,1.8186,1.8119,1.8082,1.809,1.7683,1.7422,1.7106,1.671,1.6426,1.6083,1.6083,1.6083,1.6083,1.6083,1.6144,1.6246,1.6293,1.6341,1.6408,1.6558,1.6524,1.6402,1.651,1.6449,1.6327,1.6374,1.6191,1.5974,1.613,1.6273,1.6422,1.6571,1.6619,1.6585,1.6429,1.6205,1.5988,1.5879,1.5628,1.5411,1.5411,1.533,1.5255,1.5276,1.5316,1.5269,1.4839,1.431,1.3732,1.282,1.2015,1.1487,1.0927,1.072,1.072,1.0795,1.0289,0.985,0.9679,0.9056,0.8688,0.8464,0.8395,0.8403,0.8522,0.8526,0.855,0.8607,0.8689,0.8722,0.8697,0.8513,0.8485,0.8429,0.8305,0.8155,0.7798,0.794,0.7828,0.7476,0.7366,0.7223,0.6862,0.6672,0.6479,0.6098,0.6098,0.6098,0.6104,0.6145,0.6161,0.618,2.2974,2.2625,2.2245,2.2368,2.2463,2.2557,2.269,2.2605,2.2671,2.3086,2.2688,2.2305,2.2784,2.2633,2.2473,2.2383,2.1639,2.0979,2.0588,2.0537,2.0304,2.0011,1.9894,1.9474,1.8929,1.8891,1.8837,1.8768,1.8293,1.8008,1.7508,1.7049,1.6571,1.6083,1.6083,1.6117,1.6171,1.611,1.6205,1.6402,1.6659,1.6701,1.6544,1.6962,1.7155,1.6817,1.6646,1.6845,1.7009,1.6953,1.6856,1.6989,1.7009,1.7134,1.7203,1.7383,1.721,1.6781,1.6714,1.646,1.6076,1.6042,1.5764,1.5499,1.5499,1.5432,1.5391,1.5486,1.5499,1.5418,1.5147,1.4839,1.429,1.3368,1.2553,1.2027,1.1479,1.118,1.0938,1.0987,1.0609,1.0159,1.0199,0.9467,0.8935,0.8468,0.8473,0.8497,0.855,0.8554,0.8587,0.8656,0.8742,0.8787,0.8787,0.8824,0.8799,0.8713,0.8726,0.8573,0.843,0.8385,0.8446,0.8072,0.7963,0.7809,0.7429,0.7242,0.7049,0.6669,0.6479,0.6479,0.6487,0.6166,0.6175,0.6175,2.3079,2.2654,2.2387,2.2387,2.2567,2.2718,2.2737,2.2737,2.2879,2.3285,2.3001,2.2992,2.3568,2.3635,2.3437,2.3041,2.217,2.1356,2.1162,2.0928,2.0539,2.0353,2.0361,2.0206,1.9865,2.0011,2.0003,1.9833,1.967,1.8962,1.7918,1.7777,1.7297,1.6282,1.6282,1.6357,1.6481,1.6357,1.6467,1.6742,1.7305,1.7291,1.6797,1.7718,1.7955,1.7597,1.7058,1.7092,1.7797,1.7646,1.7916,1.8522,1.8179,1.806,1.8222,1.8321,1.7912,1.7092,1.7255,1.6627,1.6157,1.6293,1.6008,1.5689,1.5662,1.5649,1.5635,1.5622,1.5615,1.5486,1.5031,1.495,1.4671,1.4016,1.3211,1.2559,1.2325,1.1513,1.0987,1.109,1.0662,1.0511,1.0549,0.9712,0.9022,0.8669,0.8497,0.8493,0.8485,0.8489,0.8566,0.873,0.8832,0.8885,0.8885,0.8967,0.8962,0.8869,0.8795,0.8803,0.8885,0.8979,0.902,0.9024,0.8534,0.8379,0.8375,0.7809,0.7619,0.7619,0.7052,0.6865,0.6877,0.6356,0.615,0.6131,2.3655,2.2945,2.2387,2.2387,2.2567,2.2765,2.2926,2.2945,2.3039,2.3304,2.3257,2.3313,2.3606,2.3635,2.3701,2.3671,2.3089,2.2406,2.137,2.1458,2.1143,2.0547,2.1085,2.106,2.0426,2.032,2.0247,2.0206,1.9752,1.9181,1.8706,1.827,1.7918,1.7275,1.7275,1.729,1.7334,1.7414,1.7567,1.7763,1.813,1.8248,1.8142,1.855,1.8609,1.8587,1.847,1.8653,1.855,1.8388,1.8317,1.833,1.8705,1.8558,1.838,1.8476,1.8402,1.815,1.7997,1.7466,1.7052,1.708,1.6522,1.6103,1.5859,1.5716,1.5608,1.5486,1.5459,1.5323,1.4875,1.4787,1.4544,1.3996,1.3649,1.3198,1.2343,1.2009,1.1519,1.1112,1.1079,1.0772,1.0559,0.9847,0.9401,0.9217,0.8857,0.8648,0.8583,0.864,0.8693,0.8734,0.8893,0.8979,0.8979,0.8999,0.8962,0.8873,0.8922,0.8958,0.8983,0.9073,0.9114,0.9114,0.8944,0.8759,0.8379,0.8189,0.7999,0.7619,0.7052,0.7278,0.7512,0.6513,0.6331,0.6764,2.432,2.3756,2.3209,2.2923,2.3115,2.3088,2.3001,2.3096,2.3209,2.3323,2.3332,2.3455,2.3757,2.3965,2.4135,2.4249,2.3741,2.2915,2.1994,2.2047,2.1746,2.1019,2.1314,2.1364,2.0718,2.071,2.0621,2.045,2.024,1.9647,1.9088,1.8806,1.8179,1.7672,1.7672,1.7717,1.7799,1.7873,1.8045,1.8291,1.8662,1.8782,1.8663,1.9129,1.9387,1.9334,1.9295,1.9295,1.9433,1.9212,1.9325,1.9684,1.9677,1.9468,1.9193,1.9499,1.9128,1.8567,1.8451,1.8104,1.7437,1.7234,1.6912,1.6557,1.5995,1.5737,1.5506,1.5425,1.535,1.5187,1.4808,1.4855,1.4691,1.4289,1.3957,1.3553,1.3325,1.2758,1.2261,1.1788,1.1743,1.1422,1.0875,1.0589,1.01,0.9963,0.9373,0.9143,0.9096,0.8957,0.882,0.8864,0.8958,0.9028,0.9073,0.9073,0.9048,0.8999,0.9003,0.9032,0.9073,0.9122,0.9142,0.9142,0.9142,0.8952,0.8759,0.8759,0.8569,0.8193,0.7809,0.7858,0.8117,0.715,0.7021,0.7107,2.473,2.4351,2.3836,2.3671,2.3878,2.3825,2.3461,2.345,2.3593,2.3593,2.3593,2.3736,2.4127,2.4268,2.4476,2.4476,2.3889,2.3235,2.2934,2.2651,2.2117,2.1483,2.1517,2.1372,2.0856,2.1275,2.1226,2.0686,2.0686,2.0304,1.956,1.9355,1.887,1.8153,1.8153,1.8014,1.8127,1.8172,1.8353,1.8838,1.9423,1.9291,1.8918,1.9812,2.0088,2.0056,1.9524,1.9815,2.01,1.9776,2.0272,2.0972,2.0654,2.035,2.0147,2.0409,1.9741,1.8907,1.9018,1.8652,1.797,1.7589,1.7271,1.6942,1.6323,1.5811,1.5513,1.5459,1.535,1.516,1.4841,1.4957,1.5025,1.478,1.4249,1.4055,1.4119,1.3506,1.3016,1.2671,1.2618,1.2113,1.1594,1.1341,1.0956,1.0679,1.0046,0.9806,0.9788,0.9254,0.9115,0.919,0.9024,0.9069,0.9142,0.9142,0.9142,0.9142,0.9081,0.9093,0.9167,0.9167,0.9167,0.9167,0.9167,0.9158,0.9142,0.9142,0.9142,0.9142,0.8569,0.8439,0.8532,0.8228,0.7738,0.7424,2.473,2.4351,2.4032,2.4264,2.4277,2.4488,2.4688,2.45,2.4422,2.5049,2.4628,2.452,2.4774,2.4433,2.405,2.405,2.4022,2.384,2.3317,2.2929,2.2309,2.1669,2.2259,2.2062,2.0856,2.2258,2.2335,2.1051,2.1051,2.0945,2.0742,2.0401,1.9854,1.9517,1.9517,1.9436,1.9332,1.9653,1.9814,1.987,2.0047,2.0208,2.0337,2.0224,2.0457,2.0819,2.069,2.0835,2.1076,2.0947,2.0786,2.067,2.0988,2.0603,2.015,2.0079,2.0003,1.9613,1.9404,1.925,1.8775,1.8914,1.8216,1.7248,1.7106,1.6522,1.592,1.5662,1.5594,1.5445,1.5018,1.4862,1.4787,1.4746,1.4611,1.4343,1.3842,1.3907,1.3738,1.312,1.2829,1.2575,1.2534,1.1785,1.1227,1.1243,1.0674,1.0435,1.0345,0.987,0.9742,0.9755,0.9274,0.913,0.9142,0.9142,0.9142,0.9146,0.9212,0.9252,0.9261,0.9261,0.9261,0.9261,0.9261,0.9216,0.9142,0.9142,0.9142,0.9142,0.8569,0.8665,0.9204,0.8902,0.831,0.7885,2.5129,2.4935,2.4855,2.4824,2.4957,2.5152,2.5103,2.5029,2.5089,2.5295,2.5089,2.4963,2.5182,2.4901,2.4654,2.4885,2.4585,2.4296,2.3834,2.3731,2.3367,2.2938,2.2811,2.2432,2.1799,2.1967,2.1781,2.1278,2.1278,2.1075,2.071,2.0547,2.0231,1.9792,1.9792,1.98,1.9833,1.9995,2.0125,2.0214,2.0288,2.0369,2.0458,2.0572,2.071,2.0848,2.0962,2.1173,2.1368,2.1616,2.1456,2.1546,2.1491,2.1128,2.0791,2.0458,2.0166,1.9922,1.9841,1.9605,1.9402,1.9065,1.8549,1.8,1.7322,1.6722,1.6237,1.5466,1.5384,1.5303,1.5025,1.4916,1.4869,1.4869,1.4665,1.4363,1.4262,1.4329,1.4225,1.3954,1.3276,1.2777,1.2835,1.2025,1.1641,1.171,1.1278,1.0875,1.089,1.0564,1.0211,0.9835,0.969,0.9332,0.9142,0.9142,0.9142,0.9142,0.9183,0.9232,0.9281,0.933,0.9326,0.9281,0.9281,0.9228,0.9142,0.9142,0.9142,0.9142,0.8952,0.9028,0.9354,0.9296,0.8925,0.8314]}]]